ECMWFNIL_sfc_dewp_000.txt.gz
Dewpoint
48 48 47 47 47 47 48 48 48 48 47 47 46 46 46 47 48 49 49 50 51 51 51 52 53 54 54 54 56 55 54 56 58 59 61 61 61 62 60 59 62 62
49 48 47 47 45 46 47 48 48 48 48 48 47 46 47 47 47 48 48 49 49 50 50 51 52 53 54 54 54 54 54 55 56 57 59 61 61 60 60 62 62 62
49 48 48 47 47 48 48 48 48 48 47 47 49 48 47 47 47 47 47 48 48 49 50 51 52 52 52 53 54 54 54 54 55 56 57 57 62 62 61 62 61 62
49 49 48 47 47 47 48 47 47 47 47 46 47 48 47 47 45 46 46 47 47 47 48 49 49 50 51 52 54 53 54 54 53 54 55 56 59 62 63 62 61 61
49 48 48 48 47 47 47 46 46 46 46 46 47 47 46 45 45 45 45 46 46 46 47 47 48 49 50 50 52 53 53 53 54 54 52 54 56 57 60 61 62 61
48 45 46 46 47 47 46 45 45 45 44 45 44 43 44 44 44 44 44 45 45 45 46 46 47 48 49 49 50 51 53 53 53 53 52 52 52 55 56 58 59 60
47 47 47 46 46 46 46 45 44 43 43 44 43 43 43 43 43 43 43 44 44 44 44 45 45 46 48 49 49 51 52 52 52 52 52 51 51 52 54 56 57 58
47 47 46 46 46 46 45 43 42 43 44 43 43 43 43 42 42 43 43 43 43 43 44 44 45 45 46 47 47 48 50 51 53 52 52 52 53 50 50 51 55 56
46 46 45 46 46 45 44 43 43 44 44 43 43 42 42 42 42 42 43 43 43 43 43 43 44 44 45 46 46 47 47 49 51 52 52 52 53 52 50 50 51 54
45 45 45 45 45 44 44 42 43 43 43 43 42 43 43 43 42 42 42 42 42 42 42 43 44 44 44 44 45 45 46 47 48 50 51 52 52 52 51 51 50 51
45 45 45 45 45 43 43 43 43 42 42 41 42 43 43 44 43 42 42 42 42 41 41 42 43 43 43 43 44 45 45 46 47 48 50 51 51 51 52 52 51 51
45 45 44 44 43 41 43 42 42 42 42 43 44 44 44 45 43 41 41 40 40 40 40 41 41 41 42 42 43 44 44 45 46 47 48 49 51 52 51 52 53 52
43 43 42 42 42 42 42 42 42 43 43 43 43 43 42 43 42 41 41 40 40 40 40 40 40 41 41 42 42 43 43 44 45 46 47 48 50 52 52 52 52 52
43 42 41 41 40 41 41 42 43 43 42 42 42 41 42 41 40 40 40 40 40 40 40 40 40 40 40 41 41 42 43 44 44 45 46 48 50 51 52 52 52 53
41 41 40 40 40 41 41 42 41 41 41 41 41 41 41 40 40 40 39 39 39 39 39 39 40 40 40 40 41 42 42 43 44 44 45 46 48 50 51 52 52 53
39 40 39 39 40 41 41 41 40 40 40 40 40 40 40 40 40 40 39 39 38 38 38 39 40 40 41 40 41 41 42 43 44 44 45 46 47 49 50 51 52 53
38 38 39 40 41 41 41 40 39 40 40 40 40 40 40 40 40 39 39 39 38 38 38 39 39 39 39 39 39 40 41 42 43 44 45 45 47 49 50 50 52 51
38 38 39 40 40 39 39 38 39 39 39 39 40 40 40 41 41 39 39 39 39 38 38 38 39 39 38 38 38 39 40 42 42 42 44 46 46 48 49 50 51 52
37 38 39 39 39 39 38 38 38 38 39 39 39 40 40 39 38 39 38 38 38 37 37 38 38 38 38 38 38 38 38 40 41 42 42 44 46 49 50 50 51 51
38 38 38 38 39 38 37 36 37 37 38 39 39 39 38 38 38 38 38 37 37 37 37 37 38 38 37 38 38 38 37 38 41 41 42 43 44 46 49 51 51 51
37 36 37 38 37 36 36 35 36 37 37 37 37 37 37 36 37 37 37 37 37 37 37 37 38 37 37 37 37 37 37 38 40 41 41 42 44 45 47 49 52 52
37 36 37 37 36 35 35 35 36 37 37 38 38 37 37 37 36 37 36 36 37 37 37 36 37 36 36 37 37 37 38 40 40 40 41 42 43 45 46 47 49 52
36 36 37 36 35 35 35 36 36 36 37 37 37 36 36 36 35 36 36 36 36 36 36 36 36 37 36 36 37 37 38 40 40 41 41 42 43 45 46 47 48 51
36 35 35 36 34 34 35 37 37 37 36 36 36 35 35 35 35 35 35 35 36 36 36 36 37 37 37 36 37 37 39 40 41 41 41 42 43 44 45 46 47 48
35 35 35 35 34 35 36 37 37 36 35 35 35 35 35 34 34 34 34 34 35 36 38 37 37 38 38 37 37 37 39 41 41 41 42 42 43 45 46 47 47 47
35 35 36 36 35 35 36 37 37 36 35 35 35 34 34 34 33 33 33 34 35 36 37 37 37 38 39 38 37 37 38 41 42 43 43 43 44 45 46 47 47 49

ECMWFNIL_sfc_dewp_003.txt.gz
Dewpoint
50 49 50 49 48 48 50 51 49 49 49 48 48 48 48 49 49 51 50 51 51 51 51 51 51 52 52 53 54 54 53 54 55 56 56 57 60 62 62 62 61 59
50 50 48 49 47 47 48 50 51 50 50 51 49 49 49 49 50 50 50 50 50 50 49 50 50 50 51 52 53 54 53 54 55 54 56 57 58 60 62 63 62 61
50 49 49 48 47 49 50 51 51 50 49 49 51 51 50 50 50 50 50 49 48 48 49 48 49 50 51 52 52 53 53 54 54 55 54 54 55 56 59 62 62 62
50 50 49 49 49 49 51 50 50 50 49 49 49 50 50 51 50 49 48 47 47 46 47 46 47 48 48 49 51 50 52 52 53 54 55 54 54 55 56 58 60 61
50 49 49 49 49 49 49 49 49 48 48 48 48 48 47 48 47 47 47 46 45 44 44 45 46 47 47 48 49 50 51 51 53 54 53 54 55 54 55 56 57 59
50 48 47 48 49 49 48 48 48 47 47 48 48 46 46 45 44 44 45 44 43 43 43 44 44 45 46 47 48 49 50 50 51 52 53 53 53 54 52 54 55 56
49 48 48 47 48 48 48 48 47 47 46 46 44 44 43 43 43 42 41 42 42 41 41 42 43 44 45 46 46 47 48 49 50 50 50 51 53 54 53 53 52 53
49 49 48 48 48 48 48 47 47 46 47 44 44 43 41 41 40 41 41 41 40 40 41 41 42 43 44 45 44 46 47 48 49 49 50 50 52 52 52 52 53 51
49 49 48 48 48 48 47 47 46 46 45 44 43 42 42 41 41 41 39 38 39 41 41 41 42 42 43 44 44 45 45 46 48 48 49 50 51 51 51 51 52 52
48 47 47 48 48 47 47 47 47 46 45 43 42 42 41 42 42 40 40 40 41 41 41 41 42 42 43 43 43 44 44 44 45 47 48 48 49 50 51 52 52 52
48 47 47 47 48 47 47 46 46 45 44 41 42 41 40 41 40 41 41 41 42 41 41 41 41 41 42 42 43 44 44 44 45 45 47 47 48 49 50 51 52 52
47 47 47 47 47 47 46 46 45 44 43 43 41 39 40 41 41 42 42 42 41 41 41 41 41 41 41 41 41 42 43 44 44 45 45 46 47 48 48 49 51 52
45 45 46 46 46 45 45 44 43 43 42 41 40 40 40 41 41 41 42 42 42 43 41 41 41 41 41 41 41 41 42 42 43 44 44 45 46 46 47 48 49 51
44 45 45 45 44 44 43 43 42 41 41 40 39 40 40 40 40 41 41 41 41 41 41 41 41 40 41 41 41 41 41 42 42 43 43 44 46 46 47 48 49 50
44 44 44 43 42 42 42 41 41 40 40 39 39 40 41 40 40 40 40 40 40 40 40 40 41 41 40 41 41 41 41 41 41 42 42 43 44 45 46 47 48 49
43 43 42 42 42 41 40 40 40 40 40 40 40 40 40 40 40 40 40 41 40 40 40 41 41 41 41 41 40 41 41 41 42 42 42 43 43 44 45 46 47 48
41 40 40 40 40 40 40 39 39 39 39 39 39 39 40 40 40 40 40 40 40 40 40 41 41 40 39 38 38 39 41 41 41 41 42 43 43 43 44 45 46 46
39 39 39 39 39 36 38 38 38 38 38 37 38 39 39 40 40 39 39 40 40 39 40 40 40 40 38 38 38 38 39 41 40 40 41 41 42 43 43 44 45 46
38 38 38 38 37 36 37 38 37 37 36 36 36 38 39 38 38 39 39 38 38 38 38 39 39 38 38 38 38 37 38 39 39 39 39 40 40 41 42 44 45 46
37 37 37 36 36 36 37 37 36 35 36 36 37 38 37 38 38 38 38 38 37 37 37 38 38 38 37 37 37 37 37 37 39 39 39 39 39 40 41 42 43 45
36 37 36 35 35 36 37 36 35 36 35 36 37 37 37 36 36 36 37 37 37 37 37 37 38 37 37 37 37 37 37 37 39 40 39 39 39 39 40 41 42 43
36 36 36 35 35 35 35 35 35 35 35 36 36 36 36 36 36 36 36 36 36 36 36 36 36 36 36 36 36 36 36 38 38 38 39 38 38 39 39 40 41 42
36 35 36 35 34 34 33 34 34 35 36 36 36 36 35 35 35 36 36 35 35 35 35 35 36 36 36 36 36 36 36 38 37 37 37 38 38 39 39 39 40 41
35 33 34 34 33 33 33 34 35 35 35 36 36 35 35 35 35 35 35 34 35 35 35 35 35 35 35 36 36 36 37 37 37 37 37 37 37 38 39 39 40 42
34 35 34 34 33 33 35 35 35 35 35 36 36 35 35 35 34 34 34 34 34 34 36 35 34 35 35 35 35 35 37 37 36 36 36 37 37 37 38 39 39 41
36 36 35 34 34 34 34 34 34 34 35 36 36 35 34 34 34 33 33 33 33 33 34 34 34 34 35 35 36 36 37 38 37 37 37 37 37 37 39 39 39 40

ECMWFNIL_sfc_dewp_009.txt.gz
Dewpoint
52 53 51 52 51 52 51 50 51 50 49 50 49 49 48 49 51 49 50 50 50 50 50 50 50 49 51 50 51 52 52 52 52 52 52 53 53 54 54 55 55 59
52 53 53 52 51 52 51 51 51 50 49 50 50 50 49 49 50 50 50 49 51 50 50 50 50 50 49 49 50 49 49 50 50 51 51 51 52 52 53 53 54 55
52 51 52 51 50 50 51 51 51 50 50 50 50 49 51 50 49 50 50 50 49 49 49 49 49 49 49 48 48 48 48 49 49 50 50 50 51 51 51 52 53 54
51 50 50 50 50 49 51 50 50 50 49 49 48 50 49 50 49 50 49 53 49 48 48 48 48 47 47 47 47 47 47 48 48 48 48 48 49 49 50 50 51 52
50 50 50 50 50 50 50 49 49 49 49 49 49 49 49 48 47 48 47 48 48 47 47 47 47 47 47 47 46 45 46 47 47 47 47 47 48 49 49 50 51 51
50 50 50 49 49 50 49 49 50 50 49 49 49 49 47 48 47 47 48 46 46 46 45 45 45 46 45 45 45 45 45 46 46 46 46 46 45 46 46 47 48 49
50 49 49 49 49 50 49 49 49 50 49 48 49 47 47 47 47 47 46 46 45 46 44 43 43 43 44 44 44 44 44 45 45 45 45 45 46 46 46 46 47 48
50 49 49 49 49 49 49 49 49 48 48 48 46 47 47 47 47 46 46 45 43 43 43 43 43 43 43 43 43 43 43 45 45 44 44 44 44 44 44 45 46 46
49 49 49 48 49 48 48 48 48 48 48 47 47 46 47 46 46 45 44 44 43 43 43 42 42 42 42 43 43 43 43 43 44 44 43 43 43 43 44 44 44 45
49 49 48 48 48 48 48 48 48 48 49 47 47 47 47 46 46 45 44 44 43 43 42 42 42 42 42 42 43 43 43 43 43 43 42 42 42 42 43 43 44 44
49 49 48 48 48 48 48 48 48 48 48 47 47 46 46 45 45 45 43 43 43 42 42 41 42 42 42 42 43 43 43 43 43 43 43 43 43 43 44 43 43 43
49 48 48 48 48 48 48 48 48 47 47 47 47 46 44 44 43 43 43 42 42 42 42 42 42 42 42 43 43 43 43 43 43 42 42 42 42 42 43 43 43 43
48 48 48 48 48 48 48 48 47 47 46 45 45 44 43 42 42 41 42 41 41 41 41 42 42 42 43 43 43 43 43 42 42 42 42 42 42 42 42 42 42 43
48 48 48 48 48 48 48 47 47 46 45 44 44 42 42 41 40 40 41 41 42 42 42 43 42 42 42 42 42 42 42 41 41 41 41 41 42 42 42 42 42 42
48 48 47 47 48 47 47 46 45 44 44 43 42 42 43 42 42 41 40 40 41 41 41 42 42 43 43 42 42 42 42 42 42 41 41 41 41 42 42 42 42 43
48 48 47 47 46 45 45 44 44 44 43 42 41 41 41 41 41 41 40 40 39 39 39 41 41 42 43 41 41 42 41 41 42 41 41 41 41 41 41 41 41 41
47 47 46 45 44 44 43 44 43 43 42 42 41 41 41 40 41 40 39 39 38 38 38 40 40 41 40 38 38 39 40 40 39 39 39 39 39 40 40 40 40 40
45 45 44 44 44 43 43 43 42 41 41 40 40 39 40 40 39 38 38 38 38 38 38 39 39 40 38 38 38 37 38 39 38 37 38 38 38 38 38 38 39 39
44 44 43 43 43 43 42 41 41 40 39 38 38 39 39 38 38 38 37 38 38 37 37 39 38 39 37 38 37 37 37 37 36 36 36 37 37 37 37 37 37 38
43 42 42 42 42 41 41 40 39 38 38 38 38 39 37 37 37 37 37 37 37 37 38 38 38 39 37 37 37 37 36 37 37 37 37 36 36 36 37 37 37 37
42 41 40 41 40 40 39 38 38 37 37 38 38 37 36 35 35 35 36 37 36 37 37 37 38 38 37 37 37 37 36 37 37 38 36 36 36 36 36 36 37 37
40 39 39 39 39 39 38 37 37 37 37 37 36 35 35 35 35 36 35 35 36 36 36 36 36 36 36 36 36 36 36 37 36 35 35 34 34 35 35 35 36 36
39 39 39 39 39 37 37 37 36 36 36 36 35 34 34 34 34 35 35 35 35 36 35 35 35 36 35 35 35 35 35 35 34 33 33 33 33 33 34 34 34 35
38 38 39 39 37 36 36 36 36 35 35 36 35 34 34 34 34 34 34 35 35 35 35 35 34 35 35 35 35 35 36 34 34 33 32 32 32 33 33 33 34 38
37 38 37 37 36 36 37 35 34 34 34 36 35 34 33 33 35 33 33 34 34 35 38 36 34 35 35 34 35 35 35 34 33 32 32 31 32 32 32 33 33 35
38 38 37 37 37 36 35 35 35 34 35 34 33 34 33 33 33 33 33 34 35 35 35 35 33 33 34 34 35 35 35 34 33 32 31 31 32 32 32 32 33 33

ECMWFNIL_sfc_dewp_012.txt.gz
Dewpoint
49 49 49 49 49 48 50 49 49 49 49 48 48 48 49 49 50 49 50 49 49 49 49 48 48 48 49 48 48 48 49 49 49 48 48 49 49 49 51 51 51 52
49 51 50 50 50 51 50 50 49 49 49 48 48 48 47 49 49 48 48 48 50 48 49 48 49 49 48 48 48 47 47 47 47 51 49 48 48 48 48 48 49 51
50 51 50 50 50 51 50 50 50 49 49 49 48 48 49 49 48 48 48 48 48 48 48 48 48 49 48 47 47 46 46 46 46 47 48 47 47 47 47 48 48 49
50 51 51 50 50 50 50 50 49 49 49 49 48 49 50 49 47 48 49 53 47 48 47 47 47 47 47 47 46 46 46 46 46 46 46 46 47 47 47 48 48 47
50 51 51 50 50 50 50 50 49 49 49 49 48 48 50 48 47 47 46 47 46 46 46 47 46 46 46 46 46 45 45 45 45 45 45 45 46 47 47 47 46 46
50 50 51 50 50 49 50 49 49 49 48 47 48 50 47 47 46 46 46 45 46 46 45 45 45 45 45 44 44 44 44 45 45 45 45 44 45 45 46 46 46 45
50 50 50 50 49 49 49 49 49 49 48 48 48 47 47 46 46 46 46 46 45 46 45 44 43 43 43 43 43 43 43 44 44 44 44 44 45 45 45 45 45 44
50 50 49 49 48 49 48 48 49 48 48 48 47 47 47 46 46 45 45 45 44 44 44 44 43 43 43 42 42 42 42 44 44 43 43 44 43 43 44 44 44 43
50 49 49 48 48 48 48 48 48 48 48 47 47 46 46 46 46 45 45 44 43 44 43 42 43 42 42 42 42 42 42 42 44 43 43 43 43 43 43 43 43 43
49 49 48 48 47 48 48 48 48 47 48 47 46 45 46 46 45 45 44 43 43 43 42 42 42 42 42 42 42 42 42 42 42 42 43 43 42 42 42 43 43 42
49 49 48 47 47 47 47 47 47 47 47 46 46 45 45 44 45 44 43 42 42 42 41 41 41 41 41 41 42 42 42 42 43 43 43 43 43 43 44 43 43 43
49 48 48 47 47 47 47 47 47 47 47 46 46 46 44 44 43 42 43 41 41 41 41 41 41 41 41 41 42 42 43 43 43 43 44 43 43 43 43 43 42 42
49 49 48 47 47 47 47 47 47 47 46 46 46 45 44 42 41 40 43 40 41 41 41 40 41 41 41 41 41 41 41 42 42 42 42 42 42 42 42 42 42 42
49 49 48 47 47 47 47 47 47 46 46 45 45 43 42 41 40 40 39 41 40 40 41 42 41 41 40 41 41 41 41 41 41 42 42 42 43 42 43 42 42 42
49 48 48 48 48 47 47 47 46 46 45 44 43 42 43 41 41 40 39 39 40 40 40 41 40 40 41 40 40 40 40 40 40 40 40 40 40 40 40 40 41 41
48 48 47 47 47 47 46 46 45 45 44 43 41 41 41 41 40 40 39 38 38 38 38 39 39 40 42 42 41 40 40 39 39 39 39 38 39 38 38 39 39 40
47 47 47 47 47 46 45 45 44 43 42 41 40 40 39 39 40 39 38 38 38 37 37 38 39 40 40 38 38 39 39 38 38 38 38 38 38 37 37 37 38 38
48 48 47 46 46 45 44 44 43 42 41 40 39 39 39 39 38 38 37 37 38 37 37 38 38 40 38 38 38 38 38 39 38 38 38 37 37 36 36 37 37 37
48 47 46 45 45 44 43 43 42 41 40 39 38 39 38 37 37 36 36 37 37 36 36 37 37 39 38 38 38 37 37 38 38 37 37 37 37 37 37 37 37 37
48 47 46 46 45 44 43 42 41 40 39 38 38 38 36 36 36 35 35 35 36 36 36 36 37 38 37 38 37 37 36 37 37 37 37 37 37 36 36 36 36 36
46 46 46 44 44 43 42 41 40 38 38 37 37 36 35 35 35 34 35 37 35 35 34 35 37 37 36 36 36 36 36 36 36 36 35 35 35 35 35 35 35 36
46 45 44 43 43 41 41 39 38 37 37 37 36 35 35 35 34 34 34 33 34 33 33 34 35 36 36 36 36 36 36 36 35 35 34 34 34 34 34 34 34 34
45 44 43 42 40 40 39 38 37 37 37 37 35 35 34 33 33 33 34 34 33 34 33 34 34 35 35 35 35 35 35 34 34 34 34 33 33 33 33 33 34 33
45 44 42 41 39 38 37 37 36 36 36 37 35 34 33 33 33 33 33 33 33 34 34 33 34 35 36 35 35 35 35 34 33 33 32 32 32 32 33 32 33 36
44 43 42 40 39 37 36 35 35 35 36 36 35 34 33 33 36 31 31 32 33 34 38 37 35 35 36 35 35 35 35 34 33 33 32 32 32 31 31 32 31 34
43 43 41 39 37 36 35 35 36 35 35 34 33 33 33 32 33 32 31 32 32 32 34 34 34 33 34 34 35 35 35 35 34 33 32 32 32 32 32 32 32 32

ECMWFNIL_sfc_dewp_015.txt.gz
Dewpoint
49 50 49 49 48 48 48 48 49 49 49 47 47 47 48 49 49 49 49 48 48 48 47 47 48 47 48 47 48 46 48 48 48 47 47 48 47 46 47 47 47 47
49 49 50 49 49 49 49 48 48 50 49 48 48 47 47 48 48 48 48 48 49 47 47 47 48 48 47 47 46 46 46 45 44 50 47 45 46 45 45 46 46 47
48 49 49 48 48 48 49 49 48 49 49 49 47 47 48 48 48 46 47 47 46 47 46 46 46 47 47 46 46 45 44 44 44 45 48 45 46 45 45 46 46 46
48 49 48 49 48 48 49 49 48 48 47 48 47 48 49 49 48 47 47 51 46 46 46 46 46 46 46 45 45 45 44 44 45 45 45 45 46 46 45 45 47 45
49 49 49 49 49 49 49 49 49 48 48 48 47 48 49 48 46 47 47 46 45 45 45 45 45 45 46 45 45 43 44 45 44 44 44 44 44 45 45 45 45 44
49 49 50 49 49 49 49 49 49 49 48 47 48 49 48 47 46 46 45 44 45 45 45 44 44 44 44 43 43 42 42 43 43 43 43 42 43 43 45 45 44 43
49 49 50 50 49 49 49 49 49 49 48 48 48 48 47 46 46 45 45 45 44 46 44 43 43 43 42 42 41 42 42 42 42 42 42 42 43 43 43 43 44 43
49 49 49 50 49 49 49 49 49 48 48 48 48 48 47 46 46 45 45 44 43 43 43 43 43 42 42 41 42 41 41 42 43 42 42 42 42 42 43 43 43 42
48 49 49 49 49 49 48 49 49 48 48 47 47 47 46 46 46 45 45 44 43 43 42 42 42 41 41 41 41 40 40 40 42 41 42 42 42 42 42 42 42 43
48 49 49 49 49 49 48 48 48 48 49 47 47 47 46 46 46 45 44 43 43 43 42 41 41 41 40 41 41 40 40 41 41 41 41 42 42 42 42 42 42 42
49 49 49 49 48 48 48 48 48 48 48 47 46 46 46 46 45 43 43 43 43 42 41 40 40 40 40 40 40 41 41 41 41 41 41 42 43 43 45 44 44 43
49 49 49 48 48 48 48 48 48 47 47 47 46 46 45 45 45 44 44 42 41 41 41 40 40 40 40 40 40 41 41 41 41 41 42 42 42 43 43 43 43 42
50 49 49 48 48 48 47 47 47 47 47 46 46 45 45 43 43 43 43 41 41 41 40 40 40 40 40 39 40 40 40 40 40 40 41 41 41 42 42 42 42 42
51 50 49 48 48 47 47 47 47 47 47 46 46 44 44 43 42 41 42 40 41 40 40 40 39 39 39 39 39 39 40 40 39 40 41 40 41 41 41 41 41 41
50 48 48 48 48 47 47 47 46 46 46 46 45 44 44 42 41 40 40 39 39 40 40 41 39 39 39 39 38 38 38 38 39 39 39 39 39 39 39 39 39 39
47 46 47 47 48 47 47 46 46 46 45 45 44 43 42 41 40 39 39 39 39 38 38 39 38 39 43 42 41 40 39 39 39 39 39 38 38 38 38 38 38 38
48 48 47 47 46 46 45 46 46 45 45 43 42 41 41 41 39 39 38 38 38 37 36 37 38 39 39 38 38 39 38 38 38 38 38 38 38 37 37 37 37 37
49 48 48 47 47 46 47 46 46 45 44 42 41 39 39 39 38 38 38 37 37 36 36 37 37 40 38 38 38 37 38 39 37 37 38 37 37 37 37 37 37 37
48 48 48 48 47 47 46 46 45 44 42 41 40 40 39 38 38 37 37 37 36 35 35 37 37 39 37 38 37 37 37 37 36 36 36 36 36 36 36 36 36 37
48 47 47 47 47 47 46 45 44 43 42 41 40 39 37 37 37 36 36 36 35 35 35 35 35 38 37 37 37 36 36 36 35 35 35 35 35 35 35 35 35 35
48 47 46 46 46 45 45 45 44 41 40 40 39 37 37 36 36 35 35 36 36 34 33 33 35 38 37 37 36 36 35 35 35 35 35 34 34 34 34 34 34 35
48 46 45 45 45 45 45 43 41 40 39 38 37 36 36 36 34 35 35 34 34 33 33 33 34 36 36 36 36 35 35 35 34 34 34 34 33 34 34 34 34 34
47 46 45 45 45 44 42 40 38 37 38 37 36 35 35 35 35 34 35 34 33 33 32 32 32 35 35 35 35 35 35 34 34 33 33 33 33 33 33 33 33 33
46 45 44 45 44 42 40 39 39 37 37 37 35 35 35 35 35 35 34 34 33 32 33 31 31 34 36 36 35 35 35 33 33 33 33 33 33 33 33 33 33 36
46 45 44 43 42 40 39 38 37 36 37 36 35 35 35 35 37 34 34 33 33 33 38 36 33 34 36 35 34 34 35 33 33 33 32 32 32 32 32 33 32 34
45 44 43 41 40 39 38 38 37 36 35 34 35 34 34 34 36 34 33 33 33 33 34 33 32 32 34 34 34 34 34 34 33 32 32 32 32 32 32 32 32 32

ECMWFNIL_sfc_dewp_021.txt.gz
Dewpoint
54 55 55 55 55 55 56 55 55 55 54 55 53 54 53 55 56 56 56 56 55 54 53 53 52 52 51 51 51 47 48 50 49 48 48 47 47 47 46 46 47 46
54 55 55 55 55 55 55 56 56 55 55 55 55 55 56 56 56 56 56 55 54 54 53 53 52 50 49 48 49 48 47 49 48 48 48 48 47 47 47 48 47 47
54 54 55 55 55 56 56 56 56 56 55 55 56 56 56 57 56 56 56 55 53 53 53 52 51 50 49 48 47 47 46 47 47 47 47 46 46 46 47 46 46 47
54 54 54 55 56 56 56 55 55 55 56 55 54 55 56 56 57 56 56 55 54 53 53 52 51 50 48 47 48 46 47 46 46 47 47 47 46 46 46 46 46 46
54 54 54 54 55 55 56 54 54 54 55 54 56 55 54 56 56 55 55 54 54 53 52 51 51 50 50 48 47 46 47 46 48 48 45 45 46 47 46 46 46 45
53 52 52 52 54 55 55 54 54 54 54 55 55 54 54 55 54 54 54 53 53 52 51 50 50 50 49 49 48 47 46 45 47 47 44 44 45 46 43 45 45 44
54 54 53 52 53 54 55 55 55 54 54 54 54 54 54 54 54 53 52 52 51 50 49 49 49 49 49 49 47 47 46 46 46 44 43 43 44 45 44 44 42 42
54 54 53 53 54 54 54 54 54 54 55 53 53 54 54 53 52 53 52 51 49 48 48 47 48 48 48 47 46 46 47 48 46 44 43 43 43 41 42 43 44 42
54 54 54 54 54 54 54 53 54 54 54 53 53 53 53 53 52 53 51 50 49 49 47 47 47 47 48 47 46 45 44 46 46 44 43 43 43 42 39 40 41 41
54 54 54 54 54 54 54 54 54 54 53 53 52 53 52 53 53 51 51 50 49 47 47 47 46 47 46 45 44 43 43 43 43 44 44 43 42 40 39 41 40 41
56 55 55 54 54 54 54 54 54 53 53 51 53 52 52 52 52 51 51 49 49 46 46 46 46 45 44 44 45 44 43 44 43 42 43 41 42 41 40 41 40 40
56 56 55 55 54 54 54 54 54 53 53 53 52 51 52 52 51 50 50 48 47 46 46 45 44 44 43 42 43 44 44 44 43 42 41 40 40 40 39 39 40 39
55 55 56 55 55 55 54 53 53 54 53 52 52 51 52 51 51 49 50 48 47 47 46 45 44 43 44 44 43 43 43 42 42 42 41 42 40 38 38 39 39 38
55 56 56 56 55 54 53 53 53 53 52 52 51 51 51 49 49 50 50 48 47 46 45 45 45 44 43 43 42 42 42 41 41 41 40 39 39 37 37 36 36 36
55 55 56 55 55 54 54 53 53 52 51 51 51 52 52 51 51 51 49 47 47 47 46 47 45 44 43 43 42 41 41 41 39 36 36 36 35 35 35 35 35 35
51 54 54 55 55 54 53 53 51 52 52 52 51 52 51 51 49 51 50 48 49 47 46 47 47 45 44 41 41 40 39 36 36 35 34 34 34 34 34 35 35 35
49 51 52 53 54 54 53 52 51 51 50 50 50 50 50 49 49 48 47 46 45 45 45 46 46 44 39 39 39 39 37 35 35 35 35 34 34 34 33 33 33 31
47 49 50 52 53 53 52 51 51 50 50 51 51 50 49 49 48 47 46 46 46 44 45 44 44 41 38 38 38 38 38 35 36 35 34 33 33 32 31 32 33 34
46 47 48 50 51 52 52 51 50 50 50 51 50 50 50 48 47 46 45 45 44 43 43 43 42 38 37 38 37 37 38 37 32 34 32 32 33 33 33 34 34 35
46 46 48 49 51 51 51 51 50 50 51 51 50 50 49 48 48 47 45 44 44 43 42 42 41 39 37 37 37 37 36 36 33 34 34 33 33 33 35 35 35 35
46 47 47 48 50 50 50 50 50 51 51 50 50 49 47 47 47 46 45 44 43 43 42 42 42 37 37 37 36 36 36 36 35 36 35 34 35 35 35 35 35 36
46 46 48 48 49 49 48 49 50 51 51 50 49 48 47 46 45 44 44 43 43 42 41 40 40 36 36 36 36 35 36 35 34 35 34 33 33 34 34 34 34 35
45 45 46 47 48 48 48 49 50 50 51 50 48 47 46 44 44 43 42 41 41 41 40 38 38 37 35 36 36 35 35 32 34 30 31 31 32 33 32 33 34 34
45 45 45 46 47 47 48 49 50 50 50 49 48 46 44 42 42 41 41 41 40 39 37 36 36 37 36 36 35 35 34 31 28 28 30 30 31 32 33 33 33 35
45 45 45 46 46 47 48 49 49 49 48 47 46 45 44 42 41 41 42 42 40 40 39 37 35 36 36 36 35 35 35 33 29 26 28 29 30 30 32 33 33 35
46 46 46 46 46 47 48 49 49 46 46 45 44 43 41 42 42 40 39 38 39 39 39 38 36 34 37 35 36 36 36 32 31 29 28 29 30 30 31 32 32 32

ECMWFNIL_sfc_dewp_024.txt.gz
Dewpoint
55 55 54 50 49 49 52 50 50 52 50 47 48 49 49 52 54 54 54 55 55 54 52 52 51 51 51 51 50 47 48 51 50 50 50 50 50 51 50 49 50 48
57 56 53 52 51 49 51 52 53 51 51 50 49 49 51 52 55 54 55 55 54 54 53 52 51 50 50 49 50 49 48 51 50 49 51 51 50 51 51 51 50 49
57 57 56 54 52 54 55 55 54 53 51 51 51 50 52 54 54 54 55 55 54 54 53 52 51 50 49 49 49 49 49 49 50 50 50 50 50 50 51 50 49 50
58 58 56 56 54 55 57 56 55 54 53 53 52 52 53 55 54 54 55 55 54 54 54 52 51 50 48 48 49 48 49 49 48 50 50 49 49 49 49 49 49 49
58 57 57 56 55 55 57 56 55 54 54 54 55 54 53 53 53 54 54 54 54 53 53 52 50 50 49 49 49 49 48 47 49 49 48 49 49 50 49 49 49 49
57 55 55 55 56 56 56 56 55 55 54 55 56 54 52 52 52 52 53 54 54 53 53 51 50 49 49 49 49 49 48 47 48 48 47 47 47 48 45 47 47 47
56 57 57 55 56 56 57 56 56 55 54 55 55 55 53 52 51 51 51 52 52 52 51 51 50 50 49 49 48 48 47 48 47 47 46 46 47 47 45 46 44 43
55 56 56 55 56 56 57 55 55 55 56 55 56 56 54 53 50 51 51 52 50 50 50 49 49 48 48 48 47 48 48 49 48 46 45 45 46 44 46 45 46 44
55 54 54 56 56 56 56 55 55 56 56 56 55 55 55 54 51 51 51 51 50 51 49 49 48 47 49 48 48 47 46 48 49 46 46 46 46 44 40 42 43 45
56 56 56 56 56 55 55 56 55 55 56 56 55 54 54 54 53 51 51 51 51 50 49 48 48 48 48 47 46 46 46 46 46 46 45 45 44 42 40 42 43 43
57 57 58 57 57 56 56 56 56 56 56 54 55 54 54 54 53 52 52 51 52 49 49 48 48 47 47 47 47 47 46 46 45 44 46 44 44 44 45 42 43 42
58 58 57 58 58 57 57 57 57 57 56 56 54 53 54 53 52 52 51 50 50 49 49 48 47 47 46 45 45 46 47 46 45 45 44 43 43 43 42 43 43 40
56 57 57 57 57 57 57 56 55 56 56 55 55 54 54 53 53 51 52 50 49 50 49 48 48 47 47 47 46 45 46 45 45 45 44 44 43 41 41 40 39 37
50 55 56 57 57 57 57 57 56 56 55 56 55 55 54 53 53 51 52 50 51 50 49 48 48 47 46 46 45 46 46 45 45 45 44 45 44 41 40 38 38 37
46 48 51 51 53 54 55 56 56 56 56 55 55 55 55 54 54 52 52 51 50 50 49 48 48 51 47 49 46 45 45 45 45 43 43 42 41 39 38 37 36 36
42 44 44 46 48 50 51 54 54 55 56 55 55 54 54 54 53 53 52 51 51 51 50 50 51 50 48 44 43 44 44 43 45 43 40 39 39 38 37 37 37 37
40 41 42 43 45 48 49 49 52 55 55 54 53 53 54 54 53 52 52 52 51 52 51 52 50 49 41 39 39 40 43 44 41 40 39 38 37 37 37 37 36 33
36 37 39 41 42 42 45 48 50 52 54 54 55 54 54 55 54 52 53 51 51 50 52 50 50 41 38 37 36 36 38 40 40 39 38 37 36 36 35 35 35 35
38 38 38 39 42 43 45 49 49 50 51 52 53 55 54 53 53 53 52 52 51 50 50 49 48 38 37 36 36 36 36 37 36 37 36 36 36 36 35 35 35 34
40 40 41 42 43 45 47 46 48 49 51 52 53 54 53 53 54 53 53 52 51 50 48 47 43 38 36 36 36 35 34 36 36 37 37 35 34 34 36 35 35 35
41 41 42 43 44 44 47 46 47 49 50 51 51 51 52 51 51 52 52 51 50 49 47 45 41 37 36 35 35 34 34 35 38 38 36 36 36 36 36 36 36 37
43 42 42 42 43 45 46 47 48 49 50 51 50 50 50 50 50 51 52 51 49 47 46 42 39 36 35 35 35 34 33 35 37 37 36 35 34 34 34 33 33 35
42 42 43 43 43 44 44 47 48 49 49 49 50 49 48 48 50 51 50 49 47 45 43 38 37 36 35 35 34 33 34 36 36 33 32 34 34 33 33 34 36 35
42 42 42 43 43 43 44 46 48 49 49 49 48 47 47 48 50 50 49 46 44 42 38 36 36 36 34 34 33 33 36 34 32 31 31 31 31 33 33 33 34 39
42 43 43 43 43 44 45 46 47 48 48 48 47 48 48 49 49 48 46 44 41 39 39 36 33 34 34 33 34 34 35 33 30 27 28 29 29 29 32 33 33 36
43 43 44 44 44 44 45 45 46 47 48 48 48 48 48 48 47 45 44 42 41 38 38 36 32 32 34 34 34 34 35 35 29 27 27 29 29 28 30 31 32 33

ECMWFNIL_sfc_dewp_027.txt.gz
Dewpoint
53 52 52 50 49 50 52 50 50 51 51 49 49 50 50 52 52 52 53 53 54 53 51 52 51 51 51 51 51 48 49 51 52 51 51 52 52 53 51 49 51 50
55 53 52 51 49 48 51 51 52 51 51 50 49 49 52 52 54 52 53 53 53 53 52 51 52 51 51 50 51 50 49 51 50 49 51 51 51 51 51 51 50 50
55 55 54 52 50 50 52 54 53 52 52 50 51 51 51 52 54 53 53 54 53 53 53 52 51 50 50 50 50 51 51 50 51 51 51 51 51 51 52 52 50 49
56 56 55 54 52 51 51 53 52 52 52 51 50 51 51 53 55 53 54 54 53 53 54 52 52 50 49 49 50 48 50 50 50 51 51 50 51 50 50 50 48 50
57 56 55 54 53 53 54 54 53 52 51 51 53 51 50 54 55 52 54 53 52 53 53 52 51 50 50 50 48 49 48 48 50 49 49 50 50 50 49 50 49 50
56 55 54 54 54 54 53 54 53 53 52 52 53 51 51 54 53 51 52 53 51 52 52 52 51 50 49 49 49 50 48 48 48 48 48 48 48 48 46 48 47 48
56 56 56 54 54 54 54 53 54 54 53 53 51 53 51 53 53 50 50 52 51 51 51 52 51 50 50 50 49 49 49 48 49 46 46 46 48 48 45 46 46 44
55 56 52 54 54 54 55 53 54 54 56 53 53 53 52 51 51 51 51 51 50 50 51 51 51 49 49 49 48 48 50 50 50 47 46 45 48 46 47 45 47 43
55 56 57 56 54 53 53 53 51 54 54 55 54 54 54 53 50 50 50 50 51 51 50 51 50 49 50 49 48 48 47 49 49 47 47 47 47 45 44 45 46 46
57 57 57 56 55 55 55 53 51 52 50 54 55 56 54 55 53 50 50 51 51 50 50 50 50 50 50 49 47 47 47 48 47 47 47 46 46 44 41 44 44 45
56 56 56 56 56 57 57 57 56 52 52 50 52 54 54 54 54 52 51 51 52 50 50 50 50 49 49 49 49 49 48 48 47 46 47 46 46 45 47 44 44 44
59 57 57 57 57 57 60 60 60 59 57 56 52 53 54 53 53 52 51 50 50 50 50 50 49 49 48 48 47 48 49 48 48 47 46 45 45 45 43 43 44 44
58 58 60 59 59 58 58 58 58 57 56 55 55 55 55 54 53 52 53 52 51 51 51 51 50 49 49 49 48 48 48 47 48 47 47 47 45 44 43 44 44 42
45 47 51 55 59 59 60 59 58 58 58 58 57 56 56 55 55 55 53 52 52 53 54 54 54 49 49 49 48 48 48 48 48 48 47 46 46 45 44 44 43 41
42 43 45 46 46 48 53 55 59 59 59 59 58 58 59 59 55 54 53 52 52 53 53 52 52 51 50 49 49 47 48 48 48 46 47 46 46 45 43 42 41 40
34 37 37 40 42 44 45 48 50 52 56 57 57 57 57 57 55 55 53 54 53 53 53 54 53 52 50 45 46 48 48 47 48 47 46 45 46 44 43 41 40 40
35 36 38 37 37 38 41 43 44 48 51 51 52 52 54 54 54 54 55 55 55 57 57 55 55 54 45 42 42 44 48 49 48 47 46 45 43 42 41 40 40 38
35 34 34 35 37 37 38 37 40 42 45 50 51 51 52 52 53 53 52 52 53 52 55 55 54 48 41 41 41 41 43 47 47 46 45 42 41 40 39 39 38 39
34 36 36 37 36 37 39 42 41 41 42 45 48 51 52 51 51 52 52 52 52 53 53 52 53 41 40 39 38 39 40 44 44 44 42 41 40 39 38 38 38 38
34 33 35 37 39 40 40 40 41 41 43 44 45 47 48 50 51 52 52 52 52 52 53 53 53 41 38 38 37 36 37 39 42 42 41 39 38 38 39 39 39 38
36 37 37 37 37 38 40 40 41 43 44 44 45 46 46 46 48 50 51 51 50 51 52 53 50 38 37 36 36 35 35 37 41 41 39 39 39 39 39 39 38 38
38 38 39 39 39 39 40 41 42 44 45 45 44 44 46 47 47 48 50 50 51 52 52 51 42 36 35 35 35 34 34 40 40 40 38 38 38 38 38 38 37 37
37 38 40 40 40 40 39 41 42 43 45 45 45 45 44 45 46 47 47 48 49 50 50 43 39 36 34 34 33 32 34 37 39 38 37 38 38 38 37 36 36 35
36 35 37 38 40 41 41 43 43 44 44 46 45 45 44 44 44 44 46 47 48 50 46 42 38 35 33 32 32 32 34 38 37 37 36 35 36 36 35 33 34 43
36 37 38 39 40 40 42 43 43 44 44 46 46 46 46 45 43 43 45 48 49 46 41 39 36 34 33 32 32 33 36 37 34 32 32 32 32 30 32 32 31 40
37 38 40 41 41 43 43 44 44 44 46 46 46 44 43 43 44 45 45 46 44 41 39 37 33 33 34 33 34 33 33 36 33 31 28 28 29 28 29 30 29 29

ECMWFNIL_sfc_dewp_030.txt.gz
Dewpoint
58 57 58 58 58 57 57 57 57 57 57 58 57 55 55 57 55 57 58 57 59 57 56 56 56 56 57 57 57 51 52 56 55 56 54 54 54 54 53 53 52 53
57 58 56 57 57 57 58 59 59 58 58 59 58 57 56 57 56 56 58 57 57 56 56 56 57 56 56 55 55 55 54 56 54 53 54 54 54 54 54 53 52 53
58 58 57 57 56 58 58 58 61 60 58 59 60 58 57 58 56 57 58 57 56 56 56 56 56 55 56 55 54 56 54 54 55 55 55 55 55 54 54 55 53 52
59 59 58 58 57 59 60 57 60 61 61 58 59 60 57 57 57 57 58 57 57 56 56 56 55 54 53 53 54 56 53 54 54 55 55 54 56 54 53 53 53 51
59 59 60 61 60 61 59 58 58 59 60 60 58 59 58 57 58 56 57 57 57 56 56 55 55 55 56 54 53 55 52 54 54 54 54 53 54 53 54 55 51 52
59 57 58 59 61 62 60 58 59 60 60 60 59 56 57 58 56 55 55 56 56 55 56 55 54 54 53 54 53 54 50 52 51 52 52 52 51 53 49 53 50 49
60 60 61 61 59 60 61 60 58 59 60 60 59 58 56 57 56 55 53 55 54 53 53 54 54 54 53 54 51 53 51 52 50 48 49 50 51 50 50 50 49 49
61 60 61 60 61 61 59 58 58 59 59 59 59 59 58 55 54 55 54 53 53 52 53 53 53 52 53 53 51 52 52 52 53 49 48 49 51 48 49 50 51 47
60 59 60 60 59 58 58 57 58 58 57 59 60 58 56 56 55 55 54 52 52 53 52 52 53 52 53 52 52 51 51 51 54 50 49 50 50 49 46 46 49 48
59 60 60 60 59 60 60 58 56 56 56 58 57 58 55 56 55 53 53 53 52 52 52 52 53 53 53 51 51 50 50 50 51 51 50 50 50 48 46 48 47 48
58 59 59 60 60 59 60 61 60 60 59 58 58 57 56 56 55 54 52 52 53 52 51 51 52 52 51 51 52 52 51 51 51 49 50 49 50 49 50 49 48 48
60 60 59 58 59 58 58 58 58 59 58 61 61 57 55 58 56 57 56 53 52 51 51 50 51 51 51 51 50 51 51 51 52 51 50 48 49 49 47 49 48 47
58 60 60 59 59 58 58 59 60 60 58 57 58 57 58 59 59 58 59 58 58 58 54 52 51 54 55 52 51 50 51 50 52 52 51 51 50 48 48 48 47 47
56 59 59 59 59 59 59 59 59 58 57 58 59 59 59 58 57 58 58 59 58 58 58 57 58 57 56 52 51 51 51 51 50 51 50 51 51 49 49 48 48 48
52 54 55 57 58 58 58 58 57 57 57 57 58 58 58 58 59 58 58 57 58 58 58 59 59 57 56 54 52 51 52 51 50 50 50 50 50 50 49 48 47 47
49 50 51 52 53 53 55 59 58 58 58 57 57 57 57 58 58 57 57 57 56 56 56 58 56 56 54 50 48 51 53 50 52 51 49 49 49 49 49 48 47 46
49 50 51 50 50 51 52 50 49 55 58 58 58 57 57 57 57 56 56 56 55 55 56 57 57 56 50 46 44 43 48 53 51 51 50 49 49 48 47 47 46 43
47 47 47 48 49 48 48 49 51 49 50 53 57 57 57 57 57 56 56 56 56 56 56 56 56 51 48 45 43 43 45 53 52 50 50 49 48 47 45 45 44 44
46 44 46 48 48 48 50 50 47 49 50 49 49 56 54 54 54 54 54 55 55 54 54 55 56 49 46 43 41 41 42 47 49 50 48 47 46 45 44 43 43 44
43 42 43 46 48 48 49 48 48 48 51 52 51 50 52 54 53 53 53 54 53 53 53 55 56 46 43 41 40 40 41 45 48 48 47 45 44 43 45 44 44 44
40 43 47 47 45 44 47 44 46 49 48 49 50 51 51 50 50 51 53 52 53 53 53 53 57 42 41 40 39 39 40 43 48 47 44 45 45 45 45 45 45 47
40 46 49 48 48 48 47 46 48 50 50 51 50 50 49 48 49 50 51 52 53 53 52 52 45 39 39 38 38 38 39 44 43 43 42 42 44 43 45 45 45 44
38 40 46 47 46 44 44 47 47 47 49 50 49 49 49 49 48 48 49 50 51 52 51 45 42 38 37 37 37 39 42 43 43 40 41 43 43 43 42 42 43 41
38 36 39 45 45 42 44 48 49 49 48 50 48 48 48 48 48 48 48 48 50 51 46 43 39 37 36 35 35 37 41 42 42 42 43 41 42 43 43 42 39 46
38 39 39 41 41 42 46 46 47 47 47 49 48 48 48 48 46 45 48 46 45 44 43 39 35 34 34 33 34 36 41 44 41 40 39 40 37 37 39 39 39 42
41 41 42 41 40 44 47 47 49 48 49 48 49 46 45 46 48 46 45 43 42 41 40 37 34 34 35 33 34 35 37 36 34 33 32 34 35 33 34 33 32 30

ECMWFNIL_sfc_dewp_033.txt.gz
Dewpoint
53 52 53 52 53 53 53 52 52 53 52 51 50 51 52 52 54 54 52 54 52 51 51 52 51 50 52 52 53 52 53 53 52 51 51 51 50 50 51 49 48 50
54 53 54 53 54 54 53 53 52 53 53 52 51 51 53 53 52 54 54 54 53 52 53 51 51 52 51 51 52 52 52 51 50 53 50 50 49 50 48 47 48 49
54 53 53 53 53 53 52 55 53 52 54 53 53 52 54 52 51 54 55 54 53 52 52 52 52 51 52 51 52 51 51 49 48 50 52 51 51 49 50 49 50 49
54 53 53 52 54 54 52 55 55 52 53 54 53 54 54 53 51 53 54 57 53 53 53 52 52 52 52 50 51 52 50 51 51 52 50 50 51 50 50 50 49 48
56 54 54 52 54 56 53 53 55 53 53 52 55 54 55 53 51 53 54 55 54 54 53 53 52 50 51 50 50 51 50 51 51 51 49 48 51 49 49 48 48 48
57 57 56 55 55 55 53 53 54 55 55 52 52 54 54 53 52 53 54 54 54 54 53 53 52 51 51 50 48 51 49 52 50 50 50 50 50 49 51 50 48 47
57 56 57 56 55 56 54 54 54 54 55 55 55 53 55 54 53 53 53 54 54 54 53 53 52 51 51 51 48 50 48 50 49 49 50 50 49 48 48 48 46 48
58 58 57 56 55 56 55 55 54 54 54 54 54 56 54 54 54 53 53 54 53 53 54 53 52 51 51 51 49 49 49 50 49 48 48 49 48 47 48 49 47 47
58 57 59 58 57 57 55 53 55 54 55 53 55 56 56 55 54 54 53 54 54 54 52 53 53 52 51 51 50 49 50 49 51 47 47 47 48 47 47 47 47 45
57 57 57 56 54 55 57 57 57 55 55 54 56 56 55 55 55 55 54 55 56 56 55 53 54 53 52 50 51 50 50 50 51 49 47 48 49 48 46 47 46 44
54 56 57 57 57 56 56 56 56 56 56 56 55 56 56 56 56 56 56 56 56 56 56 55 55 56 56 55 52 50 50 50 50 50 49 48 49 49 50 47 47 44
55 56 56 56 56 56 54 55 54 55 56 56 56 55 55 56 57 56 56 56 56 56 56 56 56 56 56 56 55 52 50 50 50 50 49 49 49 49 48 48 47 46
56 56 55 55 55 55 55 55 55 55 56 56 56 56 55 56 55 55 56 55 56 56 56 56 57 57 57 56 56 55 52 50 50 50 49 49 48 49 48 48 47 47
56 57 57 56 55 54 54 55 55 55 55 55 56 56 55 55 55 55 56 56 55 56 56 56 56 56 56 56 56 56 55 51 50 50 49 49 48 49 48 47 47 47
54 55 55 55 55 55 54 55 54 53 53 54 54 54 55 55 55 55 55 55 55 55 55 55 56 56 56 56 56 56 54 52 51 50 50 49 49 48 47 46 46 46
43 49 52 54 54 54 55 55 54 53 52 52 53 54 54 54 54 54 55 55 55 54 54 55 55 55 54 51 51 54 55 55 53 51 50 49 48 47 47 46 45 44
37 41 43 41 42 47 52 54 54 54 53 54 53 53 54 53 54 53 54 55 55 54 54 55 55 55 50 47 46 46 52 53 52 51 50 49 47 46 45 45 44 44
40 37 38 41 41 41 44 44 47 52 54 54 53 53 54 53 53 54 54 54 54 54 54 54 55 52 47 47 46 45 46 52 52 51 50 49 47 46 45 43 42 43
39 39 39 40 41 42 43 42 42 42 43 46 50 53 52 53 54 54 54 54 53 53 54 54 54 50 47 46 45 44 43 47 52 51 49 49 47 46 44 43 42 43
36 35 37 39 41 43 44 43 43 43 46 47 46 46 45 47 49 51 52 52 53 53 53 53 54 50 47 45 45 43 41 45 47 49 48 47 46 45 44 43 42 42
39 39 40 41 41 40 40 40 40 40 40 40 41 43 43 43 45 44 45 48 49 49 50 49 51 48 45 45 44 41 41 44 47 46 46 44 44 44 44 43 42 43
38 38 40 42 42 42 42 42 42 43 43 44 44 45 46 45 44 44 43 44 46 48 48 44 43 41 43 43 41 39 42 46 45 44 43 43 42 42 42 42 41 41
37 37 38 39 40 39 40 41 40 41 42 44 42 43 43 44 44 44 45 45 46 46 44 40 38 37 38 38 38 39 41 43 41 41 40 40 41 42 43 43 43 43
38 37 37 39 39 40 40 41 43 43 43 44 42 42 43 44 44 44 44 44 43 43 42 38 36 37 38 38 39 39 40 40 40 41 40 41 42 43 42 42 43 48
39 39 38 39 38 39 40 40 41 41 42 43 43 43 43 43 44 43 41 41 40 40 41 35 34 36 37 37 38 39 41 40 40 41 36 34 35 33 33 33 34 39
37 37 38 38 39 40 41 42 42 42 42 42 43 43 42 44 43 41 40 39 38 36 36 34 33 34 36 36 36 36 36 36 35 32 34 32 31 30 29 28 31 35

ECMWFNIL_sfc_dewp_036.txt.gz
Dewpoint
53 53 51 51 51 52 51 51 52 50 49 49 50 50 50 50 52 51 52 52 50 50 49 49 49 50 52 52 52 53 52 51 49 49 49 50 48 48 48 47 46 46
53 53 53 52 52 53 52 51 52 50 49 49 50 51 51 52 52 51 52 51 51 50 50 49 50 50 50 51 50 51 49 49 49 52 49 48 47 47 46 47 46 45
53 53 53 52 52 53 52 52 52 51 50 50 50 51 52 52 52 51 52 51 50 50 50 49 50 50 50 50 50 50 48 47 47 49 50 48 49 48 48 47 46 44
53 54 53 53 53 52 53 52 52 52 52 51 50 52 52 52 52 53 53 55 50 50 50 50 49 50 50 50 50 48 48 48 48 49 49 49 50 49 48 48 47 47
53 54 53 53 53 53 53 52 52 52 53 51 51 52 53 52 51 53 53 52 51 51 50 50 50 49 50 49 49 49 49 49 49 47 47 47 49 48 48 48 47 47
53 53 53 55 54 53 52 53 52 52 53 52 52 53 53 51 51 53 53 52 51 51 50 50 50 50 50 49 48 49 49 49 49 48 47 47 48 48 50 48 46 45
56 55 55 55 54 55 52 53 53 52 53 52 53 53 53 51 51 53 53 53 52 51 51 50 50 50 51 49 48 49 48 49 49 49 48 48 49 47 48 46 47 45
57 57 55 55 55 55 53 53 54 53 53 53 53 53 53 51 50 52 53 53 53 52 51 51 51 50 50 50 47 49 48 50 49 48 49 48 47 46 47 48 45 46
56 56 56 56 55 56 56 56 56 55 54 53 53 53 54 52 51 52 54 53 53 53 52 52 51 50 50 50 49 47 49 49 50 48 47 48 48 47 47 47 46 46
54 54 55 55 54 55 55 57 57 56 56 55 55 54 54 53 54 53 54 54 54 53 53 52 52 51 51 50 50 48 48 49 50 48 47 47 48 48 47 47 47 44
53 54 54 54 54 54 55 56 56 56 56 55 55 55 55 55 54 54 54 54 54 54 54 53 53 53 52 52 51 50 49 49 49 49 47 47 48 48 49 46 47 44
53 52 53 54 54 54 55 55 55 55 55 55 55 55 55 55 54 54 54 54 54 54 55 54 55 54 54 53 53 52 51 50 50 50 49 47 47 49 49 46 46 45
54 54 53 53 53 53 53 53 54 53 54 55 55 55 54 54 53 54 53 53 54 54 55 55 55 55 55 54 54 54 53 51 50 50 50 49 47 48 49 47 46 45
53 53 55 55 54 53 53 54 53 52 53 54 53 54 54 54 54 54 54 54 54 54 54 55 55 55 55 54 54 54 54 54 53 51 50 50 49 48 48 48 47 46
51 51 52 53 53 53 53 53 53 53 53 53 52 52 53 54 53 53 54 54 54 54 54 55 55 54 55 54 54 54 54 54 53 52 51 50 49 48 48 48 48 47
51 51 52 52 52 53 53 52 51 51 51 51 51 51 51 51 52 52 52 53 53 52 53 54 54 55 54 50 51 54 54 54 53 52 51 50 49 49 48 47 47 47
45 47 47 51 52 50 50 51 52 51 51 51 51 50 50 50 51 51 50 51 52 51 52 53 54 55 50 47 46 48 53 54 53 52 51 50 49 48 47 46 46 45
39 39 40 41 43 44 45 48 49 50 50 51 50 50 50 50 50 51 51 50 50 50 51 52 53 51 47 46 46 45 48 53 53 52 51 50 49 48 47 46 44 45
39 38 38 39 40 42 42 42 43 44 44 46 46 48 50 50 49 50 51 50 50 49 51 52 52 49 46 46 45 44 44 48 51 52 52 51 50 49 46 45 44 44
37 36 36 39 41 41 41 40 40 39 41 43 43 45 48 48 47 48 49 49 50 51 51 52 52 49 46 45 45 43 42 44 50 50 51 50 50 49 47 45 43 43
38 38 38 40 40 40 40 40 40 40 41 41 41 41 40 41 42 42 42 44 45 47 49 50 52 48 44 44 43 43 42 42 49 49 49 49 48 47 46 44 45 45
37 37 39 40 40 39 38 38 39 39 39 40 42 41 41 41 42 41 41 42 42 42 44 45 41 38 38 42 45 42 40 45 45 44 43 43 43 44 43 44 44 42
37 37 38 39 39 38 39 39 39 38 39 41 40 40 40 40 41 41 41 40 40 40 40 38 35 37 37 40 40 39 43 44 43 42 41 41 41 42 42 42 41 40
38 37 37 38 37 37 37 38 39 40 40 41 40 40 40 40 40 39 39 39 38 38 38 35 34 37 38 38 39 40 42 42 41 41 40 41 43 43 43 43 44 47
38 37 36 36 36 36 37 38 39 39 40 41 40 40 40 39 40 38 37 37 36 36 40 35 33 37 38 38 38 39 41 41 41 41 40 37 34 33 34 37 36 39
37 38 38 38 38 38 39 39 40 40 39 40 40 39 39 39 38 37 36 34 34 33 34 33 34 34 36 36 37 38 38 38 37 37 34 31 31 30 32 34 34 35

ECMWFNIL_sfc_dewp_039.txt.gz
Dewpoint
52 52 52 51 51 52 52 51 50 49 48 48 49 49 48 48 49 48 49 48 48 49 49 50 50 50 51 49 50 50 50 49 48 47 48 48 46 47 47 46 46 46
52 52 53 52 52 53 52 51 50 49 48 48 49 49 49 49 49 49 50 48 49 48 48 48 49 50 49 50 49 49 47 47 48 51 48 47 46 47 46 45 44 44
53 52 52 51 52 52 52 51 51 50 49 49 49 49 50 50 49 49 49 49 48 48 48 49 49 50 50 49 49 49 48 47 47 48 49 47 46 47 45 45 44 44
53 52 52 51 52 52 52 51 52 51 49 49 49 51 51 51 50 49 50 53 48 48 47 48 49 49 50 49 49 48 47 47 48 48 48 48 49 47 46 47 47 45
53 53 52 52 52 53 52 51 51 51 50 50 49 50 51 50 50 50 50 50 48 48 48 48 48 48 48 49 48 47 47 48 48 47 47 47 48 47 46 47 45 45
53 53 52 52 52 52 52 51 52 52 51 50 50 51 51 51 50 50 51 49 49 49 48 48 48 48 48 48 47 47 49 48 48 47 47 47 47 47 48 46 45 44
54 54 53 53 53 53 52 53 52 52 52 51 51 51 52 51 51 51 52 52 50 51 50 49 48 48 48 47 47 47 47 47 47 46 47 46 48 46 47 45 45 44
54 54 54 54 54 54 53 53 53 53 52 52 51 51 52 51 51 52 53 53 52 51 50 50 50 49 48 47 47 47 46 48 48 47 46 46 46 46 46 46 44 43
55 55 55 54 54 54 53 53 53 53 53 53 52 51 51 51 51 51 53 53 53 52 51 50 50 50 49 49 47 47 48 47 49 48 47 47 47 46 47 46 44 45
53 54 54 54 53 54 54 55 55 55 55 53 54 54 54 54 54 51 52 52 53 53 52 51 51 50 49 49 49 47 48 48 48 48 48 47 48 47 46 47 46 44
52 53 53 52 52 53 53 54 55 55 55 54 54 54 54 55 54 53 53 53 53 53 53 52 52 51 50 50 49 49 48 48 48 49 48 47 48 48 49 47 47 46
51 52 51 52 52 52 53 53 53 54 54 54 55 54 55 54 54 54 55 54 55 54 53 53 52 52 53 52 50 50 49 48 48 48 48 48 47 48 49 47 47 47
51 50 51 51 51 51 52 53 53 53 53 53 53 53 54 53 53 54 54 54 54 54 54 54 54 54 53 53 52 52 51 50 49 49 49 48 47 47 48 48 47 47
51 51 52 52 51 52 52 52 52 52 52 52 53 53 53 52 52 53 53 53 53 53 55 54 54 53 53 53 53 53 52 52 51 50 49 49 49 48 48 48 47 46
51 51 52 52 52 52 51 51 52 53 53 53 52 52 52 52 52 52 52 52 52 53 53 53 53 53 53 53 53 53 53 53 52 52 51 50 50 50 49 48 48 47
50 50 51 52 51 52 52 51 52 51 51 51 52 51 51 51 52 52 52 52 52 52 52 52 52 53 53 50 50 53 53 53 52 52 51 51 51 50 49 49 48 48
45 45 47 48 49 49 49 50 50 50 50 50 50 50 50 51 51 51 51 52 52 51 51 51 52 53 49 47 45 46 51 52 52 52 52 51 50 50 49 49 48 48
39 40 40 40 42 42 43 45 47 48 49 50 49 49 50 49 49 50 50 49 50 50 50 50 51 50 46 45 44 44 46 51 52 51 51 51 51 50 50 49 48 47
38 38 39 39 40 41 41 42 42 42 42 42 43 46 47 48 47 47 48 47 48 49 49 49 49 47 43 43 43 42 42 45 50 51 49 49 49 49 49 49 47 46
37 37 38 39 40 40 40 40 40 39 40 41 40 42 43 43 44 45 44 45 45 46 47 47 48 47 43 43 42 41 41 42 49 49 49 49 49 49 48 47 46 45
38 38 38 38 39 39 39 39 39 38 39 39 39 39 39 40 39 40 40 41 40 42 43 46 46 39 37 39 40 41 41 41 48 47 48 47 47 46 46 45 43 44
37 38 38 38 39 38 38 38 37 37 37 38 39 38 39 39 39 39 39 39 39 38 41 41 40 37 37 37 40 42 39 44 45 45 45 44 41 41 42 42 42 43
37 37 38 38 37 36 37 38 38 39 39 40 38 38 38 39 38 38 38 37 37 36 37 36 36 37 37 38 38 41 41 42 42 40 39 39 39 41 41 41 41 41
38 38 37 38 36 36 36 37 37 37 37 39 39 38 38 38 36 36 35 36 35 36 37 34 33 37 37 38 39 40 42 41 41 40 39 40 38 38 38 40 44 46
38 37 37 36 36 36 36 36 37 38 39 38 37 38 38 37 38 35 34 33 33 34 40 33 32 35 37 38 39 39 40 40 41 40 37 34 34 34 34 35 36 39
39 40 38 38 37 37 37 37 38 38 37 37 37 37 37 36 35 33 33 32 31 31 33 32 32 33 35 37 38 39 40 40 39 37 34 32 33 33 33 33 34 34

ECMWFNIL_sfc_dewp_042.txt.gz
Dewpoint
52 53 53 53 52 53 52 50 49 49 48 48 48 48 48 48 52 49 50 49 50 50 50 51 51 51 52 51 51 50 50 50 49 48 48 48 47 47 47 47 47 47
52 53 54 53 53 53 52 51 50 49 48 48 48 48 49 49 50 50 50 49 50 49 49 50 51 51 50 50 50 50 49 49 49 50 48 47 47 47 46 46 46 46
52 53 53 52 52 53 52 52 51 50 49 49 49 49 49 51 49 50 50 49 49 48 48 49 50 51 50 50 49 49 48 49 49 49 49 47 48 47 46 46 47 46
53 53 52 52 52 52 52 52 52 51 50 49 49 50 51 52 50 50 50 55 49 49 49 49 50 50 50 50 49 48 48 49 49 50 50 49 48 47 47 48 48 47
52 52 53 52 53 53 52 52 52 51 50 50 50 51 52 51 50 50 51 51 49 49 49 50 49 50 50 50 48 48 50 49 49 49 49 48 48 48 48 48 47 46
53 53 53 52 53 53 52 52 52 52 51 51 50 52 51 51 51 51 51 50 50 50 49 49 49 49 49 49 48 48 49 49 49 48 48 49 49 49 48 47 46 45
53 53 53 53 53 53 53 53 53 53 53 53 51 51 51 51 51 51 51 52 51 51 50 50 50 50 49 49 49 49 49 49 48 47 48 48 49 49 48 46 46 44
53 53 53 53 53 54 53 52 53 53 53 53 52 52 52 52 51 51 53 52 52 51 50 50 50 49 49 48 49 49 48 49 49 47 47 47 48 47 48 46 45 45
53 53 53 54 54 54 53 53 53 54 54 53 53 52 53 52 53 53 53 53 53 53 52 51 51 52 51 51 50 49 49 49 50 49 48 48 48 47 47 46 44 46
53 53 53 53 53 53 54 54 54 54 54 54 54 54 54 54 54 54 53 53 53 53 53 52 51 53 53 52 51 49 48 49 49 49 49 48 49 48 47 47 46 45
52 52 52 52 52 53 54 54 54 54 54 54 55 55 55 54 55 55 54 53 53 53 53 53 53 53 53 54 52 51 50 49 48 49 49 49 50 49 49 48 48 47
52 52 52 52 52 53 53 54 54 54 54 55 55 55 54 55 55 54 55 54 54 53 54 53 53 54 54 54 54 53 52 51 49 49 49 49 49 49 49 49 48 48
51 51 52 52 52 52 53 53 52 52 53 54 54 54 54 53 54 54 53 53 54 54 54 54 54 54 54 54 54 54 53 52 50 49 49 49 49 48 48 49 49 48
51 51 51 51 52 52 52 52 52 52 52 53 53 53 54 53 53 54 53 53 54 54 54 53 54 54 54 54 54 54 53 53 52 51 50 50 50 49 49 49 49 49
51 51 51 51 50 50 51 51 52 52 52 52 52 52 53 53 53 53 52 53 52 53 52 53 53 53 54 54 54 53 53 53 52 52 51 51 50 50 50 49 49 49
50 50 51 50 51 51 51 51 51 51 50 50 51 51 52 52 52 52 52 52 52 51 51 52 52 53 53 50 50 53 53 53 53 53 52 52 52 51 51 50 50 50
49 49 49 50 50 51 50 50 51 51 51 51 51 51 52 52 52 51 51 51 51 51 51 51 52 53 49 46 44 44 51 52 53 53 52 52 52 52 52 52 51 50
46 47 47 47 48 49 50 50 50 50 50 50 50 51 51 51 50 51 51 50 50 50 51 51 51 49 43 41 41 41 44 50 52 52 52 52 52 52 52 51 51 51
40 40 41 42 43 45 47 49 50 49 49 48 49 48 49 49 49 48 49 49 49 49 49 49 49 44 40 40 40 40 40 44 50 51 51 52 51 51 51 51 51 50
39 39 39 40 40 41 42 44 44 44 44 44 45 45 46 46 46 47 46 46 47 47 47 46 47 40 37 38 39 39 39 40 48 50 51 51 50 50 50 49 49 49
38 39 39 39 40 40 40 39 39 39 40 41 40 41 41 42 42 42 42 42 41 42 42 44 44 38 37 37 37 38 38 39 46 48 49 49 48 47 48 49 48 47
39 39 40 40 39 39 39 39 38 38 40 41 41 40 40 41 40 39 39 40 40 39 42 43 41 38 37 37 38 38 39 45 46 48 48 44 41 42 42 43 44 45
37 37 37 37 37 37 37 38 39 39 40 40 40 39 40 40 39 38 38 38 39 38 39 39 37 38 37 37 38 39 42 46 44 41 41 40 40 41 42 44 44 43
38 37 37 37 37 38 38 38 38 39 40 42 41 40 41 39 38 37 36 37 38 38 39 38 37 37 37 38 39 40 42 42 41 40 39 38 38 38 39 41 44 44
38 38 38 38 38 38 38 39 39 40 41 39 39 39 39 38 39 35 34 34 34 37 41 35 35 36 38 38 39 39 41 41 41 39 37 36 36 36 36 36 37 39
40 40 39 38 38 39 39 40 41 40 39 39 37 36 37 37 37 34 33 33 33 32 34 34 34 35 38 37 39 39 40 41 39 38 36 34 35 35 35 35 35 35

ECMWFNIL_sfc_dewp_045.txt.gz
Dewpoint
57 57 58 57 57 58 57 57 56 56 56 55 53 54 54 55 55 57 57 57 58 57 57 57 57 56 56 56 56 53 53 56 55 55 54 54 53 54 54 53 55 51
57 57 57 57 57 56 57 57 56 55 56 56 55 54 56 56 56 56 57 57 57 57 56 56 57 56 55 53 55 54 53 54 53 52 54 53 52 53 54 54 53 52
57 57 57 57 57 57 56 56 55 55 55 56 57 56 55 57 56 56 57 57 56 57 57 57 57 56 55 54 54 53 53 53 52 52 53 52 52 50 52 52 51 52
57 58 57 58 58 57 56 55 55 55 56 55 56 56 56 56 57 56 56 55 56 56 56 56 57 56 54 54 54 52 53 53 53 54 52 52 52 51 52 52 51 50
57 57 58 57 57 57 57 56 55 55 55 57 57 56 56 56 56 55 56 55 55 54 55 56 56 56 56 55 54 53 53 52 54 54 51 51 51 52 52 52 50 50
57 56 56 56 56 57 56 56 55 55 55 55 56 55 56 56 55 55 55 55 54 54 54 54 54 55 55 55 55 54 53 52 54 53 50 50 50 51 48 50 49 49
57 57 57 56 57 57 57 57 56 55 54 55 54 55 55 56 55 54 54 55 54 53 53 54 53 54 55 55 54 54 53 54 54 53 51 51 51 51 50 50 47 46
58 58 57 56 57 57 57 57 57 56 56 54 55 54 55 55 53 56 55 54 54 53 54 53 53 53 54 54 52 54 54 54 54 53 52 51 53 50 51 51 51 46
58 57 57 57 58 58 56 56 57 57 56 56 55 55 55 55 56 56 54 54 54 55 54 54 53 53 56 56 56 54 53 54 54 53 52 52 52 51 49 49 50 48
58 58 58 58 58 58 58 58 58 58 57 57 56 56 55 57 56 55 55 55 55 54 54 54 54 55 56 56 54 54 54 53 54 54 53 53 52 51 50 51 50 49
59 58 58 59 59 58 59 58 59 59 59 58 58 58 57 58 58 57 57 57 57 55 54 54 54 54 54 55 57 58 56 55 54 54 54 53 54 53 54 52 51 51
59 59 58 58 59 59 59 59 59 59 59 59 58 57 58 58 59 59 59 58 57 56 55 56 55 55 55 54 54 56 57 57 56 55 54 53 53 53 52 52 53 51
58 58 57 57 58 59 60 59 58 59 58 57 58 57 58 58 58 57 58 58 56 56 56 56 56 56 56 56 56 56 56 56 57 56 55 55 54 53 52 52 52 52
56 57 57 57 58 58 58 59 59 59 59 59 58 58 58 57 57 57 58 57 57 56 57 57 56 56 56 56 56 56 56 56 56 56 56 56 56 55 54 53 53 52
56 56 57 57 57 57 58 58 58 59 58 58 58 58 59 58 57 57 57 57 57 57 56 57 58 57 57 57 57 56 56 56 57 56 56 56 55 55 55 54 53 53
55 56 56 56 56 56 56 56 56 57 57 57 57 57 57 57 56 56 56 56 56 56 57 58 58 57 55 50 49 55 56 56 56 56 56 56 56 55 55 55 55 54
55 54 55 55 56 56 57 56 55 57 56 56 56 56 57 56 57 56 56 56 56 56 57 57 57 56 43 42 43 43 53 57 56 55 56 56 56 56 56 56 56 55
55 54 54 55 55 55 55 55 55 55 55 55 55 55 55 55 56 56 56 56 56 56 57 57 57 40 39 39 40 41 43 54 56 56 56 56 55 55 55 55 55 56
52 53 53 54 54 54 54 54 54 54 54 54 54 55 55 56 55 55 55 55 55 55 56 55 54 39 38 38 39 40 40 44 53 54 55 56 56 56 55 55 55 55
46 47 48 49 51 52 54 54 54 54 55 54 54 54 55 55 54 55 54 54 55 56 54 53 53 41 37 37 38 37 37 40 53 53 54 54 54 55 56 55 55 55
43 44 45 46 47 48 49 48 49 50 51 52 53 55 55 54 54 53 53 53 53 53 54 54 52 38 37 38 38 38 37 42 52 52 52 53 53 53 53 54 54 55
43 44 44 44 44 45 45 45 48 49 49 50 49 49 49 50 50 51 52 51 51 52 53 51 50 37 37 38 38 38 41 51 52 53 52 51 50 49 49 49 50 51
41 42 43 43 44 44 44 46 47 48 48 48 49 49 49 49 50 49 48 50 50 51 51 50 50 41 37 37 38 39 46 52 52 49 49 48 47 48 48 49 48 48
43 44 44 43 44 43 45 47 48 49 49 50 47 48 48 48 48 47 46 47 49 49 48 50 49 42 37 37 39 39 47 52 49 49 47 46 45 45 45 44 42 44
43 43 43 44 43 45 47 47 47 47 48 49 49 50 50 47 45 46 45 45 45 46 41 47 48 45 37 37 39 39 47 51 48 47 46 45 44 42 42 41 40 38
44 44 44 44 42 46 47 47 47 47 48 49 49 47 47 46 45 45 46 44 43 44 45 46 47 47 41 36 38 39 40 49 48 46 45 44 43 41 41 40 39 37

ECMWFNIL_sfc_dewp_048.txt.gz
Dewpoint
60 59 59 57 54 55 55 54 52 52 50 50 50 51 51 54 54 54 55 55 54 54 54 54 52 53 51 52 52 46 48 52 52 52 51 51 51 53 52 51 53 49
61 61 59 59 58 58 58 57 56 53 51 52 51 51 53 54 55 54 54 54 54 54 54 54 53 51 50 50 52 49 47 50 50 48 50 50 48 50 51 52 51 50
60 60 60 59 58 59 60 59 58 56 54 53 54 53 54 55 55 54 55 54 53 54 55 55 55 52 51 51 51 50 50 50 50 49 49 47 48 48 50 50 49 50
60 60 60 60 59 58 58 57 56 56 57 55 53 53 54 55 55 55 54 54 54 54 55 55 55 53 51 53 52 49 50 49 50 51 50 49 49 48 49 49 50 50
60 60 59 59 59 59 58 57 55 54 55 55 54 54 53 54 54 53 54 54 54 54 54 55 55 55 55 54 53 53 52 50 52 51 49 50 51 51 51 50 49 49
59 58 58 59 60 59 57 55 54 54 54 56 55 53 54 54 53 53 54 54 54 54 54 54 54 54 54 54 54 54 53 52 52 52 49 49 48 49 45 49 50 48
60 59 59 58 59 58 57 56 55 55 55 55 54 55 55 55 53 52 52 53 53 53 53 54 54 55 55 55 54 53 53 53 53 52 50 50 50 50 48 48 45 45
61 60 59 59 59 59 58 57 57 56 57 55 55 55 56 55 53 54 53 53 52 52 53 53 54 54 54 55 54 55 55 54 54 52 52 51 52 50 50 48 49 46
61 60 59 60 60 58 58 56 56 57 56 56 55 54 54 53 54 54 53 52 52 53 52 53 53 54 56 55 55 55 54 55 55 54 54 53 53 53 49 49 50 50
60 59 60 60 60 58 58 57 57 58 56 56 54 55 55 55 54 53 53 54 53 53 52 53 53 55 55 55 54 54 54 54 54 55 55 55 53 51 50 52 52 51
59 59 59 59 60 58 59 58 59 57 56 54 56 55 54 55 55 54 55 54 55 53 53 53 54 54 54 55 57 57 56 56 55 54 55 55 56 55 55 54 53 53
60 59 59 59 59 59 60 59 58 57 57 57 56 55 57 56 55 55 56 55 55 54 54 53 53 54 54 54 54 56 57 57 57 56 56 54 55 54 55 55 56 54
58 59 59 60 59 60 60 58 58 58 58 56 56 56 57 57 57 56 57 55 54 54 54 55 55 55 55 56 55 55 56 56 57 58 57 57 56 54 55 56 56 55
59 59 59 57 56 57 59 58 58 58 57 56 56 57 57 55 56 55 56 55 55 54 55 56 56 56 56 56 56 57 57 57 57 58 57 57 58 57 58 57 57 56
58 57 58 58 57 58 59 58 58 58 57 57 57 58 58 56 56 55 56 55 56 56 56 57 57 58 58 57 57 56 57 57 58 57 58 58 58 57 57 56 56 57
57 58 56 57 57 57 56 57 57 58 59 58 57 57 57 58 57 57 56 57 56 56 58 59 59 59 52 47 46 56 57 56 58 58 57 58 57 56 58 57 56 57
55 55 56 56 56 55 57 57 56 58 57 57 57 56 57 57 58 56 56 56 56 56 58 59 59 55 42 41 43 44 56 57 55 54 55 55 55 57 56 57 59 56
55 54 53 55 56 56 56 55 56 56 56 56 57 59 58 57 57 56 57 58 58 57 58 59 56 41 39 40 41 41 43 55 55 54 54 53 52 51 51 52 52 53
55 55 54 55 55 55 57 57 56 57 57 57 57 58 58 57 57 57 57 57 57 55 53 52 53 36 37 39 39 40 41 47 54 56 53 53 54 52 51 50 50 50
52 52 52 53 54 55 55 55 56 55 56 57 57 58 57 57 58 57 55 53 51 50 50 50 51 38 37 36 38 38 39 42 54 56 56 54 55 55 55 53 52 51
43 44 46 48 49 49 52 53 55 56 55 55 55 54 54 53 52 50 50 49 48 47 47 50 51 36 37 38 38 38 39 39 54 56 54 55 56 56 55 54 54 53
41 42 43 43 44 45 45 46 48 48 48 48 48 48 48 48 47 47 47 47 46 46 46 47 49 37 38 39 38 39 39 55 51 52 52 51 53 54 53 53 53 53
38 40 41 41 41 41 41 44 46 46 46 45 46 45 45 45 46 46 45 45 45 45 46 46 50 41 37 38 39 39 41 45 45 44 47 50 52 52 51 51 50 50
38 37 38 39 39 39 41 44 44 44 44 44 43 42 42 44 44 44 45 45 46 46 46 47 49 44 37 38 40 39 41 51 44 44 45 47 49 50 49 46 43 43
38 37 38 38 39 41 44 44 44 44 44 44 43 43 44 43 41 43 44 46 47 49 45 48 49 45 37 38 38 39 48 49 42 42 44 45 45 46 47 45 41 39
41 40 40 38 37 38 40 40 43 49 47 46 45 42 42 40 41 41 44 44 47 48 49 49 48 49 45 37 39 40 38 51 42 41 43 43 43 43 44 44 41 39

ECMWFNIL_sfc_dewp_051.txt.gz
Dewpoint
58 58 55 53 52 53 54 52 51 51 51 51 50 50 50 52 51 52 52 53 52 51 50 51 50 50 50 51 49 45 47 51 49 50 50 49 49 52 51 50 52 48
58 58 55 54 52 53 54 53 53 51 52 53 51 50 52 52 53 53 52 52 52 52 50 50 50 49 49 49 50 48 47 50 48 44 49 49 48 50 52 51 51 48
60 59 58 56 55 56 56 56 55 53 52 52 53 52 52 54 53 53 53 52 52 53 53 51 50 50 49 50 50 49 49 48 49 48 48 47 49 49 50 50 51 49
61 60 59 58 57 58 58 57 54 54 55 53 52 52 53 53 54 54 53 52 52 53 54 54 53 50 48 49 50 49 49 49 48 50 49 49 48 48 49 49 49 48
61 60 59 57 55 55 56 56 56 55 55 54 53 53 53 54 54 53 53 53 53 53 54 53 53 53 53 51 50 50 50 50 51 49 48 48 49 50 49 49 50 48
60 58 57 58 55 54 52 52 52 52 53 55 54 52 53 53 52 52 53 53 52 53 53 53 53 54 53 53 53 53 51 49 51 50 48 48 48 48 44 48 48 46
60 58 58 58 57 55 54 53 51 51 52 54 52 53 53 52 52 52 51 52 52 52 52 54 54 54 54 54 53 53 53 52 51 49 48 48 47 47 47 47 45 43
59 59 58 59 59 56 53 52 52 51 54 55 53 52 52 51 50 52 52 53 51 52 53 52 53 53 54 55 53 54 54 54 53 51 52 50 52 48 46 47 49 46
58 58 59 60 60 57 53 50 52 53 52 54 54 53 52 51 51 52 52 52 52 52 52 53 53 54 56 55 55 55 54 55 55 53 53 53 52 51 49 49 49 48
60 60 60 61 60 57 56 52 54 54 53 53 52 54 53 53 52 51 51 52 52 52 51 52 53 55 55 55 54 55 55 55 54 55 54 54 54 52 50 51 53 52
60 60 61 61 60 58 57 54 53 53 54 51 51 50 50 52 52 51 52 51 53 51 51 52 53 55 55 55 56 56 55 56 55 55 57 55 55 54 56 54 54 54
60 60 61 60 59 58 57 55 54 54 54 53 51 50 51 52 52 51 51 50 51 52 52 53 54 55 57 57 56 56 57 56 55 55 55 55 55 56 57 55 57 54
59 60 60 60 61 61 61 59 54 54 52 51 52 52 51 52 51 52 53 53 52 54 53 54 54 58 57 55 56 56 56 56 56 56 56 56 56 54 54 56 58 58
61 61 60 60 60 59 58 59 58 59 56 52 52 53 53 53 52 53 55 53 54 53 53 53 54 54 55 55 55 55 55 56 57 58 58 58 59 56 55 55 55 56
59 59 59 57 57 57 58 59 59 59 59 60 56 54 58 56 58 54 54 54 54 54 53 55 56 57 59 60 58 55 56 57 58 58 58 58 57 56 57 57 57 57
59 58 57 56 58 58 58 59 58 59 59 58 58 59 58 57 56 56 57 58 58 56 57 59 59 58 50 45 47 58 57 57 58 59 57 58 55 56 57 58 57 57
56 56 55 56 57 56 58 57 55 58 57 57 56 57 57 56 56 56 57 56 54 56 58 57 59 54 41 40 43 44 57 60 58 57 58 57 58 56 55 57 57 55
55 56 55 56 56 55 56 56 57 57 56 56 56 57 57 58 58 56 56 57 58 57 58 57 55 39 40 41 41 42 44 55 54 53 53 51 52 52 54 55 55 53
55 53 55 56 56 56 57 57 55 56 55 56 56 58 58 57 57 58 57 58 57 57 56 54 52 36 39 39 41 42 43 48 50 50 48 49 50 49 48 48 47 48
55 54 55 55 56 56 56 55 54 55 58 57 58 57 57 58 58 59 58 56 57 55 50 49 50 36 37 38 40 40 41 43 49 48 49 48 48 48 48 48 48 47
48 48 50 52 53 54 54 54 55 56 56 55 57 57 56 57 57 56 57 54 51 50 49 48 52 36 38 38 38 39 41 39 50 47 47 48 49 51 50 50 49 51
41 42 44 46 47 49 50 51 53 53 54 54 53 54 52 52 51 51 51 49 49 48 46 45 51 37 39 41 40 40 39 54 48 47 47 47 49 49 49 50 52 51
39 40 41 42 42 43 44 47 48 48 49 49 50 49 48 47 48 48 47 46 46 46 46 45 49 43 39 40 39 38 40 55 43 44 46 47 48 49 50 50 49 49
38 38 39 40 40 41 42 43 44 45 45 45 45 44 45 45 45 44 44 43 44 45 45 44 47 45 38 39 38 39 40 53 44 43 43 44 45 46 48 46 44 44
39 39 40 39 39 41 44 42 42 42 42 42 42 42 43 43 42 42 42 42 43 45 49 47 47 46 37 37 38 38 45 50 44 39 43 43 44 44 46 46 43 40
41 40 41 40 39 40 43 42 41 42 45 43 44 40 39 39 39 40 41 42 44 46 45 47 47 48 48 37 39 39 39 48 45 38 39 41 41 39 43 44 43 41

ECMWFNIL_sfc_dewp_054.txt.gz
Dewpoint
60 61 59 60 59 59 59 57 57 57 56 57 55 54 57 58 56 57 57 58 57 57 57 57 57 57 55 55 55 50 52 53 54 55 54 53 54 54 54 55 54 54
60 61 57 59 58 58 60 59 57 58 57 57 56 57 56 56 58 58 57 57 57 57 57 57 58 57 56 54 56 56 55 55 52 50 54 54 54 55 56 56 54 53
60 60 59 59 58 60 59 59 59 58 58 57 58 57 57 59 57 57 59 58 58 58 57 56 56 56 56 56 55 54 53 54 54 54 54 53 55 54 54 54 54 53
60 61 61 60 60 59 59 59 59 58 58 57 56 56 57 58 59 59 58 57 58 58 58 58 58 57 53 56 57 56 56 55 55 56 55 56 54 54 55 55 54 52
61 61 62 61 60 59 59 57 57 59 57 57 57 57 57 59 59 58 57 58 59 59 59 58 58 57 57 55 55 56 57 56 55 53 52 52 53 53 53 55 52 52
62 60 59 59 60 59 58 56 57 58 58 58 58 57 59 58 58 57 57 57 57 57 59 58 58 58 57 57 57 57 57 56 56 56 53 53 54 54 48 55 51 48
61 61 61 58 58 58 58 58 58 57 58 58 56 58 59 58 57 56 55 56 55 55 55 58 58 58 59 58 58 59 56 56 56 54 49 49 50 52 51 51 52 48
61 61 61 58 57 60 57 56 56 56 58 57 57 58 57 57 54 58 57 55 54 53 56 54 57 57 58 59 57 57 57 58 58 57 54 54 56 50 51 53 54 50
61 62 62 62 57 57 56 53 55 56 57 57 56 59 58 57 57 58 58 57 56 57 54 55 56 57 59 59 58 57 57 58 59 57 56 55 55 54 49 52 54 52
60 62 63 62 63 56 57 55 56 56 57 58 54 57 55 59 58 57 58 58 57 56 55 55 56 57 59 59 59 58 58 57 57 57 57 57 56 55 52 54 56 55
61 60 59 60 60 60 58 55 55 55 55 55 57 57 55 57 56 55 57 57 58 55 55 55 56 56 58 59 59 60 60 59 58 57 58 58 58 56 57 55 57 57
60 59 59 59 60 58 59 58 56 56 55 56 55 54 56 57 57 54 55 54 54 56 56 54 57 59 58 58 59 60 61 60 59 58 59 58 58 58 58 55 57 56
58 59 59 59 58 58 59 61 60 57 56 55 54 54 55 55 56 54 57 56 54 56 57 59 59 58 59 59 58 59 58 58 58 58 58 59 58 59 58 58 58 58
60 60 60 59 59 59 59 60 60 60 59 59 59 60 59 56 57 58 59 57 57 59 59 59 59 59 59 59 59 59 58 59 59 58 58 58 58 58 59 59 59 59
59 58 59 58 58 58 58 58 59 60 58 59 59 59 59 58 57 58 58 58 58 58 58 58 59 59 55 54 58 58 59 59 58 58 58 58 58 59 59 59 60 60
59 58 58 58 57 57 58 60 59 59 59 58 58 58 58 58 58 58 57 58 57 58 57 58 59 57 48 45 46 55 57 59 57 58 58 58 57 56 58 58 59 59
58 58 58 58 58 59 57 59 58 58 58 57 57 57 58 58 58 58 58 57 57 57 57 57 59 51 41 40 41 43 57 58 58 58 58 57 56 56 57 58 58 57
59 56 57 59 59 57 57 57 59 59 57 57 58 57 58 58 58 57 58 58 58 57 58 58 56 41 39 40 41 41 44 54 59 58 58 57 55 56 57 57 58 58
55 56 56 56 56 57 57 57 57 57 57 57 57 59 58 58 57 58 58 58 58 57 57 57 54 38 38 39 40 40 41 45 55 57 55 55 56 56 55 56 55 55
55 55 56 57 57 57 57 56 56 57 58 57 58 58 58 58 58 58 57 57 58 58 56 53 51 39 38 39 40 39 39 41 53 53 54 53 53 53 54 54 53 54
56 57 56 55 56 56 57 56 56 57 58 58 57 58 57 57 57 57 57 56 57 56 50 51 51 37 38 39 39 39 38 39 52 53 52 52 53 53 53 54 53 55
49 50 51 54 56 56 55 55 56 57 57 58 58 57 58 57 57 57 57 56 56 51 50 50 49 37 39 39 40 39 38 51 54 51 53 51 52 52 49 48 49 50
44 45 50 48 49 51 53 55 56 56 56 56 56 56 56 56 56 55 54 54 52 49 49 49 49 41 38 40 39 38 44 54 55 51 48 51 50 49 46 43 44 48
42 42 48 46 50 46 48 51 53 54 53 53 53 52 52 52 52 52 52 51 49 48 48 48 49 45 38 39 39 38 39 50 51 51 47 47 48 48 46 42 42 45
43 43 44 45 44 47 51 51 50 51 49 51 50 48 49 48 48 48 48 49 48 47 48 48 49 45 37 39 38 38 42 51 49 47 45 46 47 47 46 43 39 40
45 47 48 45 44 48 51 51 52 53 53 52 51 46 43 43 44 44 45 45 49 48 48 48 48 48 44 37 38 38 38 45 49 48 46 45 44 45 45 43 41 38

ECMWFNIL_sfc_dewp_057.txt.gz
Dewpoint
56 55 55 55 55 55 56 54 53 53 52 53 52 53 54 53 52 51 50 50 50 50 50 51 51 51 51 49 50 49 51 52 51 51 51 52 52 52 52 49 49 49
56 56 56 56 56 56 56 54 54 53 53 52 53 54 52 52 53 53 52 53 52 53 54 54 52 50 52 52 52 51 49 49 50 54 52 51 50 50 50 49 48 49
57 55 56 55 55 56 54 54 55 54 52 53 53 52 53 54 52 52 53 53 54 51 50 49 49 51 49 49 49 49 49 50 49 50 51 50 51 50 50 49 49 49
57 55 56 55 56 55 54 55 55 54 54 53 52 54 54 53 52 55 56 55 50 49 49 51 52 51 51 52 52 50 50 50 52 53 52 51 52 51 51 52 51 51
59 58 57 57 57 55 55 55 54 54 53 53 54 54 54 53 54 54 53 53 53 54 54 53 51 51 50 51 52 53 53 51 50 49 49 49 49 50 49 48 48 48
59 59 58 56 55 54 54 56 55 54 53 53 53 54 54 55 54 54 54 54 54 54 53 53 54 52 50 52 52 52 50 48 49 52 51 50 51 50 49 48 47 47
59 58 59 58 56 55 56 57 56 55 54 54 55 55 55 54 54 54 54 55 55 54 53 53 54 54 54 55 54 52 52 52 52 46 44 46 49 48 50 50 48 46
60 58 57 56 57 58 57 56 56 56 55 54 54 55 54 54 53 54 54 54 54 54 54 55 55 54 56 54 54 54 54 56 55 51 50 52 49 47 49 50 47 45
59 60 58 56 55 56 55 55 55 56 55 54 54 54 54 54 54 54 54 54 54 54 54 55 55 54 56 54 54 54 54 55 56 54 52 53 53 51 49 51 50 50
57 57 56 58 56 54 55 55 55 56 55 54 55 54 54 55 54 55 54 54 54 54 54 54 56 56 56 55 56 56 56 56 56 56 56 56 55 55 55 56 54 53
57 56 56 56 57 58 55 55 54 55 55 53 54 53 54 55 54 54 54 54 55 54 55 55 56 57 57 58 58 57 56 56 56 56 56 56 56 56 57 56 55 54
57 56 55 55 57 58 57 55 53 53 54 54 55 52 54 55 53 54 53 54 54 54 55 56 56 57 58 58 57 56 56 56 56 56 57 56 56 56 56 56 54 55
57 56 56 55 56 56 56 57 54 53 53 53 55 54 54 54 53 55 55 55 56 55 56 57 57 57 59 59 58 57 56 56 56 55 56 55 56 56 56 57 57 57
56 56 56 56 56 57 57 57 57 55 54 56 56 56 56 55 55 56 57 57 56 56 56 56 56 57 57 58 57 57 56 56 55 55 56 55 54 55 56 56 57 57
57 57 57 56 56 56 57 58 58 57 56 57 56 56 56 57 57 56 56 56 56 56 56 56 56 55 54 55 57 57 56 56 56 55 55 54 53 54 55 55 56 56
56 57 58 57 56 56 56 56 56 57 56 55 56 56 55 56 56 56 56 55 55 55 55 56 55 52 49 48 51 56 56 56 54 54 55 55 54 54 55 55 55 55
56 56 57 57 56 56 57 57 57 57 55 55 55 56 56 57 57 56 55 55 55 55 55 56 54 49 42 41 42 47 56 55 54 54 55 55 54 54 54 55 55 56
56 56 56 56 56 56 56 57 56 55 55 56 55 56 56 56 57 56 55 55 54 54 55 55 51 45 40 41 42 44 50 55 56 56 56 55 54 54 55 55 56 56
56 56 56 56 56 56 56 56 56 55 54 55 54 55 56 56 56 56 55 55 55 55 55 53 49 40 40 41 40 41 41 49 56 56 56 55 55 54 55 54 55 56
56 56 56 55 55 56 56 56 55 55 54 53 54 54 54 55 55 54 54 54 54 54 54 51 47 40 39 40 40 39 38 42 52 55 54 54 54 54 53 53 54 55
56 56 55 55 55 55 54 54 54 54 54 54 54 54 54 54 54 53 53 53 53 53 51 50 47 38 39 39 38 39 38 39 50 51 51 51 50 49 49 50 52 53
54 55 55 54 54 54 54 53 53 53 53 53 53 53 52 52 52 53 53 54 52 49 48 48 43 37 39 39 38 39 39 46 50 49 50 48 46 45 46 48 50 48
52 53 54 54 54 54 54 54 54 54 53 54 54 53 53 53 53 54 54 53 50 48 47 46 44 39 38 38 38 37 42 50 50 49 48 46 44 44 46 48 47 45
43 45 49 50 51 52 51 53 53 54 54 54 54 53 53 53 53 53 52 51 48 47 46 45 44 40 38 38 38 37 42 47 48 48 47 45 44 43 44 45 46 46
41 42 43 44 45 47 50 50 51 53 52 52 52 52 52 51 51 52 51 49 47 46 48 45 45 41 37 37 37 36 40 47 46 47 46 45 43 41 40 40 41 43
39 40 41 43 43 45 45 47 48 48 49 50 49 51 51 50 49 49 50 49 47 46 46 45 45 43 39 37 37 36 37 43 45 46 45 45 43 40 39 37 37 37

ECMWFNIL_sfc_dewp_060.txt.gz
Dewpoint
55 54 55 55 54 54 54 52 51 51 51 50 49 51 51 51 52 51 51 50 49 50 51 51 51 50 51 50 50 51 51 51 51 50 50 50 49 47 48 47 48 47
55 55 56 55 55 55 54 52 51 51 51 50 52 52 51 51 50 50 50 50 50 50 50 50 50 50 50 51 50 50 49 50 50 51 49 48 48 47 47 48 48 47
55 55 55 54 54 55 53 53 52 52 51 52 53 51 51 52 51 50 50 51 51 51 50 50 50 50 50 49 49 49 49 49 49 49 49 48 49 49 48 49 50 49
55 55 55 54 55 54 53 53 52 52 53 53 51 52 52 53 51 51 52 54 49 49 49 49 48 48 48 48 49 48 48 49 49 50 50 50 50 49 49 49 49 48
55 55 55 55 55 54 54 53 52 52 52 52 52 53 52 52 53 53 52 49 48 49 50 50 49 49 50 50 49 49 50 50 49 49 48 48 48 48 48 47 47 47
56 55 55 55 54 54 54 53 53 52 52 52 53 53 52 54 53 52 51 50 51 52 50 50 50 50 51 51 51 50 49 48 48 49 48 49 48 48 47 47 46 46
57 56 56 55 54 54 54 53 53 52 52 53 53 52 54 54 52 52 52 53 52 52 51 50 49 50 51 51 50 48 48 49 49 49 48 48 49 48 49 47 47 47
58 57 55 55 56 57 55 53 53 53 53 53 52 54 54 53 52 53 54 54 53 52 52 52 51 51 52 52 51 51 51 52 48 47 48 48 48 47 47 48 47 48
58 57 56 57 57 56 55 54 54 53 54 53 53 54 54 53 54 54 54 53 53 53 54 53 53 53 53 52 53 53 53 52 52 51 51 50 50 50 50 49 48 49
57 57 57 57 55 55 54 55 55 55 54 54 54 54 54 54 54 54 54 53 53 53 53 53 54 54 53 53 54 55 55 55 54 53 53 53 54 53 53 52 50 51
56 57 57 57 56 57 56 55 55 54 54 54 54 53 54 54 54 54 53 53 54 54 54 55 56 56 56 55 55 55 55 55 55 54 54 54 54 54 57 54 53 52
56 56 56 56 56 56 56 55 56 54 54 54 53 53 54 54 54 54 54 54 54 55 55 56 56 56 56 55 55 55 55 55 55 54 54 54 53 54 54 54 54 54
55 55 56 56 57 56 56 56 55 55 54 55 54 53 54 54 53 54 54 54 55 55 56 56 56 56 56 56 55 54 55 55 54 54 54 54 54 54 54 54 54 55
55 55 55 56 55 55 56 55 54 53 53 53 54 52 53 54 54 54 54 54 55 55 56 56 56 56 56 55 55 54 54 54 54 54 54 53 53 53 54 54 54 54
55 55 55 56 56 56 55 55 55 54 54 54 53 53 54 54 54 55 55 55 55 55 55 55 56 56 55 55 55 55 53 54 53 53 54 53 52 53 53 54 54 54
55 55 55 55 55 55 55 55 56 55 55 54 54 54 55 55 55 55 55 55 54 54 54 55 54 53 53 52 53 55 55 54 53 53 54 53 53 52 52 53 54 54
55 54 54 54 54 54 54 54 55 55 54 54 54 55 55 55 55 54 54 54 54 54 54 54 53 52 47 45 47 50 55 54 54 54 54 54 53 53 54 54 53 54
55 55 54 54 54 54 54 54 54 54 54 54 54 55 55 55 54 54 54 54 54 54 54 53 52 49 41 42 43 44 49 54 53 53 54 54 53 53 54 54 54 55
55 55 55 54 53 53 53 53 53 54 54 54 54 54 54 54 54 54 53 53 53 54 53 53 51 43 40 41 42 42 43 50 54 53 54 54 53 53 54 54 54 54
54 54 54 54 53 53 53 53 52 51 51 52 53 53 54 53 52 53 53 53 53 53 53 52 51 42 40 41 41 41 41 44 53 53 52 53 53 53 53 54 54 53
53 53 53 54 54 53 53 53 52 51 51 51 53 53 53 53 53 52 52 52 52 52 51 51 50 40 39 40 40 40 39 39 48 52 51 50 50 52 53 53 53 49
53 52 52 51 52 52 52 51 50 51 52 50 50 50 50 50 51 50 51 51 51 50 49 48 43 37 38 39 39 39 38 43 49 50 48 46 46 47 49 52 49 46
51 52 51 52 52 51 50 50 51 51 50 51 52 51 52 51 52 51 51 51 50 48 48 47 44 38 38 38 38 37 39 48 49 48 46 46 46 47 48 47 45 43
43 47 48 49 49 50 50 49 49 50 51 51 51 51 51 51 51 50 50 51 49 48 47 46 44 39 38 38 37 36 43 48 48 46 45 45 44 44 45 44 44 45
40 41 42 43 44 45 46 48 49 50 49 50 50 50 50 49 50 51 49 49 47 47 48 45 43 39 37 37 36 35 41 47 47 45 44 43 44 42 41 43 43 43
37 38 39 40 40 40 41 43 45 46 48 49 49 49 49 49 48 48 49 48 45 44 45 44 43 42 38 35 36 35 39 45 46 45 43 42 42 41 40 37 37 38

ECMWFNIL_sfc_dewp_063.txt.gz
Dewpoint
55 55 55 55 53 53 52 51 51 50 50 49 50 50 50 50 52 51 51 51 51 52 51 50 50 50 51 50 50 50 51 50 50 49 49 49 47 47 48 47 47 49
55 55 56 55 54 54 52 51 51 50 50 50 51 51 51 51 51 50 50 51 51 50 49 49 49 49 49 49 49 50 49 49 49 51 48 47 46 47 47 46 46 47
55 55 55 54 54 53 51 51 51 50 50 51 52 51 51 51 50 50 50 50 50 49 49 49 49 49 49 48 48 48 48 47 48 47 49 47 47 48 47 48 47 46
55 55 54 54 54 52 52 51 51 51 52 52 51 52 52 52 50 51 52 53 49 49 48 48 48 48 48 48 48 47 47 48 48 48 49 47 48 48 47 47 48 47
55 55 55 55 54 53 52 51 51 52 52 51 52 53 52 51 51 51 49 48 48 48 48 48 48 48 48 48 48 48 49 48 47 47 47 47 47 47 47 47 46 46
55 55 55 55 54 53 52 51 52 52 51 51 51 52 52 52 52 50 49 48 49 49 48 48 48 49 49 48 48 48 48 48 47 47 47 46 46 46 47 46 46 46
55 55 55 54 54 53 52 52 52 52 51 51 52 51 53 52 51 50 50 50 50 50 49 48 48 49 49 48 48 47 46 47 47 48 48 46 47 46 47 47 48 48
56 55 55 54 53 54 52 52 52 52 52 52 51 52 53 52 51 51 51 51 50 50 49 48 49 49 50 48 48 47 47 50 47 47 47 46 46 46 46 48 47 48
57 56 55 55 55 54 53 52 52 52 53 51 52 53 54 52 52 53 53 51 51 50 50 49 49 50 50 49 49 49 49 49 50 48 47 47 47 48 48 47 48 49
56 56 56 55 54 53 53 52 53 53 53 52 53 53 53 53 53 53 53 51 51 51 52 51 51 52 51 51 51 51 50 51 51 50 50 50 51 50 50 49 48 49
56 56 56 56 55 55 54 53 54 53 53 52 53 53 53 53 53 54 53 52 52 52 53 53 53 54 53 52 52 52 52 52 51 51 51 51 51 52 55 50 51 50
56 56 56 55 56 55 55 55 55 53 53 53 53 53 53 52 52 53 53 52 51 52 53 53 53 53 53 53 52 52 52 52 52 52 52 52 52 52 52 52 52 51
56 56 56 56 55 55 55 55 54 54 54 54 53 53 53 52 53 53 53 53 53 53 54 54 54 54 54 53 53 52 53 53 53 52 52 52 53 53 53 53 53 53
55 56 56 56 56 56 55 55 54 53 53 53 53 53 53 52 52 53 53 53 54 54 55 55 54 54 54 54 54 54 53 52 52 52 52 52 51 51 52 53 53 53
56 56 56 56 56 56 55 54 53 53 53 53 53 52 53 53 52 52 52 52 52 54 54 55 56 55 55 55 54 54 53 53 53 53 53 52 51 52 52 51 52 53
54 55 55 55 55 55 54 54 54 54 53 53 53 52 52 52 52 53 53 53 53 53 54 55 55 55 54 52 52 54 54 53 52 52 52 51 51 51 51 52 52 51
54 54 54 54 53 54 53 54 54 54 53 53 52 51 52 52 53 53 53 53 54 53 53 54 54 54 50 45 46 49 53 53 53 52 51 51 51 51 52 53 52 52
53 53 53 53 53 52 52 53 53 53 53 52 52 52 52 53 53 53 53 53 53 53 53 54 53 51 45 44 43 44 49 53 53 53 53 52 52 52 52 52 53 53
53 53 53 52 52 52 51 52 52 52 52 52 52 52 51 52 52 52 52 52 52 52 53 53 52 49 44 43 43 43 44 49 52 52 53 53 52 52 52 52 53 53
53 53 53 52 52 52 52 51 51 51 51 51 51 51 51 51 50 52 52 52 52 52 52 52 52 48 42 42 42 41 41 44 52 51 51 52 52 52 52 52 53 53
53 53 53 53 52 52 52 51 50 50 50 50 51 51 51 50 51 51 52 52 52 52 51 51 52 46 40 40 40 40 41 41 49 51 51 50 51 51 52 52 53 53
54 53 53 53 52 52 51 50 49 50 50 49 49 49 51 53 50 50 51 50 49 47 48 49 48 40 39 40 40 40 39 44 47 49 49 48 48 49 49 52 52 50
42 43 45 45 47 49 51 49 49 49 49 48 51 50 49 48 51 52 50 49 50 51 50 48 49 41 38 39 39 39 39 44 47 48 46 45 45 46 48 50 49 48
38 37 38 39 39 40 41 44 48 49 49 48 50 50 50 50 50 49 49 50 50 50 50 49 49 42 38 39 38 38 41 47 47 47 45 45 44 45 46 46 47 48
38 38 36 36 36 38 38 39 40 42 47 49 48 48 48 48 48 48 47 47 48 48 50 49 48 43 38 38 37 37 39 46 47 46 45 43 44 43 42 43 43 46
38 38 37 36 35 35 36 36 37 37 39 43 46 48 48 46 46 47 48 48 46 46 46 47 45 42 40 37 37 37 38 46 46 46 45 44 43 44 43 40 40 40

ECMWFNIL_sfc_dewp_069.txt.gz
Dewpoint
61 62 61 61 61 61 61 60 59 59 59 58 58 58 59 60 59 60 60 60 60 60 59 59 58 58 57 57 58 54 54 57 57 57 58 59 60 61 61 61 62 61
62 61 60 60 60 60 60 60 60 59 58 59 59 58 59 59 59 59 59 59 59 58 58 58 57 57 57 55 57 56 55 56 55 53 57 57 57 58 59 61 62 61
61 61 60 60 59 60 60 60 60 59 58 58 59 58 58 59 59 59 59 59 57 57 58 58 58 57 57 56 56 55 55 55 55 55 56 55 57 57 58 58 59 61
61 60 60 60 60 59 59 58 57 57 58 57 57 58 57 58 59 58 58 58 58 57 58 58 58 56 54 54 56 54 56 55 54 56 55 55 55 55 57 59 59 59
60 60 59 59 58 58 58 57 56 57 57 58 57 57 56 57 58 57 58 57 57 56 56 56 56 56 56 55 55 55 55 54 55 56 54 54 55 55 56 58 60 60
60 58 57 57 57 57 56 56 56 56 57 57 57 56 57 58 57 56 56 56 55 55 55 55 54 55 54 54 55 56 55 52 54 54 50 52 52 53 51 57 59 59
59 59 58 57 57 57 57 57 57 57 57 57 56 56 57 57 56 56 54 55 54 53 52 54 54 55 56 55 54 54 55 54 52 50 48 51 53 54 52 54 56 56
59 59 58 57 58 58 57 56 57 57 58 56 56 56 57 56 55 56 55 54 52 52 53 52 53 53 54 53 52 54 54 54 53 51 50 53 54 51 53 53 57 55
59 58 57 57 58 57 57 55 57 57 56 56 56 55 56 55 55 55 54 53 52 53 51 52 52 53 55 53 53 52 51 53 54 52 52 53 53 52 48 52 54 55
59 58 58 57 58 57 57 57 56 56 56 56 55 55 53 56 56 54 54 53 53 51 51 52 52 53 53 52 50 51 51 51 51 52 52 52 50 49 48 51 52 53
60 59 58 58 58 57 58 57 56 56 56 54 56 55 55 55 54 54 54 52 54 50 50 51 52 51 52 53 54 54 53 54 52 51 52 52 54 54 55 52 53 52
59 59 58 58 58 58 57 56 57 56 56 56 55 54 55 55 55 54 53 51 51 50 50 51 52 53 51 52 53 54 55 56 56 55 54 52 54 55 53 55 54 53
59 59 59 59 59 58 57 56 56 56 55 54 55 55 54 54 55 55 56 53 52 53 53 54 54 54 55 56 55 54 55 55 56 57 57 57 57 56 56 57 55 55
58 58 57 57 57 57 56 56 55 55 55 56 55 55 55 53 54 54 55 56 55 53 55 56 56 56 56 56 56 57 57 57 57 57 58 59 60 59 60 58 57 56
58 58 58 57 57 57 58 57 58 57 55 55 55 56 56 55 55 55 55 55 56 58 57 59 59 59 58 58 57 57 58 58 58 57 58 59 59 60 60 60 58 58
57 56 56 58 57 58 59 58 57 58 57 56 55 55 56 56 55 56 55 55 56 56 58 60 60 60 56 53 54 57 59 59 59 58 58 58 59 59 60 60 61 61
57 57 56 55 56 56 55 55 56 57 56 56 57 57 57 57 57 55 55 56 56 57 58 59 59 58 45 42 44 50 58 59 58 58 58 58 58 58 58 60 60 59
56 56 56 56 57 56 56 57 57 57 56 56 56 56 56 56 57 55 56 56 57 56 58 59 59 48 44 42 43 45 50 59 59 58 59 58 58 57 57 58 59 60
56 55 56 56 56 56 56 55 56 56 56 56 56 56 56 56 56 57 57 58 57 56 57 57 57 43 43 42 42 43 44 51 57 58 58 58 58 58 57 57 58 58
55 55 56 55 56 56 56 55 55 55 56 56 56 55 56 56 56 58 57 57 57 57 57 57 57 43 41 41 42 41 40 47 57 59 59 58 58 58 59 58 59 58
48 52 53 54 54 54 55 54 55 55 56 56 57 57 57 56 57 57 57 57 57 57 57 58 58 41 41 40 40 40 40 45 56 57 57 58 58 58 58 59 58 59
42 43 44 45 47 49 51 53 54 54 55 56 56 56 56 57 57 57 57 57 56 57 57 57 57 39 40 40 40 40 39 53 55 55 56 57 57 58 57 58 58 58
38 38 40 41 42 43 43 45 49 52 54 55 56 56 55 55 55 55 56 56 56 56 56 56 56 45 40 40 40 39 44 54 54 54 54 55 56 56 57 57 58 57
39 38 38 39 39 40 41 42 42 44 46 51 55 55 54 54 55 56 56 55 55 55 54 55 55 46 39 39 39 38 43 53 53 54 54 54 55 56 56 56 56 54
40 39 39 39 39 40 41 41 42 43 42 43 46 48 49 50 52 53 53 53 52 53 50 53 54 47 39 39 39 38 44 51 52 53 53 54 54 54 55 55 56 54
39 40 40 40 39 40 41 41 41 41 41 42 43 43 43 43 44 47 48 48 50 51 50 50 52 52 45 38 39 38 38 48 51 52 54 54 54 53 54 55 54 55

ECMWFNIL_sfc_dewp_072.txt.gz
Dewpoint
64 64 64 62 60 61 61 60 59 58 57 57 57 58 57 60 60 61 61 61 61 60 59 59 58 59 59 59 59 55 56 61 60 61 62 63 62 63 63 63 63 61
64 63 62 61 60 62 62 60 59 58 58 58 58 57 59 60 61 61 60 60 58 58 58 58 58 57 57 55 58 56 56 59 58 57 61 60 58 60 62 62 63 62
63 62 61 60 61 63 63 62 60 59 58 58 60 59 59 60 61 60 60 58 55 57 58 57 57 56 55 55 56 55 56 57 57 56 56 55 56 55 59 60 61 62
63 62 60 60 60 61 61 61 60 60 60 59 58 59 59 61 60 60 59 56 55 57 58 57 57 56 52 52 54 53 54 53 54 55 55 54 54 54 58 60 60 61
62 61 60 59 60 60 61 60 60 59 59 58 59 59 58 59 60 58 57 56 55 55 55 56 55 57 54 53 52 52 52 51 54 53 50 52 54 56 57 59 61 61
62 60 59 59 60 60 61 61 60 59 58 59 59 56 58 58 57 56 56 56 54 53 53 52 52 54 55 53 53 53 52 50 51 50 47 50 51 54 51 56 59 60
62 61 61 59 60 60 60 59 60 59 58 57 56 57 58 58 56 54 53 54 53 52 50 51 51 54 55 54 53 53 52 50 48 46 46 48 50 53 53 53 53 56
63 62 61 59 60 60 59 58 58 59 58 56 56 57 57 55 54 54 53 53 51 50 49 48 50 52 54 54 51 52 52 49 48 47 47 48 50 49 52 52 55 53
63 62 61 60 60 59 59 57 58 59 57 56 54 54 55 55 54 54 53 51 50 50 47 48 50 51 53 52 51 49 47 50 50 49 50 50 49 47 46 50 52 54
62 61 61 60 60 59 59 58 58 58 56 55 54 54 52 54 55 53 52 52 51 48 47 47 49 51 51 50 48 48 48 49 49 51 50 49 48 45 45 48 50 51
63 62 61 60 59 58 59 58 58 57 55 54 54 54 53 54 53 52 52 51 52 47 46 47 48 49 50 50 51 51 49 49 48 48 50 49 49 48 52 48 49 50
63 62 61 60 59 59 60 58 57 56 56 55 53 52 53 52 52 52 52 51 49 46 46 46 46 48 49 49 49 51 52 52 50 50 49 48 49 48 48 49 49 48
60 61 61 60 61 61 60 57 56 56 55 53 52 53 53 52 50 50 51 50 48 47 46 47 48 48 49 50 49 50 50 51 52 52 51 52 51 50 51 51 49 48
60 60 61 60 58 58 58 58 57 56 54 53 52 53 52 50 50 50 51 50 50 48 48 50 51 50 50 50 49 50 51 52 52 53 52 53 55 53 54 54 54 53
58 58 60 59 59 58 56 56 56 58 56 55 53 53 53 50 49 49 51 51 51 50 49 51 53 53 52 51 51 51 53 54 54 53 54 53 54 54 55 54 54 55
57 60 59 59 59 59 59 58 57 57 56 56 55 54 54 53 51 51 50 52 52 55 55 56 55 55 59 50 49 54 53 54 55 55 54 54 54 54 55 55 55 55
56 57 58 58 59 59 58 56 55 57 56 55 55 56 56 55 54 52 52 53 53 54 54 55 56 57 44 43 45 47 57 55 55 55 56 55 55 55 56 57 57 55
57 58 57 58 58 58 59 58 57 56 56 56 56 56 56 57 56 56 56 56 57 56 57 57 57 46 42 43 44 44 45 57 57 57 58 57 57 57 57 58 58 59
55 55 56 56 57 57 57 56 56 54 55 56 57 57 57 56 56 57 56 57 58 56 57 58 58 41 43 41 43 43 44 49 56 58 57 57 57 57 56 57 58 58
55 55 56 56 56 56 55 54 55 56 58 57 57 57 56 57 57 57 58 57 57 57 57 57 59 43 41 41 42 42 42 45 58 60 60 58 58 58 58 58 59 58
55 55 55 55 55 55 56 55 54 55 55 56 56 56 56 56 57 57 57 57 57 57 57 58 52 40 40 40 41 41 41 41 59 60 59 59 59 60 60 60 59 60
48 50 52 54 55 55 55 56 54 55 56 56 57 57 57 57 57 57 56 57 57 57 57 57 50 39 40 40 40 40 39 56 58 58 57 57 57 59 59 59 59 59
43 44 46 48 51 53 54 55 56 57 57 57 56 56 56 55 56 55 54 56 56 56 56 55 51 42 39 39 40 39 41 56 57 56 56 56 56 57 58 57 58 57
41 41 43 45 47 51 52 52 53 54 55 56 56 56 55 55 55 55 56 55 56 55 56 57 53 44 39 38 39 39 42 56 55 56 56 57 56 57 57 56 56 58
42 42 42 43 43 45 47 47 47 47 48 50 52 53 54 55 55 55 55 55 55 55 53 57 54 45 39 38 38 38 46 55 53 54 55 55 55 55 57 56 57 56
41 42 42 42 43 44 46 46 46 47 48 47 46 46 47 48 51 51 51 51 52 52 53 54 52 48 43 37 38 39 39 49 54 54 54 55 56 55 55 56 56 57

ECMWFNIL_sfc_dewp_075.txt.gz
Dewpoint
64 63 64 64 60 60 59 58 58 58 58 58 57 58 57 58 58 59 59 59 59 58 58 59 58 58 58 59 58 55 57 59 61 63 64 63 63 63 62 62 63 62
64 65 64 63 62 59 59 60 60 58 59 59 59 59 59 59 59 59 58 58 58 58 58 58 58 58 57 57 57 57 57 59 58 57 61 60 60 61 61 62 62 63
64 64 63 62 60 60 60 60 60 59 58 58 59 59 59 60 59 58 58 58 57 57 58 57 58 57 56 56 56 57 57 57 57 57 57 55 57 57 59 60 62 62
64 63 61 59 60 60 60 58 58 59 59 58 58 59 59 59 58 57 58 56 56 57 58 57 57 56 54 54 55 54 55 55 55 57 56 56 56 55 57 59 60 60
62 61 59 59 59 59 59 58 58 58 58 58 59 59 59 58 58 56 57 55 56 57 57 57 56 55 54 54 54 54 54 54 55 54 53 53 54 56 57 58 59 60
61 59 58 58 58 57 56 57 56 57 57 58 58 57 57 57 56 55 55 54 53 54 55 56 55 54 53 53 54 54 53 52 53 51 48 50 52 53 52 56 59 60
61 60 59 58 57 57 58 58 57 57 57 58 56 56 57 56 56 55 53 53 52 51 52 54 55 55 54 54 53 52 51 51 48 46 45 48 51 53 51 53 54 56
62 60 59 58 59 58 58 57 58 57 58 56 56 56 57 55 55 54 53 52 49 47 48 49 52 54 54 53 51 52 52 49 47 46 47 47 51 50 52 52 55 56
63 62 59 58 58 58 57 54 57 57 55 56 54 56 55 55 55 53 52 50 49 48 46 47 49 53 54 53 52 51 47 48 49 49 50 50 49 49 49 51 53 55
64 64 61 59 56 57 57 56 57 57 55 54 53 54 53 55 54 51 52 51 50 47 45 46 49 52 52 52 48 46 46 47 48 50 49 49 48 47 48 50 52 53
62 63 62 58 57 57 58 57 57 56 55 52 53 52 53 53 54 53 53 50 52 46 45 46 49 49 49 48 49 49 48 49 49 48 50 49 49 49 55 50 51 52
62 60 61 60 57 57 58 57 57 56 55 54 52 50 53 53 54 52 52 50 48 45 44 45 46 48 47 47 47 49 50 50 51 51 49 48 47 47 48 49 50 50
60 60 61 62 62 57 57 56 55 56 53 53 53 52 53 52 51 52 51 51 47 47 45 45 46 48 49 49 49 49 49 49 50 50 49 50 49 48 48 49 48 48
61 62 62 61 61 59 57 56 56 56 54 53 52 52 52 48 49 51 51 50 48 47 45 46 47 47 48 49 48 49 50 51 50 51 51 52 53 52 52 52 51 49
60 62 61 61 60 59 58 56 55 56 54 52 52 53 52 50 48 48 48 46 48 48 46 49 50 50 49 49 49 47 50 50 51 51 52 53 53 54 53 53 52 54
60 59 60 60 59 59 59 58 56 55 54 52 51 51 50 50 48 48 48 51 50 49 51 53 52 57 50 45 46 56 53 51 53 53 52 53 53 54 53 53 53 54
59 58 58 57 58 59 59 59 58 58 57 56 54 52 52 50 49 48 49 50 52 54 55 55 56 56 42 40 42 43 57 55 52 53 52 53 54 55 55 54 55 53
60 59 58 57 57 56 57 57 57 56 56 57 57 57 56 55 53 51 51 52 51 51 54 54 59 42 41 41 41 41 44 55 56 54 55 55 54 54 54 55 56 57
59 59 59 60 59 58 57 57 56 57 57 57 57 58 57 56 55 56 57 57 56 54 54 55 58 41 41 42 42 42 43 48 54 55 55 55 55 55 54 54 55 55
58 58 58 58 58 58 57 57 57 57 58 59 60 59 57 57 57 58 58 58 58 57 58 59 53 42 40 41 42 41 42 43 56 55 57 56 54 54 55 55 55 55
58 58 58 58 58 57 56 55 56 56 57 58 59 60 60 57 58 57 57 57 56 56 57 55 49 39 39 39 40 40 39 42 57 58 57 58 58 60 58 57 57 56
57 57 55 55 56 55 55 56 56 55 55 54 55 57 57 58 57 57 57 57 57 57 57 52 49 38 39 39 39 39 39 52 57 58 58 56 55 56 57 58 57 57
50 53 57 57 57 56 56 57 58 55 55 54 53 54 54 56 56 57 57 57 57 56 56 53 51 41 38 39 39 38 43 53 57 56 55 55 55 59 60 57 58 56
47 48 52 55 54 53 54 57 58 59 60 58 54 53 54 55 55 57 56 57 56 57 56 52 49 42 38 38 38 38 40 51 55 55 55 57 57 58 56 56 55 59
44 45 46 48 49 50 52 54 53 54 57 59 59 58 55 55 55 55 55 55 54 56 54 52 49 44 38 37 38 37 41 48 52 53 55 55 52 53 56 56 54 57
43 44 44 45 46 47 48 52 51 51 51 54 58 58 58 54 57 54 53 53 54 55 54 51 48 45 40 37 37 37 37 43 49 54 56 56 55 54 55 56 58 57

ECMWFNIL_sfc_dewp_081.txt.gz
Dewpoint
62 63 63 63 63 63 62 61 61 61 61 61 61 61 61 61 62 61 61 60 60 60 59 58 58 58 59 59 60 59 61 62 62 62 62 62 62 62 61 61 61 61
60 62 63 63 62 62 62 62 62 61 61 61 61 61 61 61 60 59 59 60 59 58 58 58 59 59 58 59 60 60 60 61 61 63 62 61 61 62 61 61 61 61
62 60 61 62 62 62 61 62 61 61 61 61 60 60 60 59 59 58 59 58 57 57 57 58 58 58 59 59 59 59 60 60 60 60 61 61 61 61 61 61 61 60
62 61 61 61 61 62 63 61 61 61 60 59 59 59 59 59 58 60 60 59 57 57 58 58 58 59 57 59 59 58 59 59 59 59 59 59 60 61 61 62 61 60
63 62 61 62 63 62 61 59 59 59 59 59 59 59 59 59 59 58 57 57 57 58 58 58 58 57 57 58 57 57 58 58 58 58 57 57 58 60 60 61 61 60
62 62 62 62 62 60 58 58 58 59 59 58 58 59 59 57 57 57 57 57 57 57 57 57 56 56 58 57 57 56 55 55 55 57 57 57 57 58 60 60 60 60
61 61 61 61 62 61 58 58 58 59 59 59 58 58 58 55 55 56 56 57 57 57 57 55 54 56 56 55 54 53 54 55 55 55 53 54 55 56 58 59 59 60
61 61 61 60 60 60 58 58 58 59 59 58 57 58 57 54 54 55 56 56 56 56 56 55 54 56 55 54 54 55 55 55 52 53 52 53 53 56 56 58 58 58
61 60 60 60 60 59 58 58 59 58 58 58 57 57 58 54 54 55 55 55 55 55 56 55 55 55 55 56 54 51 50 50 54 51 49 52 54 55 56 57 58 58
60 60 60 60 60 59 58 58 58 57 58 57 56 57 58 55 54 55 54 53 54 54 54 55 56 54 55 53 52 51 49 51 52 50 51 53 53 54 57 58 58 58
59 60 60 60 60 59 57 57 56 56 57 56 56 57 56 54 55 55 53 51 52 52 52 54 55 54 55 52 51 51 51 52 50 53 53 53 54 55 58 56 57 57
59 59 59 60 60 58 57 56 55 56 57 57 56 57 54 53 54 54 53 50 49 49 51 54 53 54 51 50 50 52 53 52 53 53 51 52 54 55 55 56 56 56
59 58 59 59 60 58 57 56 55 56 56 56 57 56 53 53 54 53 53 50 50 50 52 52 53 53 50 49 51 54 54 54 53 52 53 54 51 52 55 56 56 55
58 59 60 59 59 57 57 56 55 56 55 55 56 54 54 54 54 53 54 50 51 49 53 54 53 52 52 51 53 54 53 54 54 53 53 54 54 54 53 53 54 53
59 59 59 59 58 58 57 56 55 56 55 55 54 54 56 54 54 52 53 51 53 53 52 52 51 50 49 49 53 53 53 53 53 53 54 54 54 54 55 55 55 54
59 59 59 58 58 57 56 55 56 56 55 54 53 54 53 53 52 53 52 53 53 52 51 51 50 49 46 43 48 55 56 56 55 54 53 54 55 54 55 56 56 56
58 58 58 57 57 57 57 57 57 56 53 53 55 55 52 51 51 53 54 54 53 51 50 49 47 45 42 40 42 48 54 55 55 56 56 56 54 54 54 55 57 58
58 57 57 56 57 56 57 56 57 56 56 56 56 56 56 56 57 56 55 54 53 51 50 48 45 42 40 41 41 44 50 55 56 56 56 56 56 56 56 56 57 57
58 57 56 56 55 56 55 56 56 56 56 56 56 56 56 56 57 56 54 53 51 50 49 47 45 40 40 41 41 42 47 53 55 56 56 56 56 57 57 57 57 56
57 56 55 55 55 55 55 54 55 55 56 57 56 55 55 56 56 56 55 53 51 49 47 46 43 40 39 40 41 42 46 52 57 57 57 57 57 57 57 57 56 56
56 55 55 55 55 54 54 54 54 55 55 56 57 57 56 54 55 55 54 52 51 49 46 44 41 38 38 39 40 43 46 51 56 57 58 58 57 56 57 57 57 56
56 55 55 55 54 54 54 54 54 54 55 55 56 57 57 56 56 56 54 53 51 46 42 41 40 37 38 38 40 43 47 54 56 56 57 57 57 57 57 56 56 56
53 55 55 55 54 53 53 53 54 54 55 56 56 57 56 56 56 55 53 50 47 44 41 41 40 39 38 38 39 42 47 52 54 55 56 56 56 57 57 57 57 56
51 51 52 53 54 55 55 55 55 55 55 55 55 55 55 55 53 50 48 46 44 42 41 40 39 39 38 38 40 41 46 51 52 53 53 55 56 56 54 51 49 52
51 51 51 51 51 53 54 55 55 55 55 55 55 55 55 54 52 49 47 45 43 42 43 40 39 39 38 38 39 40 44 45 46 46 47 48 53 54 52 48 45 44
44 50 51 50 50 50 52 53 54 55 54 54 54 54 53 52 50 48 47 47 46 43 42 40 39 38 38 37 38 39 40 42 43 43 44 46 48 52 52 48 46 43

ECMWFNIL_sfc_dewp_084.txt.gz
Dewpoint
61 62 62 62 62 62 61 61 60 60 60 60 60 60 61 62 62 62 61 61 61 61 61 60 61 61 62 61 61 62 62 61 61 60 61 61 60 60 60 59 58 59
61 61 61 62 62 62 61 61 61 60 60 60 60 61 61 61 61 61 60 60 59 59 59 59 59 60 60 60 60 60 59 60 60 62 61 60 60 60 60 59 59 58
61 61 61 61 61 61 61 61 61 60 60 60 60 60 60 60 59 59 59 58 57 57 57 58 58 59 59 59 60 60 60 59 60 60 61 60 60 60 59 59 59 60
60 60 61 61 61 62 61 61 60 60 60 60 60 60 59 59 58 58 58 59 56 56 57 57 58 58 59 59 59 59 59 60 60 60 60 59 60 60 60 59 58 58
60 61 61 61 61 61 61 61 60 60 60 60 59 58 58 58 58 57 56 56 56 56 56 57 57 58 58 58 58 58 57 58 58 59 59 58 58 60 59 60 59 58
61 61 61 61 61 61 61 60 60 60 59 58 58 58 58 57 56 56 56 56 56 56 56 56 57 56 57 57 57 57 57 58 57 57 58 58 58 58 61 60 59 58
61 61 61 61 61 61 60 60 60 60 59 58 58 57 57 56 56 56 56 56 56 56 56 54 55 55 56 56 56 56 55 55 55 56 57 56 57 56 59 60 59 58
61 61 61 60 60 60 60 60 59 59 59 58 57 57 56 56 55 56 56 56 56 56 55 54 55 56 55 55 55 54 53 54 54 54 54 55 54 56 57 59 58 58
60 60 60 60 59 59 59 59 58 58 58 57 56 55 55 55 55 56 56 56 56 55 54 54 55 54 53 53 54 53 53 52 53 52 53 53 54 56 57 57 57 57
60 60 60 59 59 58 58 58 58 58 58 57 56 55 54 55 55 55 55 55 55 55 54 54 54 54 54 52 52 51 49 50 52 51 52 53 55 56 57 57 57 56
59 59 59 59 59 59 59 58 58 57 57 57 56 55 54 54 55 55 55 54 55 54 54 54 54 53 52 50 51 50 51 52 51 52 53 54 55 56 59 57 57 56
58 58 59 59 59 59 59 58 57 57 57 56 56 55 54 54 54 54 54 54 54 54 54 55 54 53 52 50 50 52 52 51 51 52 53 54 55 57 57 57 57 56
57 57 57 58 59 59 58 58 57 57 56 56 56 55 54 54 54 53 53 53 53 53 54 54 53 52 51 50 52 52 52 52 52 52 54 54 54 55 55 55 55 55
56 57 57 58 58 58 57 56 56 56 56 56 56 54 53 53 53 52 51 51 52 53 52 52 50 50 51 52 53 53 52 52 52 52 53 53 54 54 53 53 52 52
57 57 58 58 58 58 58 56 56 56 56 56 54 53 54 54 53 52 52 52 52 51 50 50 50 49 49 49 53 53 52 52 53 53 54 54 54 53 53 53 53 53
57 57 58 57 57 57 57 56 55 55 55 55 54 54 54 53 53 53 52 51 50 50 49 49 49 48 47 46 50 54 54 54 54 54 54 54 53 54 55 55 56 56
57 57 57 57 57 57 56 55 55 55 54 54 54 53 53 53 52 51 51 50 49 48 48 47 47 46 42 43 48 50 55 55 54 54 54 54 54 55 55 55 55 56
56 56 56 56 56 56 56 56 55 54 54 54 54 54 54 53 52 51 50 50 49 48 48 47 45 43 40 43 46 48 51 55 55 55 55 55 55 55 55 55 55 56
55 55 55 55 55 55 55 55 55 54 55 55 55 54 53 52 51 50 50 49 48 46 45 45 44 40 41 43 45 46 48 52 55 55 55 55 55 55 55 55 54 55
55 54 53 53 54 55 55 55 55 55 55 55 55 54 53 52 51 50 49 47 46 45 43 43 42 41 40 44 46 46 48 51 55 54 55 56 56 56 55 55 55 55
54 53 53 53 53 54 54 54 54 54 54 55 55 54 53 52 50 49 48 46 45 44 43 42 41 39 39 43 46 46 47 50 55 55 55 55 55 55 55 56 56 56
54 53 53 53 53 53 53 53 53 53 55 55 55 55 54 52 50 48 46 44 43 43 43 42 42 39 39 41 44 46 49 56 56 56 56 56 56 56 56 55 56 56
52 53 53 53 52 53 53 53 53 53 54 54 54 52 51 49 47 45 44 44 44 44 43 42 41 39 39 40 42 47 50 56 56 56 56 55 54 51 49 49 51 51
51 52 52 52 53 52 53 53 53 53 54 54 52 50 49 48 46 45 45 44 43 43 41 40 40 39 38 39 40 42 48 54 54 55 54 52 49 46 45 44 46 49
49 50 51 51 52 53 53 53 53 54 54 53 52 50 49 48 47 45 45 44 44 43 42 39 39 39 38 38 39 40 44 48 50 52 52 50 47 46 45 44 43 43
41 44 47 50 51 52 52 53 53 53 53 52 50 50 48 47 46 45 44 44 43 39 39 39 39 39 39 38 39 39 41 45 46 49 50 50 48 44 43 42 43 42

ECMWFNIL_sfc_dewp_087.txt.gz
Dewpoint
62 61 61 61 62 62 62 62 62 62 62 62 62 60 61 61 61 62 61 61 61 61 60 61 61 61 62 62 62 62 61 61 60 60 60 60 59 58 59 58 57 58
62 62 62 62 62 62 62 62 61 61 61 61 61 60 59 60 60 61 60 60 61 60 59 60 60 61 61 61 60 61 59 60 60 61 60 59 58 59 58 58 58 56
61 61 62 62 62 61 61 61 61 60 60 60 60 60 60 60 60 60 60 60 60 59 59 59 59 59 60 60 60 60 60 59 59 59 59 59 58 59 58 58 57 58
61 61 61 62 62 61 61 61 60 60 59 59 59 60 61 60 60 59 59 61 58 58 58 58 59 59 59 59 59 58 58 59 59 59 58 58 59 59 58 58 57 57
60 61 61 61 61 61 60 60 60 60 60 60 60 59 60 59 59 58 57 56 56 56 57 57 58 59 58 58 58 57 57 57 57 59 59 58 57 58 58 58 58 58
61 61 61 61 61 61 60 60 60 60 60 59 59 58 58 58 58 57 56 55 55 56 56 56 57 57 58 58 57 58 58 58 57 58 58 58 57 57 60 58 58 57
61 61 61 61 60 61 60 60 60 60 60 59 59 59 59 57 56 56 55 56 56 56 56 56 56 56 56 57 57 56 56 57 56 57 58 56 57 56 58 58 58 57
60 61 61 60 60 60 60 60 59 59 59 59 59 59 59 58 56 56 56 56 56 55 55 55 56 56 55 55 56 55 53 56 56 55 55 54 55 56 56 59 57 57
61 61 60 60 59 59 59 60 59 59 59 59 59 59 58 57 57 56 56 56 55 54 54 54 55 55 54 55 54 54 53 52 54 54 54 54 54 56 57 56 56 56
60 60 59 59 59 59 59 59 59 59 59 59 59 58 58 56 56 56 55 55 55 53 53 54 54 54 53 53 54 53 52 52 51 52 53 54 55 55 56 56 56 55
58 59 59 58 57 57 58 58 58 59 58 58 57 57 56 55 56 55 55 55 54 53 53 53 54 54 53 51 51 51 51 50 51 51 52 54 54 55 59 56 56 55
58 58 58 58 58 58 58 59 58 58 57 57 56 55 55 55 55 55 55 54 54 54 54 53 53 52 51 50 50 50 50 49 50 51 52 52 53 55 55 55 55 55
57 57 58 58 58 59 59 59 58 58 58 57 56 55 54 54 54 54 54 54 54 54 54 53 52 51 50 49 50 50 51 50 51 52 53 54 53 54 54 54 54 54
56 57 57 57 58 58 59 59 58 58 58 58 57 54 54 54 54 54 53 53 53 52 52 51 50 49 50 51 51 51 51 51 52 53 53 53 52 52 52 52 52 52
56 57 57 57 57 57 57 58 58 58 58 57 56 54 54 53 53 52 52 51 50 50 49 49 49 49 49 48 51 51 52 52 53 54 53 52 52 52 52 52 52 52
56 57 57 57 57 57 56 57 57 57 57 56 54 54 53 52 52 52 51 50 49 49 49 49 48 48 49 46 49 52 53 53 54 53 53 53 53 54 54 55 55 55
57 57 57 57 57 56 55 56 55 55 55 54 53 53 52 52 51 50 50 49 49 48 47 47 47 47 43 44 48 49 53 53 53 53 53 53 54 54 54 54 54 55
56 56 56 56 56 56 56 55 55 55 54 53 52 51 51 50 50 49 49 49 48 47 47 46 46 45 42 47 47 47 50 53 53 53 54 54 53 54 53 53 53 54
55 55 55 56 55 56 55 55 54 54 54 52 51 51 50 50 49 49 48 48 47 47 46 46 45 43 43 45 45 45 47 52 54 54 54 54 54 54 53 53 52 52
53 53 53 54 54 54 54 54 54 54 53 52 51 50 49 48 47 47 46 46 46 46 46 45 45 43 43 44 45 46 47 50 55 55 54 54 54 54 53 54 54 54
53 53 53 53 54 53 53 53 53 53 52 51 50 50 48 47 46 45 45 45 45 46 46 45 43 39 43 44 45 46 47 49 54 54 54 54 55 54 54 54 54 54
53 52 52 52 53 53 53 53 53 53 52 51 51 49 48 46 45 45 45 45 45 45 44 43 42 38 39 43 45 45 48 54 55 55 54 53 51 51 52 53 53 53
52 52 52 52 52 53 52 51 52 51 50 49 47 46 46 45 44 44 44 44 43 43 43 41 41 39 38 40 46 47 50 55 55 53 51 49 47 47 47 48 48 48
51 52 52 52 52 52 52 52 51 50 49 48 46 45 44 45 45 44 43 43 43 42 42 42 41 40 38 39 41 47 51 55 54 50 47 46 45 44 44 45 47 48
45 49 51 51 52 52 52 51 50 49 49 48 46 45 44 44 44 43 43 43 43 43 44 42 42 41 38 38 39 43 50 53 51 49 45 44 43 43 43 43 42 43
42 44 46 49 51 51 52 51 50 49 48 47 46 46 45 44 44 43 42 42 43 43 42 42 42 41 40 38 39 41 44 50 50 46 44 42 41 40 41 41 42 41

ECMWFNIL_sfc_dewp_093.txt.gz
Dewpoint
62 62 62 62 63 63 63 63 63 63 62 63 62 63 64 64 64 63 63 65 65 65 64 64 64 64 64 64 65 64 63 64 63 63 64 64 65 64 63 63 63 63
62 62 62 63 62 63 63 64 63 63 63 64 63 63 63 64 64 63 63 63 64 64 64 64 64 64 64 63 64 63 63 63 63 63 63 63 63 63 64 64 63 63
62 62 62 62 62 62 63 63 63 64 63 64 63 63 63 63 63 63 63 64 64 64 64 64 64 64 64 64 64 64 63 64 64 63 63 62 63 62 64 64 63 62
61 62 62 62 63 62 62 63 63 64 64 63 63 63 64 64 63 64 64 65 64 64 64 64 64 64 63 64 64 64 63 64 64 64 64 64 63 63 64 64 64 62
61 61 62 62 63 62 62 62 62 63 63 63 63 63 63 63 64 63 63 64 64 64 64 64 64 63 63 64 63 63 62 63 63 64 63 63 63 64 64 64 64 64
61 61 61 61 62 62 62 62 62 62 63 63 63 63 63 64 64 63 63 63 63 63 63 63 62 63 63 63 63 62 62 62 63 64 63 64 64 64 62 63 64 63
62 61 62 62 63 63 63 62 62 62 62 63 63 63 63 63 63 63 63 63 62 62 62 63 63 62 63 62 62 62 63 63 63 63 62 63 63 64 63 63 62 62
61 61 61 61 62 62 62 62 62 62 62 62 63 63 63 63 62 63 62 63 62 62 63 63 63 62 62 62 62 62 64 64 64 63 62 63 64 63 63 63 64 63
61 62 62 62 62 63 62 62 62 62 63 63 63 63 62 62 62 63 62 62 62 62 62 62 62 62 63 63 63 62 62 63 64 62 62 63 63 63 62 62 63 63
61 61 61 62 61 63 62 63 62 62 62 63 63 63 62 62 62 61 61 61 61 61 61 62 62 63 63 63 63 62 62 62 62 63 62 62 62 62 62 62 63 63
59 60 61 61 61 62 62 62 62 62 62 61 62 61 61 61 61 59 60 60 61 60 60 61 61 62 62 62 63 63 62 62 62 61 62 62 63 63 63 62 63 62
59 60 60 60 61 61 62 62 61 62 61 62 61 60 60 60 59 59 60 60 59 58 59 60 60 61 61 61 60 62 62 63 62 62 62 61 62 62 62 63 62 62
58 59 60 61 61 61 61 61 61 61 61 61 60 59 59 59 59 58 58 58 57 58 59 60 60 60 61 61 60 60 61 61 61 61 61 61 61 61 62 62 62 62
58 59 59 60 61 61 61 61 61 61 61 60 60 59 59 58 58 58 57 57 57 57 58 59 60 59 59 59 59 59 59 59 59 60 59 60 61 61 61 61 62 62
57 58 59 59 60 60 60 60 60 60 60 60 60 60 60 58 59 59 57 55 55 56 55 57 58 59 58 59 58 57 58 58 58 58 59 59 59 59 59 59 60 60
56 58 58 59 59 59 59 60 60 60 59 59 59 59 58 58 56 57 55 55 55 55 56 57 57 57 52 50 52 56 57 57 59 59 58 59 59 58 58 58 58 57
55 57 58 58 58 58 59 59 59 59 59 59 59 59 58 57 56 54 54 54 54 54 55 55 55 51 43 41 47 50 57 58 58 58 59 59 58 58 57 57 56 54
54 55 56 57 57 57 56 57 57 57 57 56 57 57 56 56 56 53 52 53 54 54 55 55 54 45 41 42 46 48 52 58 59 58 58 58 58 57 56 57 57 58
53 54 55 55 56 57 56 55 56 55 55 55 55 54 53 53 52 53 53 54 54 53 53 53 52 41 42 43 45 46 49 54 57 58 58 58 58 57 57 57 58 58
53 53 53 54 54 54 54 54 53 53 53 53 52 52 52 52 52 53 52 53 53 53 52 52 51 43 42 44 45 45 47 52 57 58 58 58 58 58 59 59 59 58
52 51 51 51 51 51 51 51 51 51 50 50 50 49 49 49 50 49 49 49 50 52 52 52 49 40 41 42 43 46 48 51 58 59 58 59 59 59 59 59 59 59
51 51 50 49 49 49 49 48 48 48 48 49 48 48 48 49 49 49 47 47 48 50 50 51 49 40 41 41 43 45 49 57 58 58 57 56 56 56 56 56 56 57
50 50 49 48 47 47 47 47 47 47 47 48 47 47 47 46 46 46 47 47 47 48 49 48 47 42 41 42 43 46 50 55 55 54 54 53 53 53 52 52 52 52
49 48 48 47 46 46 46 47 47 47 47 47 46 46 45 45 45 45 44 44 45 46 46 47 46 42 40 41 43 43 47 50 49 48 47 46 46 47 47 47 47 49
48 48 47 46 45 46 46 46 46 46 46 46 46 46 45 45 45 44 43 43 43 43 45 45 44 42 39 40 41 43 50 52 50 49 46 45 45 47 46 46 46 45
47 47 46 46 45 45 46 46 46 45 45 45 45 45 44 44 44 43 42 42 42 42 41 42 43 42 40 38 40 41 45 51 50 49 47 48 50 50 49 49 47 45

ECMWFNIL_sfc_dewp_096.txt.gz
Dewpoint
62 63 63 62 61 62 63 63 63 62 62 63 63 63 63 64 64 64 65 65 64 64 66 65 65 65 65 65 65 66 65 65 66 65 65 65 65 64 63 64 63 64
63 63 62 62 62 62 62 63 64 63 62 64 64 63 64 64 64 64 65 64 64 64 65 65 65 64 65 64 66 65 66 65 65 64 64 64 64 64 63 62 64 64
62 63 62 62 62 63 63 63 64 64 63 63 64 64 64 64 64 64 65 64 64 64 65 65 65 65 65 64 64 65 64 65 65 65 65 63 64 64 64 64 64 66
61 62 62 62 63 63 64 63 63 63 63 64 63 64 64 64 64 64 64 63 63 64 64 64 64 66 64 65 65 64 65 66 65 64 64 64 64 64 64 64 65 64
61 61 61 62 62 63 64 64 63 63 63 64 64 64 64 64 63 63 64 64 65 65 65 64 64 65 65 65 64 65 64 64 63 63 62 63 65 64 65 64 63 64
61 60 60 61 61 62 63 62 62 63 63 64 65 64 64 63 63 63 64 64 64 65 65 64 64 64 64 64 65 64 65 63 64 64 63 62 63 64 63 63 63 64
61 62 63 63 63 62 62 63 62 63 63 64 63 64 63 63 63 63 63 63 64 64 63 64 63 64 64 64 63 63 63 63 63 63 62 63 63 63 62 61 61 62
61 61 62 62 63 63 62 62 62 63 63 63 63 63 63 63 62 63 63 63 62 62 63 62 63 63 64 63 64 64 64 63 64 63 62 62 64 60 61 60 61 59
61 61 61 62 64 63 62 62 63 64 63 63 62 63 64 64 64 64 63 63 63 64 63 63 62 63 64 64 63 63 62 63 62 62 62 61 62 62 60 60 60 60
60 60 61 62 62 63 63 63 64 64 63 63 62 64 64 64 63 62 63 63 62 62 62 62 63 65 64 62 63 63 63 63 61 60 60 62 62 61 61 61 61 61
60 61 61 61 62 63 63 64 64 64 63 61 63 64 63 63 63 63 63 62 63 62 63 62 63 62 62 63 62 62 59 57 56 56 58 59 61 62 62 62 62 61
59 60 60 61 61 62 63 63 64 63 62 63 62 62 62 63 62 61 62 62 62 62 62 61 61 62 61 60 60 59 58 58 57 57 58 57 61 61 60 61 62 61
58 60 60 60 61 62 63 62 62 62 62 62 62 63 62 63 62 61 62 62 62 62 62 62 62 61 62 60 59 58 57 57 58 58 58 58 58 60 61 62 62 61
57 59 60 61 60 60 61 62 63 62 62 62 62 62 62 62 62 62 62 61 61 61 62 63 62 60 60 59 57 57 56 57 58 59 58 58 59 60 61 62 62 62
57 58 60 60 60 60 60 61 61 61 61 62 62 63 62 61 61 61 60 59 60 62 60 61 61 61 59 58 57 55 55 57 57 57 56 57 58 58 60 62 62 63
56 57 58 58 59 60 59 60 60 60 61 61 61 61 61 61 60 61 60 60 60 60 58 60 61 60 51 46 47 55 55 55 57 56 55 56 56 56 58 60 63 62
55 56 56 57 58 58 58 59 59 59 59 60 60 60 60 60 61 59 60 60 59 59 59 57 58 52 43 42 45 50 54 56 55 55 54 54 55 56 58 60 60 58
53 54 54 55 56 56 56 57 57 57 57 58 58 58 58 58 59 58 59 59 59 58 58 58 56 44 41 43 46 49 53 56 55 54 55 55 55 55 57 58 58 58
52 51 51 51 52 53 54 54 54 53 54 54 55 55 56 56 55 57 57 57 58 56 55 55 54 41 42 43 46 47 51 53 52 55 54 55 56 55 55 57 58 58
51 50 49 49 50 50 51 50 51 51 52 53 53 53 53 53 52 53 54 55 56 55 54 53 51 43 40 42 45 47 47 49 53 57 57 57 57 58 59 58 58 58
50 49 48 48 48 49 49 49 49 49 49 49 51 51 50 50 51 51 51 53 54 55 53 52 48 40 40 41 43 46 48 52 61 61 60 60 59 59 59 58 57 58
49 48 48 47 47 48 48 48 48 49 48 49 49 49 49 50 49 50 50 50 52 52 52 51 48 40 41 41 42 46 49 59 60 59 59 58 58 57 58 58 58 60
48 47 47 47 47 47 47 48 48 48 48 49 48 48 47 47 47 47 48 48 48 49 49 48 47 41 39 41 42 44 52 58 57 56 55 54 53 52 51 50 50 52
47 47 47 46 46 46 46 47 47 47 47 47 47 47 46 46 46 46 46 46 46 46 46 46 45 42 38 40 41 44 49 54 52 52 51 49 49 50 49 48 47 47
47 47 46 46 46 46 46 46 46 46 46 46 46 46 46 46 45 45 45 44 44 44 45 45 44 42 38 39 41 43 50 52 51 50 51 51 50 51 51 50 49 45
47 47 46 45 45 45 45 45 45 46 46 45 45 44 44 44 45 44 44 44 44 43 43 43 44 43 40 38 39 41 45 52 51 51 50 50 50 51 51 51 49 48

ECMWFNIL_sfc_dewp_102.txt.gz
Dewpoint
63 63 63 62 62 62 62 62 62 62 63 63 64 64 65 64 64 64 64 64 65 64 65 65 65 65 65 65 65 65 65 65 65 65 64 64 63 64 63 63 63 64
63 63 63 63 62 62 63 63 63 64 64 64 65 65 64 64 64 64 63 64 64 64 64 65 65 65 64 64 66 65 65 64 63 64 64 63 63 64 63 63 63 64
62 62 62 63 62 62 63 63 63 64 64 63 64 64 64 64 64 64 64 63 64 64 64 65 65 65 64 65 64 65 64 64 64 64 64 63 63 63 63 64 63 64
61 61 61 61 62 62 63 62 63 63 63 63 63 63 63 63 63 63 64 63 63 64 64 64 64 64 65 65 65 64 64 64 64 64 63 63 63 63 63 63 63 64
60 61 61 61 62 62 63 63 63 64 64 64 64 64 63 63 63 62 62 63 64 64 64 63 65 64 63 64 65 64 64 64 64 63 62 62 63 63 63 63 63 63
60 59 60 61 61 62 62 62 62 62 63 63 64 64 64 63 63 62 63 63 63 63 64 64 64 65 65 65 64 64 64 63 63 63 62 61 63 64 65 64 63 63
59 60 61 60 61 62 62 62 62 63 63 64 64 64 63 63 63 63 63 63 62 63 64 63 63 64 64 64 64 63 63 62 63 62 62 63 63 63 64 64 64 63
59 59 60 61 62 62 62 62 62 63 63 63 63 63 64 64 63 63 63 63 64 63 63 63 63 64 63 64 63 63 63 64 63 62 63 62 62 62 63 64 64 63
59 59 60 61 62 62 62 63 62 62 63 63 63 63 64 63 64 64 64 63 62 63 61 62 62 63 63 63 63 63 63 63 63 63 62 62 61 61 61 63 63 61
58 59 61 61 61 61 61 62 62 63 63 63 63 63 63 63 64 63 63 63 63 63 63 63 62 63 63 63 63 63 63 63 63 62 62 63 63 62 62 62 61 61
58 59 60 60 60 61 61 61 62 62 62 62 63 62 62 63 63 63 63 63 63 63 63 63 63 62 63 62 63 63 63 63 63 63 63 63 62 62 62 61 61 61
57 57 57 57 58 58 59 60 60 60 61 62 62 62 62 63 63 63 63 63 63 63 63 62 63 64 63 62 62 63 63 63 64 63 63 63 63 63 62 63 62 62
55 55 55 55 56 56 57 57 57 59 60 60 62 62 62 62 62 62 62 63 62 62 62 63 62 60 61 62 62 62 63 63 63 63 63 63 62 62 62 62 62 62
54 54 54 54 55 54 55 55 55 56 56 57 59 61 61 62 61 62 62 62 62 62 61 59 57 55 53 52 55 61 62 62 63 62 62 62 62 62 62 62 62 62
53 53 53 53 52 53 53 53 53 53 54 55 56 58 60 61 61 61 61 61 61 60 57 55 53 52 49 48 50 54 60 61 61 60 60 60 61 62 62 62 63 63
51 52 51 52 52 52 51 51 51 52 52 52 53 54 55 57 58 59 58 56 56 56 55 53 51 48 46 44 45 48 53 59 61 60 59 60 61 61 62 63 62 61
51 50 51 51 51 51 51 51 50 51 51 51 51 51 52 53 55 56 55 55 54 53 52 52 49 44 42 41 41 43 50 58 62 61 59 60 60 60 61 62 61 60
50 50 50 50 50 50 50 50 50 50 50 50 50 50 50 50 51 52 53 53 52 52 51 50 48 43 40 41 42 43 46 58 58 58 59 60 62 61 60 61 61 60
49 49 49 50 50 50 50 49 49 49 49 49 49 50 50 49 49 49 50 51 50 50 49 48 46 41 40 42 44 47 49 54 58 59 59 57 57 58 59 61 61 61
49 49 49 49 49 49 49 48 48 48 48 48 48 48 48 48 48 48 48 49 49 49 48 47 44 41 40 42 43 45 48 52 56 55 55 54 52 52 52 55 60 60
48 48 49 49 49 49 48 48 48 47 47 47 47 47 47 47 47 46 46 47 48 49 47 46 43 39 40 41 42 44 47 50 55 55 54 53 52 50 49 49 53 59
48 48 48 48 48 48 47 47 47 47 46 46 46 47 47 46 46 45 44 44 45 46 47 45 44 39 39 40 41 42 48 54 55 55 55 53 51 49 48 47 48 51
47 47 47 47 47 47 46 46 46 47 47 47 46 45 47 46 44 44 44 43 43 44 44 44 43 40 38 39 41 42 49 54 53 54 53 52 51 50 49 47 46 47
46 46 46 46 46 46 46 46 46 46 46 46 45 45 44 44 44 44 43 43 43 43 43 43 43 41 38 39 40 41 47 51 52 52 51 51 50 50 49 48 47 45
45 45 44 43 43 43 44 44 46 46 45 45 45 44 43 43 43 42 42 43 43 43 44 43 44 42 39 38 39 40 46 52 51 50 49 49 49 49 48 48 47 45
44 43 42 41 40 40 41 41 42 42 43 43 43 42 42 42 41 41 41 41 42 43 43 43 43 43 40 38 39 39 41 49 50 49 48 48 47 47 46 46 46 45

ECMWFNIL_sfc_dewp_105.txt.gz
Dewpoint
61 61 61 61 62 61 61 62 61 61 62 62 62 62 62 63 63 63 62 62 62 62 63 63 63 63 63 63 63 64 64 63 63 64 63 62 62 62 62 62 62 63
60 60 61 61 61 61 62 61 61 61 62 61 62 62 62 62 63 63 63 63 62 62 62 62 63 63 63 63 63 63 64 64 63 64 63 62 62 62 62 62 62 63
59 60 60 60 60 61 61 62 61 61 62 62 62 62 62 62 62 62 63 63 62 62 62 62 63 63 62 62 62 63 63 63 63 63 64 63 63 62 62 62 62 62
59 59 60 60 60 61 61 61 61 61 62 62 62 62 62 62 62 62 62 62 62 62 62 62 62 62 62 62 62 63 63 63 63 63 62 62 62 62 62 63 62 62
58 59 59 60 60 61 61 61 61 61 61 62 62 62 62 62 62 62 61 61 61 62 62 61 62 62 62 62 63 63 62 62 62 63 62 61 62 62 62 62 62 62
58 59 59 60 60 61 61 61 61 61 61 61 62 62 62 62 62 62 62 62 62 62 61 61 62 62 62 62 62 62 61 61 62 62 61 61 61 62 62 62 62 62
58 58 59 60 61 61 61 61 61 61 62 62 62 61 62 62 62 62 62 62 62 62 62 62 61 60 61 62 62 61 61 61 62 61 61 61 61 61 62 62 62 62
58 58 58 59 60 60 60 60 60 61 62 61 61 61 62 62 62 62 62 63 62 62 60 61 61 62 62 61 61 61 61 61 60 60 61 61 61 60 62 62 62 62
56 56 56 57 57 58 58 59 60 61 61 61 61 61 62 62 62 62 62 62 62 61 60 60 60 61 61 61 61 61 61 60 61 60 60 59 60 60 62 62 62 62
55 55 55 55 55 55 56 56 57 58 60 60 61 61 61 62 62 62 61 61 62 62 61 61 61 61 62 62 62 62 61 62 61 61 61 61 61 61 61 61 61 60
53 54 54 54 54 54 54 54 54 55 56 58 59 61 61 61 61 61 61 60 59 60 59 57 57 59 61 61 61 61 61 61 61 61 60 61 60 61 61 61 61 60
53 53 53 53 53 53 53 53 53 53 54 55 56 58 59 60 60 60 60 57 55 55 55 55 54 54 55 58 61 62 61 61 61 61 61 61 60 61 62 62 61 61
52 52 52 52 52 52 52 52 52 52 52 53 54 55 57 57 55 55 56 55 55 54 54 53 52 52 52 53 56 60 61 61 62 61 61 61 61 60 61 62 61 61
51 52 52 52 52 51 51 51 51 51 51 51 52 52 54 55 54 53 53 53 53 52 52 51 50 50 49 50 52 55 57 59 60 60 61 61 61 61 61 61 61 61
51 51 51 51 51 50 50 50 50 50 51 51 50 50 51 52 52 52 51 51 51 50 50 49 49 48 48 47 48 54 55 57 60 60 60 61 61 61 61 61 61 60
51 51 51 50 50 49 49 49 49 49 50 50 50 49 49 49 49 50 50 49 49 48 48 48 47 47 47 45 46 51 58 59 59 59 59 60 60 60 60 59 58 57
50 50 50 50 49 49 49 48 48 48 48 49 48 48 48 48 48 48 49 49 48 47 46 46 46 44 42 42 44 50 57 57 57 57 57 59 60 59 59 59 59 59
50 49 49 49 49 48 48 48 47 47 47 47 47 46 46 46 46 46 47 48 48 47 46 45 45 43 41 42 44 46 51 55 54 53 53 54 55 58 59 59 59 58
49 49 49 48 48 48 48 47 46 46 46 46 46 46 45 44 44 45 45 46 46 46 45 44 43 41 41 42 43 45 47 52 53 51 51 51 52 53 56 58 57 56
48 48 47 47 47 47 47 47 46 46 46 46 45 45 44 44 43 43 44 44 45 44 44 44 42 41 41 42 44 45 46 49 52 51 50 50 50 50 51 52 54 54
47 47 46 46 46 46 46 46 46 45 45 45 45 44 43 43 43 42 43 43 43 44 43 43 42 39 40 41 43 45 46 48 52 51 50 49 49 48 48 49 50 51
45 45 45 45 46 46 45 45 45 44 44 44 43 43 43 42 42 42 42 42 43 43 43 42 42 39 39 40 42 44 46 51 50 50 49 48 48 48 47 48 48 48
43 42 42 42 42 42 43 44 44 44 43 42 41 41 42 41 41 41 42 42 42 42 42 42 42 40 39 39 41 43 46 48 48 48 48 47 47 47 47 46 46 46
41 40 39 39 39 39 40 40 41 42 42 41 39 39 39 40 40 40 41 41 41 41 42 42 42 41 39 39 40 41 46 47 46 46 46 46 45 45 45 45 45 44
41 40 40 39 39 39 39 39 39 40 41 40 39 38 38 39 39 39 39 40 41 41 43 41 42 42 40 39 39 40 45 47 46 45 44 44 44 44 44 44 44 44
39 40 40 40 40 40 40 40 40 39 40 40 39 38 38 38 38 38 38 39 39 40 40 40 41 41 41 39 39 40 41 45 45 44 44 43 43 43 43 43 44 44

ECMWFNIL_sfc_dewp_111.txt.gz
Dewpoint
57 56 57 57 57 58 57 59 60 60 60 60 61 61 61 62 62 62 62 62 62 62 62 62 63 63 63 63 62 62 62 62 62 62 62 62 62 62 61 61 61 61
56 57 57 57 58 58 59 60 60 61 60 61 61 61 61 62 62 62 62 62 62 62 62 62 62 62 62 62 62 62 62 62 62 62 62 62 62 62 62 62 62 62
56 58 60 60 60 59 59 60 60 60 60 61 61 61 61 62 62 62 62 62 62 62 62 62 62 62 62 62 62 62 62 62 62 62 62 62 62 62 62 62 62 62
58 59 59 59 60 60 60 60 60 60 60 60 60 61 62 62 62 61 61 62 62 61 61 61 61 62 62 62 62 62 62 62 62 61 61 61 62 62 62 62 62 62
56 56 56 56 57 57 57 57 58 58 58 59 59 61 61 60 59 58 58 59 59 59 59 60 60 61 62 62 62 61 61 61 61 61 61 61 61 61 61 62 61 61
55 54 55 55 55 55 55 55 56 56 57 57 58 59 60 58 57 56 56 56 57 57 57 57 57 59 61 61 61 61 60 60 61 61 60 60 60 61 61 61 61 61
53 53 53 53 53 54 54 54 55 55 56 56 56 56 56 56 55 55 54 55 54 54 54 54 54 55 57 59 60 60 59 59 59 59 60 60 60 60 61 62 61 61
52 52 52 52 52 53 53 53 53 54 55 55 55 54 54 54 53 53 53 52 52 52 52 52 52 53 54 55 58 60 60 60 59 59 59 59 59 59 60 60 61 61
52 52 52 52 52 52 52 52 52 52 53 53 53 53 53 52 52 51 51 51 51 51 51 51 52 52 53 53 55 56 58 59 59 59 59 58 58 58 59 59 59 59
51 51 51 51 51 51 51 51 51 51 52 51 51 51 51 51 51 51 50 50 50 50 50 50 51 52 52 52 53 55 57 59 59 59 59 58 59 59 59 59 59 59
50 50 50 50 50 50 50 50 50 50 50 50 49 49 49 50 50 50 50 49 49 49 49 49 50 50 51 52 54 56 58 59 59 59 59 59 59 60 61 60 59 59
50 50 49 49 49 49 50 49 49 48 48 48 48 47 47 48 48 49 49 48 48 48 49 49 49 50 50 51 54 57 58 59 60 60 60 59 59 58 58 58 58 58
49 49 49 48 48 48 49 48 47 47 46 46 46 46 46 46 47 47 48 48 48 48 48 49 49 49 49 50 54 56 57 56 57 58 58 58 58 58 57 57 57 57
48 48 48 48 47 47 47 46 46 45 45 45 45 45 45 45 46 46 47 47 47 48 48 49 48 48 48 49 52 54 55 54 54 54 54 55 55 55 55 55 55 56
48 47 47 47 46 46 45 45 45 45 44 44 44 44 45 45 45 46 46 46 46 46 46 46 47 47 48 48 50 52 52 51 51 50 51 51 51 52 53 54 54 55
48 47 46 46 45 45 45 44 44 44 44 43 44 44 44 45 45 45 45 45 45 45 45 45 45 46 46 45 46 50 49 48 48 48 47 47 48 49 50 51 53 54
47 46 45 45 44 44 44 44 43 43 43 43 43 43 43 44 44 44 44 45 44 44 44 44 45 44 42 41 42 44 48 47 46 46 46 46 46 46 47 48 50 52
45 45 44 43 43 43 42 42 42 42 42 42 42 42 42 42 42 43 43 44 44 44 43 43 43 42 40 41 41 42 45 47 46 46 46 46 46 45 46 46 48 50
45 44 43 42 42 42 41 41 41 41 41 41 41 42 41 41 42 42 42 43 43 42 42 42 42 40 40 41 41 41 42 45 45 45 45 45 45 46 46 46 46 47
44 44 43 42 41 40 40 40 40 40 40 40 41 41 41 41 41 41 41 42 42 41 41 41 41 40 39 40 40 40 41 43 44 44 43 43 44 44 45 45 46 45
42 42 41 40 39 39 39 38 39 39 39 40 40 40 40 40 40 41 41 41 41 41 41 40 40 39 39 39 39 40 40 42 43 43 43 42 42 42 43 44 44 45
40 39 38 38 38 38 38 38 38 38 38 39 39 39 39 40 40 41 40 41 41 41 40 40 40 38 39 39 39 39 41 43 42 41 41 41 41 41 41 42 42 43
39 39 39 38 38 38 38 38 38 38 38 39 38 38 39 39 39 39 40 40 41 40 40 40 40 39 38 39 39 39 41 41 41 41 40 40 40 41 41 41 42 42
40 39 39 39 39 38 38 38 38 38 38 39 38 38 38 38 38 38 38 38 39 39 40 39 39 39 38 38 39 39 41 41 41 40 40 40 40 40 41 41 42 43
38 38 38 38 38 38 38 38 38 38 38 38 37 37 37 37 37 35 35 36 36 37 40 38 38 38 37 37 38 39 42 42 41 40 40 40 40 40 41 41 41 42
37 38 38 37 37 37 37 37 37 37 37 36 36 36 35 34 34 34 33 34 34 34 36 37 37 37 38 37 38 38 40 42 41 41 40 40 40 41 40 40 41 41

ECMWFNIL_sfc_dewp_114.txt.gz
Dewpoint
57 58 58 59 60 60 60 60 60 60 60 60 60 61 61 62 62 62 62 62 62 62 62 62 62 62 62 62 62 62 62 62 62 62 62 62 61 62 61 61 62 61
58 59 60 60 60 60 61 61 60 60 60 60 60 61 62 61 61 60 59 60 60 60 60 60 60 61 61 62 62 62 62 62 62 62 62 62 62 62 62 62 62 62
58 58 58 59 59 59 59 60 60 59 59 59 60 61 61 59 58 57 57 58 57 58 58 58 58 59 60 61 61 61 61 61 61 62 62 61 62 61 62 62 62 62
56 56 56 56 57 57 57 57 57 57 58 57 58 58 58 57 56 56 56 56 56 56 56 56 56 57 57 58 60 61 61 61 61 61 61 61 62 62 61 62 61 62
55 55 55 55 56 56 56 56 56 56 56 57 56 55 55 54 55 54 54 54 54 54 54 54 54 55 56 56 58 59 60 60 61 60 60 61 61 61 61 62 61 61
53 53 54 54 54 54 54 54 55 55 55 55 54 54 54 53 53 52 52 52 53 53 52 53 53 54 54 55 57 58 59 60 60 60 60 60 60 60 61 61 61 61
53 53 53 53 53 53 53 53 53 53 53 54 53 52 52 52 52 51 51 51 51 51 51 51 52 53 54 54 55 57 58 59 60 60 59 59 59 60 60 60 60 60
52 52 53 52 52 52 52 52 52 52 52 51 51 51 52 51 51 50 50 50 50 50 50 51 51 52 53 54 56 57 58 59 60 60 59 59 59 59 59 60 60 59
52 52 52 52 51 51 51 51 51 51 50 49 49 49 50 51 50 50 49 49 49 50 50 50 50 51 52 54 56 57 58 59 59 59 58 58 57 57 57 58 58 58
51 51 51 51 50 50 49 49 49 49 49 48 48 48 48 49 49 49 49 49 49 49 49 49 49 50 51 54 56 57 57 57 58 58 57 57 56 56 56 56 56 56
50 50 49 49 49 49 48 47 47 47 47 47 47 47 47 48 48 48 48 48 48 48 48 48 48 49 50 52 54 55 54 54 54 54 55 54 54 55 56 55 55 55
49 48 48 48 48 48 46 46 45 45 46 47 47 46 47 47 47 47 47 46 46 47 47 47 47 48 49 51 51 51 51 51 51 51 52 52 52 53 54 54 54 55
48 47 47 47 46 46 45 45 45 45 45 46 46 46 47 46 46 46 46 46 46 46 46 46 46 47 48 49 49 49 49 48 48 49 49 50 50 50 51 53 54 54
47 47 46 46 45 45 44 44 44 45 45 45 46 46 46 45 46 46 45 45 45 45 45 46 45 46 46 48 48 48 48 47 48 48 48 48 48 48 49 50 52 52
47 46 45 45 44 44 44 43 44 44 44 44 44 44 46 45 45 45 44 44 44 44 44 44 44 45 45 45 47 47 47 47 48 48 48 48 47 48 48 48 50 50
45 44 44 43 43 43 43 43 43 43 43 43 43 43 44 44 44 44 43 43 43 43 43 43 43 44 44 43 44 46 46 46 47 47 47 47 47 48 48 48 48 49
43 43 42 42 42 42 42 42 42 42 42 42 42 42 42 43 42 42 42 42 42 41 42 42 42 42 40 40 40 42 45 45 45 45 45 45 45 45 46 46 47 47
42 42 41 41 41 41 41 41 41 41 41 41 42 42 42 42 41 41 41 41 41 41 41 42 41 41 39 40 40 40 43 44 43 43 43 43 43 44 44 45 45 46
42 41 40 40 40 40 40 40 40 40 40 41 41 42 41 41 41 41 41 41 41 41 41 41 41 40 39 39 40 39 40 42 42 42 41 41 42 42 42 42 43 44
41 40 39 39 39 39 39 39 39 39 40 40 40 40 40 40 41 41 41 41 41 40 40 40 40 40 39 39 39 39 39 40 41 41 41 41 41 42 42 41 42 42
39 39 38 38 38 39 39 39 39 39 39 40 39 39 39 39 40 40 40 40 40 40 40 40 39 39 39 39 39 39 39 40 42 41 41 41 41 41 42 42 41 41
38 38 38 38 38 38 38 38 38 38 38 39 39 38 38 38 38 39 39 39 39 39 39 39 39 38 38 39 39 39 40 42 42 41 41 41 41 41 41 42 41 40
39 39 38 38 38 38 38 38 38 38 38 39 37 37 37 36 37 37 38 38 39 39 38 39 39 38 38 38 39 39 40 41 41 41 41 41 41 41 41 41 42 42
39 39 38 38 38 37 37 37 37 37 37 38 36 36 35 36 36 36 36 37 38 38 39 38 38 38 37 38 39 39 41 41 41 40 40 40 40 40 40 40 41 42
38 38 38 37 37 37 37 36 36 36 37 35 35 35 35 36 37 35 35 36 36 38 40 38 37 38 38 37 38 39 41 41 41 40 39 40 40 39 40 40 40 41
39 39 38 37 36 36 36 36 37 35 34 34 34 34 34 35 35 35 35 35 35 35 37 38 37 38 38 37 38 38 39 41 41 40 40 39 39 39 39 39 39 40

ECMWFNIL_sfc_dewp_117.txt.gz
Dewpoint
61 61 60 60 60 60 60 60 59 58 59 60 60 59 60 60 60 59 59 59 59 59 59 59 59 59 60 61 61 62 62 62 62 62 62 62 63 63 61 62 63 63
60 60 60 60 60 59 59 59 59 58 58 59 59 59 59 59 59 58 58 58 58 58 58 58 57 58 59 60 60 61 63 62 61 62 62 62 63 63 62 62 62 62
59 59 59 58 58 58 58 59 58 58 58 58 57 57 57 57 57 56 57 57 56 56 56 56 56 57 58 59 60 61 61 62 61 61 62 62 62 63 62 62 62 62
58 58 57 57 57 58 58 58 57 57 56 56 55 56 56 56 56 55 55 55 55 55 55 55 55 56 57 58 59 60 61 62 62 61 61 61 61 62 62 62 62 62
56 56 56 56 57 57 58 57 56 55 55 55 55 55 55 54 54 54 53 53 54 53 54 54 55 56 57 57 59 60 61 61 61 61 61 60 61 61 61 61 60 61
56 55 55 56 56 56 55 55 54 54 54 54 54 54 54 53 53 52 52 52 52 53 53 53 54 55 56 57 59 60 61 60 60 59 59 59 59 59 59 59 59 58
55 55 55 55 55 54 54 53 53 52 52 53 53 53 53 52 52 51 51 52 52 52 52 52 53 54 55 57 57 58 58 58 58 57 56 57 57 57 57 58 57 56
54 55 54 54 54 53 52 51 51 51 52 52 52 51 52 51 51 51 51 52 52 51 51 52 53 53 54 55 54 55 55 55 55 54 54 55 55 55 55 56 56 55
53 53 53 52 51 51 50 50 50 51 51 51 50 51 51 51 50 50 50 50 51 50 51 51 52 52 53 53 52 52 52 53 53 53 53 53 53 53 54 54 54 55
52 52 51 51 50 49 50 50 50 50 50 50 51 50 50 50 50 50 49 50 51 49 50 50 51 52 52 52 51 51 51 51 51 51 51 51 51 52 52 53 53 53
50 50 50 50 49 49 49 49 50 49 50 49 50 50 49 49 50 49 50 49 49 49 49 49 49 50 50 50 51 51 51 51 50 50 51 51 51 51 53 52 52 52
49 49 49 48 48 48 48 48 49 49 49 49 49 49 49 49 49 49 49 48 47 47 48 47 47 48 49 49 49 50 51 51 51 51 51 51 50 50 50 51 51 52
48 48 47 47 47 48 48 47 47 48 48 48 48 48 48 48 48 47 48 47 47 47 47 47 47 47 48 49 49 49 49 49 50 50 50 51 50 49 50 50 51 51
47 47 47 47 47 47 47 47 47 47 47 47 47 47 47 46 46 47 47 46 46 46 46 46 46 45 46 48 47 47 48 48 48 48 48 48 49 48 49 49 49 50
46 46 46 46 46 46 46 46 46 46 46 46 46 46 46 46 46 46 45 46 45 45 44 45 45 44 44 44 46 46 46 46 46 46 46 46 47 47 47 48 48 49
45 46 46 46 46 45 45 45 45 46 46 45 45 45 45 46 45 45 44 44 44 44 44 45 44 44 43 41 42 45 46 45 46 45 45 45 46 46 46 47 47 47
45 45 45 45 45 45 45 45 44 45 45 45 45 45 45 44 44 44 44 44 43 44 44 44 43 42 40 39 39 41 45 45 45 44 44 44 44 44 44 45 46 45
43 45 46 45 45 44 44 44 45 44 44 44 44 44 44 44 44 44 44 44 44 43 44 44 43 41 39 39 39 39 42 44 44 43 43 43 43 42 42 43 44 44
42 42 43 44 44 43 44 44 44 43 43 43 43 44 44 43 43 44 43 44 43 43 43 43 43 40 39 39 39 39 39 42 42 43 42 42 42 42 42 42 43 43
42 42 42 42 43 43 43 42 42 42 43 43 43 43 43 43 43 43 43 43 43 43 43 43 42 40 39 39 39 39 39 41 42 43 42 41 42 42 42 42 42 42
41 41 42 42 42 42 42 42 42 42 42 42 42 42 42 42 42 43 43 43 43 43 43 43 42 39 38 39 39 39 39 40 43 43 42 42 42 42 42 42 41 42
41 41 41 41 41 41 41 41 41 42 41 42 41 41 42 42 42 43 43 43 43 44 43 43 42 38 38 39 39 39 39 43 42 42 41 41 41 41 41 41 41 41
41 41 41 41 40 40 40 41 41 41 41 41 41 41 41 41 42 42 42 43 43 43 43 43 42 39 38 38 38 39 40 42 42 41 41 41 41 41 40 40 41 40
41 40 40 40 39 39 40 40 40 40 41 41 41 40 40 41 41 41 41 42 42 42 42 43 42 39 37 38 38 38 41 41 40 40 41 40 40 41 40 40 40 41
40 40 40 39 39 39 40 40 40 40 40 41 41 40 40 40 40 40 40 41 42 42 42 42 41 39 37 37 37 38 41 42 40 38 39 40 39 38 40 39 39 39
40 40 39 38 38 39 39 39 40 40 41 40 40 39 39 39 39 40 40 40 40 41 42 42 41 39 38 36 37 37 38 41 40 38 38 39 38 38 38 39 39 38

ECMWFNIL_sfc_dewp_123.txt.gz
Dewpoint
62 62 61 60 60 59 60 59 59 59 59 58 58 59 59 60 59 59 59 60 60 60 60 60 60 60 60 61 61 62 62 60 60 60 60 61 60 61 60 60 60 59
62 61 60 59 59 59 60 60 59 58 58 59 59 59 59 59 59 59 59 59 59 59 58 59 59 59 59 60 61 60 59 59 59 59 59 59 59 59 58 59 59 58
61 61 60 59 59 59 59 59 59 58 58 59 59 59 59 58 58 58 58 58 58 58 58 59 59 58 59 59 59 59 58 58 58 58 59 58 58 58 58 57 57 57
59 59 59 59 59 59 59 58 57 58 59 58 58 58 57 58 58 58 58 58 57 57 58 57 57 57 57 58 58 57 58 57 57 58 58 58 57 57 57 57 56 56
59 58 58 58 58 58 58 57 57 58 57 58 58 57 57 57 57 57 57 56 56 56 56 56 56 56 56 56 56 56 56 55 56 56 56 56 56 56 56 55 55 55
57 56 57 58 57 57 56 56 56 57 57 57 57 56 56 56 55 55 55 55 54 54 54 55 55 55 55 54 55 55 55 55 55 55 55 55 55 55 55 55 54 54
57 57 57 57 57 56 56 56 56 56 56 56 56 55 55 55 54 53 53 54 53 53 53 53 53 54 54 54 54 54 55 55 55 53 53 54 54 54 54 54 53 52
57 57 56 56 56 56 56 55 56 56 56 55 55 54 54 54 53 54 53 53 52 50 51 51 52 52 53 54 53 53 54 55 54 53 53 52 53 52 53 53 53 52
56 56 56 56 56 56 55 55 55 55 55 55 54 54 53 53 53 53 52 50 50 51 51 51 51 51 53 52 52 52 51 53 52 52 52 52 52 51 51 52 52 51
56 56 56 56 55 55 55 55 55 55 54 54 54 54 53 53 51 50 51 51 50 50 50 50 51 50 51 51 51 51 50 50 50 51 51 51 51 50 50 51 51 50
56 55 55 55 55 55 55 55 54 54 53 53 53 53 53 53 52 50 51 50 49 48 50 50 50 49 49 49 50 51 50 50 50 50 50 50 50 50 51 50 50 50
55 55 54 54 54 54 54 54 54 53 53 53 52 52 52 52 51 51 51 48 49 50 50 49 49 50 50 49 49 50 51 51 50 50 50 49 49 49 50 50 50 50
54 54 54 54 54 54 54 53 52 53 51 51 51 51 51 50 50 49 50 50 49 50 49 48 48 48 49 49 49 49 49 48 49 49 48 49 48 48 49 49 49 49
53 54 54 53 53 52 52 53 52 52 51 51 50 51 50 48 49 49 50 49 49 48 48 48 47 46 45 46 47 48 48 48 47 48 48 48 49 47 48 48 48 48
53 53 53 52 52 52 51 51 51 51 51 50 50 50 50 49 49 48 47 47 46 47 46 47 47 45 45 44 44 45 45 46 45 45 45 46 46 45 44 44 46 47
52 53 52 52 51 51 51 51 50 51 50 50 49 49 49 49 48 48 46 46 45 45 46 47 45 45 43 41 42 44 46 43 44 43 43 44 44 44 43 42 41 42
51 51 51 50 51 51 51 49 49 50 50 49 49 49 49 48 48 47 46 45 44 44 44 45 44 42 40 39 39 40 46 44 42 42 42 43 43 42 42 41 41 40
50 50 49 50 50 49 49 49 49 49 49 49 49 49 48 48 48 47 46 45 45 43 44 44 44 40 38 38 39 38 40 44 42 41 41 41 42 43 42 42 41 41
49 48 48 48 48 48 48 48 48 48 48 48 48 48 48 47 46 46 45 44 44 42 43 43 43 38 37 38 38 38 38 41 39 41 39 39 41 42 42 42 41 40
48 47 47 47 48 48 48 47 47 47 48 48 47 47 47 46 46 45 44 43 42 41 42 43 42 39 37 37 38 37 37 40 41 41 40 38 39 40 41 42 42 40
47 47 47 47 47 47 48 47 47 47 46 46 46 46 45 44 45 45 44 43 41 40 40 42 43 37 37 37 37 37 37 41 44 43 40 40 39 38 39 40 41 41
47 47 47 47 46 47 47 46 46 46 46 46 45 44 44 43 43 43 42 42 41 40 39 39 41 36 36 36 36 36 38 42 42 42 41 40 39 37 37 38 39 40
46 46 47 46 46 46 45 46 45 44 44 44 44 44 43 43 44 43 42 41 40 39 38 38 39 38 36 36 36 36 40 42 41 39 40 40 40 38 36 37 37 38
46 46 46 46 45 44 44 44 44 43 42 42 42 42 40 41 42 41 41 40 40 39 37 36 37 39 36 36 36 36 38 43 39 40 40 38 38 39 38 37 38 42
45 45 45 45 44 44 44 43 43 42 42 42 40 40 40 39 39 40 40 40 40 40 42 37 36 38 36 35 36 36 39 42 36 37 38 38 37 36 37 37 36 37
45 45 44 44 43 44 44 42 41 41 41 40 39 37 37 37 37 39 40 40 41 41 42 41 38 37 38 35 36 36 36 42 39 37 36 36 35 34 35 36 35 35

ECMWFNIL_sfc_dewp_129.txt.gz
Dewpoint
60 59 59 59 60 60 59 59 59 59 59 58 58 58 58 59 60 60 59 58 58 58 58 57 58 58 58 57 57 57 56 56 56 56 55 55 54 54 53 53 53 52
59 60 60 59 59 59 59 59 59 58 58 58 57 58 59 58 59 59 58 58 58 57 57 57 57 57 56 56 56 56 55 55 55 57 54 54 53 53 52 52 51 51
59 59 59 58 58 59 59 59 58 58 58 58 58 58 59 59 57 57 57 57 57 57 56 55 56 57 56 56 55 55 55 55 54 54 55 53 53 51 51 51 50 50
59 59 58 58 58 58 59 58 58 58 58 57 57 58 58 58 56 56 57 60 57 55 55 55 55 55 55 55 54 54 54 54 54 54 53 52 52 51 50 50 49 49
59 59 59 58 58 58 58 57 57 57 57 57 56 56 56 56 56 56 57 58 55 54 54 53 54 54 54 54 54 53 54 53 54 53 51 51 51 51 50 49 48 48
59 58 58 58 58 57 57 57 57 57 56 56 55 56 56 57 57 55 54 54 55 54 53 54 53 54 54 54 53 53 53 53 52 51 51 50 50 50 50 49 48 47
58 57 57 57 57 57 57 57 57 56 56 56 56 56 56 56 53 53 52 53 53 53 53 53 52 52 53 53 53 53 53 52 51 50 50 50 50 49 49 48 48 47
56 56 56 56 56 56 56 56 56 56 55 55 55 55 53 52 52 52 52 52 51 51 52 52 52 52 51 51 51 52 52 52 51 50 49 49 49 48 48 49 48 47
56 56 57 57 57 56 56 55 55 55 55 54 54 54 54 53 52 52 52 50 50 50 49 49 49 49 50 51 50 50 50 50 51 50 49 49 48 48 48 48 48 47
56 56 56 56 55 56 55 55 55 54 55 54 55 52 52 52 51 50 50 49 48 47 46 46 46 47 47 49 49 49 50 49 49 50 50 49 48 48 47 48 48 47
56 56 55 55 55 55 55 56 56 55 54 52 52 51 51 50 50 49 48 48 47 46 45 44 44 45 46 47 48 47 48 48 46 45 45 47 48 48 49 46 47 47
55 55 55 55 55 55 55 55 55 55 53 53 51 50 50 49 48 48 48 46 45 44 44 43 43 43 44 46 47 46 46 47 47 45 43 42 43 47 46 46 46 46
55 55 55 55 54 54 54 54 53 53 52 51 51 49 48 48 47 47 47 46 45 44 43 42 42 42 43 44 46 46 45 45 45 45 44 43 42 43 46 46 45 45
55 55 54 54 53 53 53 52 53 52 51 50 50 49 48 47 46 46 46 45 44 44 43 43 41 41 41 43 45 45 44 44 45 44 43 42 42 41 42 45 46 44
54 54 54 53 53 52 52 52 52 50 51 50 49 48 48 46 45 45 44 44 43 43 42 41 41 41 41 42 44 44 42 43 44 44 44 43 42 41 41 40 41 45
53 53 53 53 52 52 51 50 50 50 48 47 47 46 46 45 45 45 44 43 43 42 41 41 40 41 42 42 45 44 41 41 42 42 42 42 42 41 41 40 40 40
53 53 52 52 52 52 51 51 50 49 49 48 47 45 45 45 45 44 44 44 43 41 40 40 39 40 39 39 40 42 40 39 39 39 39 39 40 40 40 40 39 39
52 52 52 51 51 51 50 50 49 48 48 47 47 46 45 44 44 44 43 43 41 40 39 39 38 40 38 38 39 39 40 39 37 37 38 37 38 38 38 39 38 38
51 51 51 51 50 50 49 49 48 47 46 46 46 45 43 43 42 42 42 42 40 38 38 38 37 39 38 38 39 38 37 38 35 36 36 36 36 37 37 37 37 37
51 50 50 50 50 49 49 48 48 47 47 46 45 44 43 43 42 42 42 41 40 38 37 37 37 39 37 38 39 38 37 37 35 35 35 35 35 36 36 36 36 36
50 50 49 49 49 48 48 47 46 46 45 45 44 43 42 41 41 41 41 41 40 39 37 37 37 37 37 37 38 39 38 38 37 36 35 34 35 35 35 35 35 36
50 49 48 48 48 47 47 46 46 45 45 45 44 43 42 42 41 41 40 40 40 38 36 36 36 36 36 37 38 40 40 42 38 36 35 34 34 35 36 36 36 35
49 48 48 48 47 47 46 46 45 45 44 43 42 42 41 40 40 40 40 39 39 37 36 35 36 36 36 37 37 39 40 40 40 38 36 35 33 34 35 37 38 37
48 48 47 47 46 46 46 45 44 44 44 44 42 41 38 37 37 37 38 39 38 37 36 35 35 37 36 37 38 40 42 39 38 39 38 37 36 35 35 34 37 41
48 47 47 46 46 45 45 44 44 44 44 42 40 39 38 39 40 40 40 40 38 38 39 36 35 37 36 36 38 39 40 39 38 36 35 34 34 33 34 34 34 37
48 47 46 45 45 44 44 44 43 41 40 40 39 38 39 40 41 39 38 37 37 37 39 36 34 34 36 36 37 38 39 40 38 35 35 35 35 34 33 33 34 34

ECMWFNIL_sfc_dewp_132.txt.gz
Dewpoint
60 60 59 59 59 59 59 58 58 58 57 57 57 57 58 58 58 56 56 56 57 57 56 56 55 55 55 55 55 55 55 54 53 52 51 51 50 49 49 48 48 48
59 59 59 59 59 59 58 58 58 57 57 57 57 57 57 58 57 57 56 57 56 55 56 55 55 54 54 55 55 54 53 53 52 53 50 50 50 49 49 48 47 47
59 58 58 58 58 58 58 58 57 57 57 57 57 57 56 56 55 55 55 56 54 54 55 55 54 54 54 54 54 53 52 51 51 51 51 49 49 48 48 48 47 47
58 58 58 58 58 58 58 58 57 57 57 57 57 57 57 56 55 55 57 56 54 54 54 54 53 53 53 54 53 53 52 51 50 50 49 49 49 48 47 47 47 46
58 58 58 58 58 57 57 56 56 56 56 56 56 56 57 55 56 56 55 53 53 53 53 53 52 53 54 54 52 52 51 50 50 49 49 48 48 48 47 47 46 45
58 58 58 57 57 56 56 56 55 55 55 54 54 56 55 55 56 55 54 53 53 53 52 52 52 53 53 52 52 51 50 50 49 49 48 48 48 48 47 46 45 45
57 57 57 57 56 56 55 55 55 55 55 54 54 54 54 54 54 54 53 52 51 52 51 51 51 51 52 52 51 50 50 49 49 48 48 48 48 47 47 47 46 45
56 56 56 56 56 55 55 54 54 54 54 53 53 52 54 52 52 51 51 50 49 48 48 49 49 50 50 51 51 50 50 49 48 48 47 47 47 47 47 47 46 45
56 56 56 55 55 54 54 54 54 54 54 53 52 52 52 51 50 49 48 47 47 47 47 47 48 49 49 50 50 50 49 49 49 47 46 46 46 47 47 47 46 46
56 56 56 55 54 54 53 53 53 53 54 51 51 50 50 49 48 47 46 45 45 45 45 46 47 47 48 48 48 47 48 48 48 47 47 46 46 46 46 46 46 45
55 56 55 55 54 53 53 53 53 53 52 50 50 49 48 48 47 46 45 45 45 44 44 45 45 46 46 47 47 45 43 43 44 46 46 46 46 46 48 45 46 45
55 55 55 54 53 53 53 53 53 51 50 50 49 48 47 47 46 45 44 43 43 43 43 43 44 45 45 45 45 45 44 43 43 43 44 45 45 44 44 44 44 44
54 54 54 53 53 53 54 53 51 50 49 48 48 47 46 45 44 44 44 43 42 42 42 43 43 44 44 44 44 44 43 42 42 42 42 42 43 44 45 44 44 43
54 54 53 53 53 53 53 52 50 49 48 48 47 46 45 44 43 43 43 42 42 42 42 43 42 43 43 43 44 44 44 43 43 42 41 41 41 40 40 41 42 43
54 53 53 53 52 52 51 50 49 49 48 47 46 46 45 44 43 42 41 41 41 41 41 42 42 43 43 42 42 42 42 42 42 42 41 40 40 40 40 40 40 40
54 53 53 52 51 51 50 50 49 47 46 46 45 44 44 44 43 42 41 40 40 40 40 41 41 42 45 43 43 41 40 40 41 40 40 40 40 39 39 39 39 39
53 52 52 51 50 51 50 48 47 46 45 45 44 44 44 44 42 41 40 40 39 39 39 39 40 40 40 38 39 40 39 38 38 38 39 39 39 38 38 39 37 37
52 52 51 50 51 50 48 47 46 45 45 44 44 44 44 42 41 40 40 39 39 38 39 39 39 40 37 38 38 38 40 39 38 38 38 38 37 37 37 37 36 36
52 51 51 51 50 49 48 47 45 45 44 44 43 43 42 41 40 40 39 38 38 38 38 39 38 38 37 37 37 37 37 38 36 36 36 36 36 36 35 35 35 36
51 51 51 51 49 48 47 46 45 44 44 44 43 42 41 41 40 39 38 37 37 37 37 38 37 39 36 36 36 36 36 37 35 35 35 35 35 35 35 34 34 34
51 51 50 49 48 48 46 45 45 44 43 43 42 41 41 40 39 38 38 38 37 37 37 37 37 38 37 36 36 36 36 36 35 36 35 35 36 36 35 35 34 35
51 50 50 48 48 47 46 44 43 43 42 42 41 41 41 41 40 39 37 37 36 36 36 36 36 37 38 37 36 36 37 37 35 34 35 35 35 36 37 36 35 34
51 50 49 48 47 46 44 44 43 42 42 42 41 40 40 39 39 38 38 37 37 36 35 35 35 37 38 37 37 37 36 35 35 34 34 33 33 34 35 37 38 36
50 49 48 47 46 45 44 43 43 42 41 41 39 39 39 39 38 38 37 37 36 35 35 35 34 37 38 38 38 37 38 35 35 35 34 34 33 34 34 34 39 42
49 49 47 46 46 45 44 43 42 42 41 40 39 38 38 38 38 37 37 37 37 38 41 36 35 37 38 38 38 38 39 37 36 33 32 32 32 32 33 34 34 38
49 48 47 46 45 44 43 43 43 40 38 38 38 38 39 39 38 38 37 36 36 36 36 35 35 35 38 39 38 38 38 37 35 33 33 32 33 33 32 32 33 34

ECMWFNIL_sfc_dewp_135.txt.gz
Dewpoint
61 61 60 59 60 60 59 58 57 57 57 56 56 55 55 55 56 55 56 56 55 55 55 55 55 55 54 54 53 53 52 51 50 49 49 49 47 47 46 45 45 45
60 60 60 59 59 59 59 58 57 57 57 56 56 55 55 56 56 56 55 55 55 54 54 54 54 54 53 52 52 51 50 50 49 51 48 47 47 46 46 45 44 44
59 59 59 59 59 58 57 57 57 57 57 57 56 55 56 55 55 54 54 54 54 53 54 54 54 53 52 52 51 50 49 49 48 48 48 47 46 46 45 45 44 43
58 58 58 58 58 57 57 57 57 57 57 56 55 55 55 56 55 55 54 55 53 53 53 53 53 52 52 51 50 49 49 49 48 48 47 47 47 46 45 45 44 43
58 58 58 58 57 57 57 57 56 56 56 55 55 54 56 55 54 53 53 52 52 52 53 53 52 52 51 50 49 49 49 48 48 47 47 46 47 46 46 44 43 43
58 58 58 57 57 57 56 56 56 56 55 54 54 55 54 55 54 52 52 52 51 52 52 52 52 51 51 50 49 48 48 48 47 47 47 46 46 46 45 44 43 43
57 57 57 57 57 56 56 56 55 55 54 54 54 53 54 54 53 52 51 51 50 51 51 51 51 50 50 49 48 48 48 47 47 47 46 46 46 45 45 44 44 42
57 57 56 56 56 55 55 55 55 54 53 52 52 51 53 52 51 50 49 49 48 49 50 51 51 50 50 49 48 47 46 47 46 46 45 45 45 44 44 44 43 42
56 56 56 55 55 55 54 54 54 53 53 52 52 52 52 51 49 48 48 47 47 48 49 50 50 50 49 49 48 46 46 46 46 45 45 45 44 44 44 43 43 43
56 55 55 54 54 54 54 53 52 52 52 51 51 50 49 48 47 47 47 47 47 47 48 49 49 49 49 48 48 47 46 46 45 45 45 45 45 44 44 44 43 42
55 55 54 53 53 53 53 52 51 51 51 49 49 48 47 47 47 46 46 46 46 46 47 47 46 46 46 46 46 46 46 46 45 44 44 43 43 44 47 43 44 43
55 54 53 53 52 52 52 51 51 50 49 49 47 46 46 46 45 45 45 44 45 45 45 45 45 45 45 44 44 44 44 44 45 44 44 44 43 43 43 43 42 42
54 54 53 53 52 52 51 50 49 49 48 47 47 45 45 44 44 44 44 43 43 44 44 44 44 44 43 43 43 42 42 42 42 41 41 41 40 41 41 41 42 42
54 54 53 53 53 52 50 49 48 48 47 47 46 44 44 43 43 43 43 43 43 43 44 44 43 43 43 43 42 42 42 41 41 41 40 40 40 39 40 40 41 42
54 53 53 53 52 51 49 48 48 47 46 45 45 44 44 43 42 42 42 41 42 42 43 43 43 43 42 42 42 41 41 41 40 40 40 39 39 38 38 38 39 40
53 53 53 52 51 49 49 48 47 46 45 44 43 43 42 42 41 41 41 41 41 41 42 42 43 43 45 43 43 41 40 40 40 40 40 39 39 37 37 37 37 38
53 53 52 51 50 49 48 47 46 45 44 43 43 42 42 42 40 40 40 40 40 40 40 40 41 42 40 39 40 41 40 39 38 38 38 38 38 37 37 37 36 36
52 52 51 50 49 48 47 46 45 44 43 43 42 42 41 40 40 39 39 39 39 38 39 39 39 41 38 38 39 39 40 41 38 37 37 37 36 36 35 36 35 35
52 51 51 50 48 47 46 45 44 43 43 42 41 41 40 39 39 38 38 38 38 37 37 38 37 38 38 38 38 37 38 38 36 36 36 35 35 34 34 34 34 36
52 51 50 49 48 46 45 44 43 43 43 42 41 40 39 38 38 38 37 37 37 36 36 36 36 38 37 37 37 36 36 37 35 35 35 35 35 34 34 34 34 34
51 51 50 48 47 46 45 44 44 43 42 41 40 39 38 38 37 37 37 38 36 36 35 36 37 37 36 36 36 36 36 36 36 36 35 35 34 34 34 34 33 34
51 50 49 48 46 45 44 43 43 42 41 41 40 39 39 39 38 38 37 36 36 36 35 35 35 36 36 36 36 36 37 37 35 35 35 35 35 35 35 34 33 33
51 50 48 47 46 45 44 43 42 42 41 41 39 39 38 37 37 37 37 36 37 36 35 35 35 36 36 36 36 36 36 34 34 34 34 33 32 33 35 37 37 34
50 49 48 47 45 44 43 42 42 41 41 40 39 38 37 37 37 37 36 37 36 36 35 35 35 36 36 36 36 36 36 34 34 33 33 33 32 32 33 35 40 41
50 49 47 46 45 43 43 42 41 41 41 40 39 38 38 38 38 36 36 35 36 37 41 37 36 37 37 36 36 36 37 34 33 32 31 30 31 32 32 33 34 38
50 49 48 46 44 43 42 41 41 40 39 38 38 38 37 37 37 37 36 36 36 38 39 37 37 37 38 37 37 37 36 35 33 32 32 30 31 32 32 32 33 34

ECMWFNIL_sfc_dewp_138.txt.gz
Dewpoint
63 62 61 60 60 59 58 58 57 57 57 56 56 55 55 56 57 56 56 56 56 55 55 54 54 53 52 51 51 51 50 50 49 48 48 48 46 46 45 45 45 45
62 61 61 60 60 59 58 58 57 57 56 56 56 56 56 56 56 56 55 55 55 54 54 53 53 52 51 51 50 49 49 49 48 49 47 46 46 45 45 45 44 44
61 60 60 60 59 58 57 57 57 57 56 56 56 56 56 56 55 55 54 54 54 53 53 52 52 51 50 50 49 49 48 48 48 48 48 46 46 45 45 45 44 44
61 60 60 59 59 58 57 57 57 57 57 56 56 56 56 56 54 54 55 55 53 53 52 51 51 50 50 49 49 48 48 48 48 48 47 47 47 45 45 45 45 44
59 59 59 59 58 58 57 57 57 56 56 56 55 56 56 54 53 53 53 53 53 52 51 51 50 50 49 49 49 48 49 47 47 47 46 45 46 45 45 44 44 43
59 59 59 58 58 57 57 57 57 56 55 55 55 55 54 54 53 53 53 52 52 51 51 50 50 49 49 48 48 48 48 47 47 46 45 45 45 45 44 44 43 43
58 58 58 58 57 57 57 56 56 56 56 56 55 54 54 53 52 52 52 52 52 51 50 50 49 49 49 48 48 47 47 47 46 45 44 45 45 44 44 43 43 42
57 57 57 57 57 56 56 56 56 56 56 56 55 54 53 52 51 51 51 52 51 50 50 49 49 48 48 47 47 47 46 46 46 45 44 44 44 43 43 44 43 42
57 57 57 57 56 56 56 56 55 55 55 55 54 53 52 51 50 50 50 51 51 50 49 49 48 48 48 47 46 46 46 46 46 45 44 44 44 44 43 43 42 43
56 56 56 56 56 55 55 55 54 54 54 53 52 51 50 49 49 49 50 50 50 50 49 49 48 48 47 47 46 46 45 45 45 45 45 45 45 44 44 44 43 43
55 56 56 55 55 54 54 53 53 53 53 51 50 49 48 48 49 48 49 50 50 49 49 49 48 47 47 46 46 46 45 44 44 44 44 44 44 45 46 44 45 44
55 55 55 54 54 53 53 52 52 52 51 50 49 47 47 47 47 48 49 49 49 49 48 48 47 47 46 46 45 45 45 45 45 44 44 43 43 43 44 44 44 44
55 54 54 54 53 52 51 51 50 50 49 48 48 47 46 46 46 46 47 47 47 47 47 46 46 45 45 45 44 44 44 42 41 41 41 42 41 41 42 43 44 45
54 54 53 53 52 51 50 49 49 48 48 47 47 46 45 45 45 45 46 45 46 46 46 46 45 44 44 44 44 43 43 41 41 41 41 40 41 41 42 42 44 45
54 53 53 52 50 49 49 48 47 47 46 46 46 46 46 44 44 44 44 44 44 45 44 44 44 44 44 43 43 42 41 41 41 41 40 40 40 39 40 40 42 45
53 53 52 50 49 49 48 47 46 46 45 45 44 44 44 44 43 44 44 43 43 43 43 44 44 44 45 44 43 42 41 40 41 41 40 40 40 39 39 39 39 40
53 53 51 50 49 48 47 46 45 45 44 43 43 43 43 44 43 43 43 43 43 43 43 43 43 44 42 40 40 41 41 41 40 40 39 39 39 38 38 39 38 38
53 52 51 49 48 47 46 45 44 44 43 43 42 43 43 42 42 42 42 42 42 42 42 42 42 43 39 39 39 39 41 41 39 39 39 38 37 37 38 38 37 38
52 52 50 49 48 47 46 45 44 43 42 42 42 42 41 41 40 40 40 41 41 40 41 41 40 39 38 39 39 38 38 39 37 38 37 37 36 36 36 37 38 40
52 51 50 48 47 46 45 44 43 42 42 42 42 41 40 40 40 39 39 39 40 40 39 39 39 39 38 38 38 37 37 38 36 37 37 36 36 36 37 36 37 38
51 50 49 48 47 46 45 44 43 42 42 42 40 40 39 39 38 38 38 39 38 38 38 38 39 38 37 37 37 36 36 36 37 37 37 37 37 36 36 36 36 37
51 50 49 47 46 45 44 43 43 42 41 41 40 39 39 38 38 38 38 37 37 37 37 37 38 37 36 36 36 36 37 38 37 37 37 38 38 38 37 36 36 36
51 49 48 46 45 45 44 44 42 42 41 41 39 38 38 37 37 37 37 36 37 36 36 36 36 37 36 36 36 36 36 37 37 36 36 36 36 37 39 40 38 36
50 49 47 46 46 45 45 44 43 41 40 40 38 38 37 37 36 36 36 36 36 35 35 35 35 37 36 36 36 36 37 35 35 35 35 35 35 35 37 38 42 41
50 48 46 46 46 45 44 44 42 41 41 40 39 38 37 37 38 35 36 36 35 35 39 35 35 37 36 36 36 36 37 35 34 33 33 34 34 34 35 35 36 39
49 48 47 46 45 45 45 44 42 40 39 39 38 38 37 37 37 36 35 35 37 38 38 35 35 36 37 36 36 36 36 36 34 33 34 33 33 33 33 34 35 36

ECMWFNIL_sfc_dewp_141.txt.gz
Dewpoint
64 64 63 63 63 62 62 61 61 61 61 60 60 60 59 59 59 60 59 59 58 57 57 56 55 54 54 53 52 51 49 50 50 50 50 50 50 50 49 50 50 48
64 63 62 62 62 61 62 62 61 61 61 61 60 60 59 59 60 59 59 58 57 56 55 54 54 53 52 51 51 50 49 50 49 50 50 50 49 49 49 49 49 47
64 63 63 62 62 61 62 62 62 61 60 60 61 60 59 60 59 59 58 57 56 55 55 54 53 52 52 51 51 50 49 49 49 50 49 49 48 48 48 47 47 47
64 63 63 62 62 61 61 61 61 60 60 59 60 59 59 59 59 58 57 56 55 55 54 53 53 52 51 50 50 49 49 49 49 49 48 48 48 48 47 46 46 45
63 62 62 61 61 61 61 60 60 59 59 60 60 59 58 59 58 57 56 55 55 54 53 52 52 51 51 50 49 48 48 48 48 48 46 46 47 47 46 45 44 44
63 62 62 61 61 61 61 60 59 59 59 60 60 59 58 58 57 56 55 54 53 53 52 52 51 51 50 49 49 48 47 47 47 47 45 45 45 46 46 44 43 43
62 62 61 61 61 61 61 60 59 59 59 60 58 58 57 57 56 55 53 53 52 51 51 51 50 50 50 49 48 48 47 47 45 44 44 44 44 45 45 44 42 40
62 62 61 60 61 61 60 59 59 59 59 58 58 57 57 56 55 55 53 52 51 50 50 49 49 48 48 47 46 47 47 47 46 44 43 43 43 42 44 45 44 40
61 61 61 61 61 60 59 58 59 59 58 58 56 56 56 56 56 55 53 52 50 50 49 48 48 48 49 47 46 45 45 47 45 44 43 43 42 42 41 42 42 42
60 60 60 60 60 59 59 59 58 58 58 57 56 56 55 56 55 53 52 51 50 49 49 48 48 48 47 46 45 44 43 44 44 45 44 43 42 41 41 41 41 41
60 60 60 60 59 59 59 58 58 58 57 55 55 55 55 55 55 54 53 51 51 48 48 47 47 46 46 46 47 46 45 45 43 44 45 44 44 44 44 42 42 42
60 60 59 59 59 59 59 58 57 57 56 55 54 53 54 55 54 54 53 51 49 48 47 47 46 46 45 44 44 45 46 46 45 45 44 43 44 44 43 44 44 42
60 60 59 59 58 58 58 57 56 56 55 53 53 53 53 54 54 53 53 51 49 49 48 47 47 47 46 46 44 44 44 44 45 45 45 46 45 44 45 46 44 43
59 59 58 57 57 56 55 55 55 54 53 53 52 52 53 53 53 53 53 51 51 49 48 48 48 47 46 46 45 45 45 44 45 45 44 46 47 46 47 46 45 44
58 57 57 56 55 54 54 53 53 53 52 51 51 52 53 52 53 52 51 51 50 50 48 49 48 48 47 46 45 44 45 45 44 44 44 44 45 46 47 46 44 45
56 55 54 53 53 53 52 52 52 52 51 51 50 50 51 51 51 51 51 50 49 48 49 50 49 49 47 45 44 45 45 44 46 45 44 44 45 45 46 46 47 47
54 53 52 52 52 51 51 51 51 52 51 50 50 49 50 51 51 50 50 50 49 48 49 49 49 46 42 40 40 42 45 46 46 46 46 45 45 44 44 45 45 45
54 53 52 51 51 50 50 50 51 51 50 49 49 50 50 50 50 50 50 50 49 48 49 49 49 44 40 40 40 40 43 46 46 45 46 45 44 44 44 44 44 45
53 52 51 50 50 49 49 49 49 49 49 48 49 49 49 49 49 49 49 49 49 48 48 48 48 40 39 39 39 39 40 43 43 44 44 44 44 43 42 43 43 44
53 51 50 50 49 49 48 48 48 48 49 48 48 48 49 48 49 49 48 48 48 48 48 47 46 40 39 39 39 38 38 40 42 44 44 42 43 44 45 44 44 43
52 51 50 49 48 47 47 47 47 47 47 47 47 47 48 47 48 47 47 47 47 47 46 47 46 39 38 38 37 37 37 39 43 43 42 43 43 44 44 45 45 46
52 51 50 48 47 47 46 46 46 46 46 46 46 46 46 46 46 46 46 46 46 46 46 45 44 38 37 37 37 36 37 42 42 42 42 41 41 42 41 42 42 44
51 50 49 48 47 46 46 46 46 46 45 45 44 44 44 45 45 45 45 45 45 45 45 44 42 38 37 37 36 36 38 41 42 40 41 42 42 42 41 41 42 42
51 50 49 48 47 46 46 47 46 45 45 44 43 43 43 44 44 43 44 44 44 44 44 43 43 39 36 36 36 37 40 41 40 40 41 41 41 42 42 43 42 41
51 50 49 47 47 48 48 46 45 44 44 45 44 43 43 42 42 42 42 43 43 44 43 44 42 39 37 36 36 37 39 41 39 39 40 40 39 39 41 41 41 40
50 50 49 48 48 48 47 47 47 46 44 44 43 41 40 40 40 41 41 41 42 42 42 43 42 41 39 36 36 36 37 39 39 37 38 39 37 35 37 39 40 39

ECMWFNIL_sfc_dewp_144.txt.gz
Dewpoint
66 65 67 67 66 64 64 63 63 63 62 61 61 61 60 61 60 60 60 59 59 58 58 57 57 56 56 55 54 52 52 54 53 53 53 52 51 52 51 50 50 46
66 66 66 65 65 64 64 64 64 63 62 62 61 61 61 60 60 60 59 59 57 57 56 56 56 55 54 53 53 51 50 52 52 52 52 51 50 50 50 49 48 46
66 66 65 65 64 64 64 64 64 63 62 61 62 61 60 60 60 59 58 58 57 56 56 56 55 54 53 52 52 51 51 51 51 50 50 49 49 48 48 46 45 46
65 65 64 64 64 64 64 63 63 63 63 61 61 60 60 60 60 59 57 57 56 56 56 55 54 53 51 51 51 50 51 49 49 49 49 48 48 47 46 46 46 45
65 64 64 64 64 64 63 62 62 63 62 61 61 60 59 59 59 57 57 56 56 55 55 54 53 53 51 50 49 49 49 48 49 48 47 47 48 47 46 45 45 44
65 64 64 63 64 64 63 62 61 62 61 61 61 59 59 58 57 56 55 55 54 54 53 53 52 51 51 50 49 48 47 46 46 46 46 46 46 45 44 44 44 44
65 64 64 63 63 63 63 63 62 62 61 61 60 59 58 57 56 55 55 54 53 53 52 52 51 51 50 49 47 47 46 46 44 43 44 44 45 44 43 43 41 39
65 64 64 63 63 63 63 62 62 62 61 60 60 59 58 56 55 56 55 54 52 51 51 50 49 48 47 47 45 46 46 45 46 44 43 44 45 43 43 43 42 38
65 64 63 63 63 63 62 61 61 61 60 60 59 58 57 56 56 56 54 53 52 52 50 49 48 47 47 45 44 43 43 45 45 44 44 44 43 42 40 41 41 41
64 63 63 63 63 62 62 62 61 61 61 59 59 58 56 56 56 54 54 53 52 50 50 48 48 47 45 43 42 41 42 42 43 44 44 43 42 41 41 41 41 41
63 63 63 63 62 62 62 62 62 61 60 59 59 57 57 56 55 54 54 52 53 50 49 48 48 45 44 43 43 43 43 43 43 42 44 44 44 43 43 43 42 41
63 63 63 63 63 62 62 61 61 61 60 59 58 57 56 56 55 55 54 52 51 50 49 48 47 45 42 41 41 43 43 44 44 44 43 42 43 43 43 44 44 42
63 63 62 63 62 62 62 61 61 60 59 58 58 57 57 55 55 54 54 52 51 50 49 48 47 45 43 43 42 41 42 43 44 44 44 45 43 43 43 43 43 43
63 63 63 63 63 62 61 61 60 59 58 58 57 57 56 55 54 54 54 51 51 50 50 49 48 46 43 41 41 42 43 43 43 45 44 45 45 45 45 44 44 43
62 62 63 62 61 61 60 60 60 59 57 56 57 56 56 55 54 54 53 52 51 51 50 50 50 48 45 43 42 41 42 43 43 43 44 44 44 45 44 43 43 44
61 62 61 61 61 60 60 59 58 58 57 56 56 56 55 55 54 54 53 52 51 51 51 52 50 49 48 44 42 42 43 40 43 43 42 44 44 45 45 44 44 44
61 61 60 60 60 59 59 58 57 57 56 55 55 55 55 55 54 53 53 52 52 51 52 52 51 49 43 41 40 41 43 45 44 44 43 44 44 45 45 45 43 41
60 60 60 59 58 57 57 56 56 56 55 55 55 55 55 55 55 53 53 53 53 52 53 52 52 45 40 40 41 41 43 44 45 44 44 44 43 43 43 44 44 44
59 59 59 58 57 56 56 55 55 55 54 54 54 55 55 55 54 54 54 53 53 51 52 52 51 40 40 40 40 41 41 44 43 45 44 44 44 43 42 43 44 45
58 57 56 56 56 55 55 54 54 54 55 55 55 54 54 55 55 55 54 54 53 52 52 52 50 41 39 40 40 40 40 41 43 45 45 43 43 43 44 44 44 44
56 56 55 55 54 54 54 54 54 54 54 54 54 54 54 55 55 55 55 54 53 52 52 51 50 40 39 39 39 39 39 40 45 45 45 44 44 44 44 44 44 44
56 56 55 54 52 52 53 53 54 54 54 54 53 53 53 54 55 55 55 54 54 52 52 51 49 38 38 38 38 38 38 44 46 46 45 44 44 44 44 44 44 44
56 55 54 53 52 52 52 53 54 54 54 53 53 52 52 52 53 53 53 53 53 52 52 51 47 40 38 38 37 37 39 42 45 42 44 44 43 43 43 43 43 42
54 54 52 52 52 52 53 54 54 53 53 52 52 51 51 51 52 51 52 52 52 52 52 50 47 42 38 37 37 37 40 42 42 42 43 43 43 44 43 42 44 47
54 53 52 52 52 54 54 54 52 51 51 51 52 51 51 50 50 50 50 51 51 52 50 50 48 42 38 37 37 37 41 44 39 39 42 43 42 41 43 42 44 43
54 53 53 52 53 53 52 53 51 50 50 50 50 49 49 48 48 48 49 49 50 50 48 49 47 44 40 37 37 37 37 44 39 39 40 42 41 39 41 42 42 41